<?xml version="1.0" encoding="UTF-8" standalone="no" ?>
<gpx xmlns="http://www.topografix.com/GPX/1/1" xmlns:xsi="http://www.w3.org/2001/XMLSchema-instance" xsi:schemaLocation="http://www.topografix.com/GPX/1/1 http://www.topografix.com/GPX/1/1/gpx.xsd" version="1.1" creator="VisuGPX - https://www.visugpx.com">
  <metadata>
    <name>RSPFY-Autour de Guiperreux</name>
    <desc><![CDATA[marche nordique au départ du parking sur la D107 entre Poigny La Forêt et Guiperreux ]]></desc>
  </metadata>
  <trk>
    <name><![CDATA[2018-11-15 09:19]]></name>
    <trkseg>
      <trkpt lat="48.66687" lon="1.71669">
        <ele>145</ele>
        <time>2018-11-15T08:22:03Z</time>
      </trkpt>
      <trkpt lat="48.66681" lon="1.71687">
        <ele>145</ele>
        <time>2018-11-15T08:22:06Z</time>
      </trkpt>
      <trkpt lat="48.66677" lon="1.71696">
        <ele>146</ele>
        <time>2018-11-15T08:22:12Z</time>
      </trkpt>
      <trkpt lat="48.6668" lon="1.71699">
        <ele>146</ele>
        <time>2018-11-15T08:22:57Z</time>
      </trkpt>
      <trkpt lat="48.6668" lon="1.71706">
        <ele>146</ele>
        <time>2018-11-15T08:23:29Z</time>
      </trkpt>
      <trkpt lat="48.66676" lon="1.71703">
        <ele>146</ele>
        <time>2018-11-15T08:24:41Z</time>
      </trkpt>
      <trkpt lat="48.66677" lon="1.71696">
        <ele>146</ele>
        <time>2018-11-15T08:25:53Z</time>
      </trkpt>
      <trkpt lat="48.6668" lon="1.7169">
        <ele>145</ele>
        <time>2018-11-15T08:26:01Z</time>
      </trkpt>
      <trkpt lat="48.66685" lon="1.71688">
        <ele>146</ele>
        <time>2018-11-15T08:26:07Z</time>
      </trkpt>
      <trkpt lat="48.66689" lon="1.71685">
        <ele>146</ele>
        <time>2018-11-15T08:26:13Z</time>
      </trkpt>
      <trkpt lat="48.66695" lon="1.71679">
        <ele>146</ele>
        <time>2018-11-15T08:26:19Z</time>
      </trkpt>
      <trkpt lat="48.667" lon="1.71677">
        <ele>147</ele>
        <time>2018-11-15T08:26:23Z</time>
      </trkpt>
      <trkpt lat="48.66704" lon="1.71675">
        <ele>147</ele>
        <time>2018-11-15T08:26:27Z</time>
      </trkpt>
      <trkpt lat="48.66712" lon="1.7167">
        <ele>148</ele>
        <time>2018-11-15T08:26:33Z</time>
      </trkpt>
      <trkpt lat="48.66716" lon="1.71668">
        <ele>148</ele>
        <time>2018-11-15T08:26:37Z</time>
      </trkpt>
      <trkpt lat="48.66722" lon="1.71664">
        <ele>148</ele>
        <time>2018-11-15T08:26:41Z</time>
      </trkpt>
      <trkpt lat="48.66728" lon="1.71663">
        <ele>148</ele>
        <time>2018-11-15T08:26:45Z</time>
      </trkpt>
      <trkpt lat="48.66735" lon="1.71664">
        <ele>149</ele>
        <time>2018-11-15T08:26:49Z</time>
      </trkpt>
      <trkpt lat="48.66741" lon="1.7166">
        <ele>150</ele>
        <time>2018-11-15T08:26:53Z</time>
      </trkpt>
      <trkpt lat="48.66745" lon="1.71657">
        <ele>150</ele>
        <time>2018-11-15T08:26:57Z</time>
      </trkpt>
      <trkpt lat="48.6675" lon="1.71655">
        <ele>150</ele>
        <time>2018-11-15T08:27:01Z</time>
      </trkpt>
      <trkpt lat="48.66755" lon="1.71652">
        <ele>152</ele>
        <time>2018-11-15T08:27:07Z</time>
      </trkpt>
      <trkpt lat="48.66761" lon="1.71649">
        <ele>152</ele>
        <time>2018-11-15T08:27:13Z</time>
      </trkpt>
      <trkpt lat="48.66768" lon="1.71646">
        <ele>152</ele>
        <time>2018-11-15T08:27:19Z</time>
      </trkpt>
      <trkpt lat="48.66774" lon="1.71643">
        <ele>152</ele>
        <time>2018-11-15T08:27:25Z</time>
      </trkpt>
      <trkpt lat="48.66779" lon="1.71638">
        <ele>152</ele>
        <time>2018-11-15T08:27:29Z</time>
      </trkpt>
      <trkpt lat="48.66784" lon="1.71637">
        <ele>152</ele>
        <time>2018-11-15T08:27:33Z</time>
      </trkpt>
      <trkpt lat="48.66788" lon="1.71634">
        <ele>152</ele>
        <time>2018-11-15T08:27:37Z</time>
      </trkpt>
      <trkpt lat="48.66794" lon="1.71633">
        <ele>152</ele>
        <time>2018-11-15T08:27:41Z</time>
      </trkpt>
      <trkpt lat="48.66799" lon="1.71631">
        <ele>152</ele>
        <time>2018-11-15T08:27:45Z</time>
      </trkpt>
      <trkpt lat="48.66805" lon="1.71629">
        <ele>152</ele>
        <time>2018-11-15T08:27:49Z</time>
      </trkpt>
      <trkpt lat="48.6681" lon="1.71625">
        <ele>152</ele>
        <time>2018-11-15T08:27:53Z</time>
      </trkpt>
      <trkpt lat="48.66815" lon="1.71622">
        <ele>152</ele>
        <time>2018-11-15T08:27:57Z</time>
      </trkpt>
      <trkpt lat="48.66821" lon="1.71617">
        <ele>152</ele>
        <time>2018-11-15T08:28:01Z</time>
      </trkpt>
      <trkpt lat="48.66827" lon="1.71615">
        <ele>152</ele>
        <time>2018-11-15T08:28:05Z</time>
      </trkpt>
      <trkpt lat="48.66832" lon="1.71615">
        <ele>152</ele>
        <time>2018-11-15T08:28:09Z</time>
      </trkpt>
      <trkpt lat="48.66836" lon="1.71612">
        <ele>152</ele>
        <time>2018-11-15T08:28:13Z</time>
      </trkpt>
      <trkpt lat="48.6684" lon="1.71608">
        <ele>152</ele>
        <time>2018-11-15T08:28:17Z</time>
      </trkpt>
      <trkpt lat="48.66845" lon="1.71605">
        <ele>151</ele>
        <time>2018-11-15T08:28:21Z</time>
      </trkpt>
      <trkpt lat="48.6685" lon="1.71602">
        <ele>151</ele>
        <time>2018-11-15T08:28:25Z</time>
      </trkpt>
      <trkpt lat="48.66856" lon="1.71599">
        <ele>151</ele>
        <time>2018-11-15T08:28:29Z</time>
      </trkpt>
      <trkpt lat="48.66862" lon="1.71596">
        <ele>151</ele>
        <time>2018-11-15T08:28:33Z</time>
      </trkpt>
      <trkpt lat="48.66866" lon="1.71592">
        <ele>151</ele>
        <time>2018-11-15T08:28:37Z</time>
      </trkpt>
      <trkpt lat="48.6687" lon="1.71589">
        <ele>151</ele>
        <time>2018-11-15T08:28:41Z</time>
      </trkpt>
      <trkpt lat="48.66876" lon="1.71585">
        <ele>151</ele>
        <time>2018-11-15T08:28:45Z</time>
      </trkpt>
      <trkpt lat="48.66883" lon="1.71582">
        <ele>149</ele>
        <time>2018-11-15T08:28:51Z</time>
      </trkpt>
      <trkpt lat="48.66888" lon="1.7158">
        <ele>149</ele>
        <time>2018-11-15T08:28:55Z</time>
      </trkpt>
      <trkpt lat="48.66893" lon="1.71577">
        <ele>149</ele>
        <time>2018-11-15T08:28:59Z</time>
      </trkpt>
      <trkpt lat="48.669" lon="1.71573">
        <ele>149</ele>
        <time>2018-11-15T08:29:03Z</time>
      </trkpt>
      <trkpt lat="48.66906" lon="1.71572">
        <ele>149</ele>
        <time>2018-11-15T08:29:07Z</time>
      </trkpt>
      <trkpt lat="48.66912" lon="1.71567">
        <ele>149</ele>
        <time>2018-11-15T08:29:13Z</time>
      </trkpt>
      <trkpt lat="48.66919" lon="1.71563">
        <ele>150</ele>
        <time>2018-11-15T08:29:17Z</time>
      </trkpt>
      <trkpt lat="48.66923" lon="1.71558">
        <ele>150</ele>
        <time>2018-11-15T08:29:21Z</time>
      </trkpt>
      <trkpt lat="48.66928" lon="1.71554">
        <ele>150</ele>
        <time>2018-11-15T08:29:25Z</time>
      </trkpt>
      <trkpt lat="48.66934" lon="1.71552">
        <ele>150</ele>
        <time>2018-11-15T08:29:29Z</time>
      </trkpt>
      <trkpt lat="48.6694" lon="1.71548">
        <ele>150</ele>
        <time>2018-11-15T08:29:33Z</time>
      </trkpt>
      <trkpt lat="48.66946" lon="1.71545">
        <ele>150</ele>
        <time>2018-11-15T08:29:37Z</time>
      </trkpt>
      <trkpt lat="48.66951" lon="1.71543">
        <ele>150</ele>
        <time>2018-11-15T08:29:41Z</time>
      </trkpt>
      <trkpt lat="48.66952" lon="1.71534">
        <ele>150</ele>
        <time>2018-11-15T08:29:49Z</time>
      </trkpt>
      <trkpt lat="48.66951" lon="1.71525">
        <ele>150</ele>
        <time>2018-11-15T08:29:53Z</time>
      </trkpt>
      <trkpt lat="48.6695" lon="1.71517">
        <ele>150</ele>
        <time>2018-11-15T08:29:57Z</time>
      </trkpt>
      <trkpt lat="48.66948" lon="1.71509">
        <ele>150</ele>
        <time>2018-11-15T08:30:01Z</time>
      </trkpt>
      <trkpt lat="48.66947" lon="1.71502">
        <ele>150</ele>
        <time>2018-11-15T08:30:05Z</time>
      </trkpt>
      <trkpt lat="48.66945" lon="1.71491">
        <ele>150</ele>
        <time>2018-11-15T08:30:09Z</time>
      </trkpt>
      <trkpt lat="48.66943" lon="1.71484">
        <ele>150</ele>
        <time>2018-11-15T08:30:13Z</time>
      </trkpt>
      <trkpt lat="48.66941" lon="1.71477">
        <ele>150</ele>
        <time>2018-11-15T08:30:17Z</time>
      </trkpt>
      <trkpt lat="48.66938" lon="1.71467">
        <ele>150</ele>
        <time>2018-11-15T08:30:21Z</time>
      </trkpt>
      <trkpt lat="48.66935" lon="1.71458">
        <ele>150</ele>
        <time>2018-11-15T08:30:25Z</time>
      </trkpt>
      <trkpt lat="48.66933" lon="1.71451">
        <ele>150</ele>
        <time>2018-11-15T08:30:29Z</time>
      </trkpt>
      <trkpt lat="48.66931" lon="1.71441">
        <ele>150</ele>
        <time>2018-11-15T08:30:33Z</time>
      </trkpt>
      <trkpt lat="48.66929" lon="1.71432">
        <ele>150</ele>
        <time>2018-11-15T08:30:37Z</time>
      </trkpt>
      <trkpt lat="48.66926" lon="1.71425">
        <ele>150</ele>
        <time>2018-11-15T08:30:41Z</time>
      </trkpt>
      <trkpt lat="48.66924" lon="1.71418">
        <ele>149</ele>
        <time>2018-11-15T08:30:45Z</time>
      </trkpt>
      <trkpt lat="48.66922" lon="1.7141">
        <ele>150</ele>
        <time>2018-11-15T08:30:49Z</time>
      </trkpt>
      <trkpt lat="48.66921" lon="1.71403">
        <ele>150</ele>
        <time>2018-11-15T08:30:53Z</time>
      </trkpt>
      <trkpt lat="48.66918" lon="1.71394">
        <ele>150</ele>
        <time>2018-11-15T08:30:57Z</time>
      </trkpt>
      <trkpt lat="48.66917" lon="1.71386">
        <ele>150</ele>
        <time>2018-11-15T08:31:01Z</time>
      </trkpt>
      <trkpt lat="48.66915" lon="1.71378">
        <ele>148</ele>
        <time>2018-11-15T08:31:05Z</time>
      </trkpt>
      <trkpt lat="48.66914" lon="1.71371">
        <ele>148</ele>
        <time>2018-11-15T08:31:09Z</time>
      </trkpt>
      <trkpt lat="48.66912" lon="1.71365">
        <ele>148</ele>
        <time>2018-11-15T08:31:11Z</time>
      </trkpt>
      <trkpt lat="48.6691" lon="1.71357">
        <ele>148</ele>
        <time>2018-11-15T08:31:15Z</time>
      </trkpt>
      <trkpt lat="48.66908" lon="1.71348">
        <ele>149</ele>
        <time>2018-11-15T08:31:19Z</time>
      </trkpt>
      <trkpt lat="48.66906" lon="1.71338">
        <ele>149</ele>
        <time>2018-11-15T08:31:23Z</time>
      </trkpt>
      <trkpt lat="48.66905" lon="1.71331">
        <ele>149</ele>
        <time>2018-11-15T08:31:27Z</time>
      </trkpt>
      <trkpt lat="48.66903" lon="1.7132">
        <ele>149</ele>
        <time>2018-11-15T08:31:33Z</time>
      </trkpt>
      <trkpt lat="48.66902" lon="1.71312">
        <ele>149</ele>
        <time>2018-11-15T08:31:37Z</time>
      </trkpt>
      <trkpt lat="48.66898" lon="1.713">
        <ele>148</ele>
        <time>2018-11-15T08:31:43Z</time>
      </trkpt>
      <trkpt lat="48.66896" lon="1.71292">
        <ele>148</ele>
        <time>2018-11-15T08:31:47Z</time>
      </trkpt>
      <trkpt lat="48.66894" lon="1.71284">
        <ele>148</ele>
        <time>2018-11-15T08:31:53Z</time>
      </trkpt>
      <trkpt lat="48.66892" lon="1.71273">
        <ele>148</ele>
        <time>2018-11-15T08:31:57Z</time>
      </trkpt>
      <trkpt lat="48.6689" lon="1.71264">
        <ele>149</ele>
        <time>2018-11-15T08:32:01Z</time>
      </trkpt>
      <trkpt lat="48.66888" lon="1.71256">
        <ele>149</ele>
        <time>2018-11-15T08:32:05Z</time>
      </trkpt>
      <trkpt lat="48.66885" lon="1.71248">
        <ele>149</ele>
        <time>2018-11-15T08:32:09Z</time>
      </trkpt>
      <trkpt lat="48.66883" lon="1.71239">
        <ele>149</ele>
        <time>2018-11-15T08:32:13Z</time>
      </trkpt>
      <trkpt lat="48.6688" lon="1.7123">
        <ele>149</ele>
        <time>2018-11-15T08:32:17Z</time>
      </trkpt>
      <trkpt lat="48.66878" lon="1.71219">
        <ele>149</ele>
        <time>2018-11-15T08:32:21Z</time>
      </trkpt>
      <trkpt lat="48.66875" lon="1.71213">
        <ele>149</ele>
        <time>2018-11-15T08:32:25Z</time>
      </trkpt>
      <trkpt lat="48.66873" lon="1.71206">
        <ele>149</ele>
        <time>2018-11-15T08:32:27Z</time>
      </trkpt>
      <trkpt lat="48.66871" lon="1.71197">
        <ele>149</ele>
        <time>2018-11-15T08:32:31Z</time>
      </trkpt>
      <trkpt lat="48.66868" lon="1.71189">
        <ele>149</ele>
        <time>2018-11-15T08:32:35Z</time>
      </trkpt>
      <trkpt lat="48.66867" lon="1.71182">
        <ele>149</ele>
        <time>2018-11-15T08:32:39Z</time>
      </trkpt>
      <trkpt lat="48.66866" lon="1.71175">
        <ele>149</ele>
        <time>2018-11-15T08:32:43Z</time>
      </trkpt>
      <trkpt lat="48.66864" lon="1.71166">
        <ele>150</ele>
        <time>2018-11-15T08:32:47Z</time>
      </trkpt>
      <trkpt lat="48.66861" lon="1.71155">
        <ele>150</ele>
        <time>2018-11-15T08:32:51Z</time>
      </trkpt>
      <trkpt lat="48.6686" lon="1.71147">
        <ele>150</ele>
        <time>2018-11-15T08:32:55Z</time>
      </trkpt>
      <trkpt lat="48.66858" lon="1.7114">
        <ele>151</ele>
        <time>2018-11-15T08:32:59Z</time>
      </trkpt>
      <trkpt lat="48.66857" lon="1.71132">
        <ele>151</ele>
        <time>2018-11-15T08:33:03Z</time>
      </trkpt>
      <trkpt lat="48.66855" lon="1.71124">
        <ele>151</ele>
        <time>2018-11-15T08:33:07Z</time>
      </trkpt>
      <trkpt lat="48.66853" lon="1.71114">
        <ele>151</ele>
        <time>2018-11-15T08:33:11Z</time>
      </trkpt>
      <trkpt lat="48.6685" lon="1.71107">
        <ele>151</ele>
        <time>2018-11-15T08:33:15Z</time>
      </trkpt>
      <trkpt lat="48.66848" lon="1.71099">
        <ele>150</ele>
        <time>2018-11-15T08:33:19Z</time>
      </trkpt>
      <trkpt lat="48.66846" lon="1.71091">
        <ele>150</ele>
        <time>2018-11-15T08:33:23Z</time>
      </trkpt>
      <trkpt lat="48.66844" lon="1.7108">
        <ele>150</ele>
        <time>2018-11-15T08:33:27Z</time>
      </trkpt>
      <trkpt lat="48.66843" lon="1.71072">
        <ele>151</ele>
        <time>2018-11-15T08:33:31Z</time>
      </trkpt>
      <trkpt lat="48.66842" lon="1.71065">
        <ele>151</ele>
        <time>2018-11-15T08:33:35Z</time>
      </trkpt>
      <trkpt lat="48.66839" lon="1.71057">
        <ele>151</ele>
        <time>2018-11-15T08:33:39Z</time>
      </trkpt>
      <trkpt lat="48.66837" lon="1.71049">
        <ele>151</ele>
        <time>2018-11-15T08:33:43Z</time>
      </trkpt>
      <trkpt lat="48.66835" lon="1.71041">
        <ele>152</ele>
        <time>2018-11-15T08:33:47Z</time>
      </trkpt>
      <trkpt lat="48.66832" lon="1.71034">
        <ele>148</ele>
        <time>2018-11-15T08:33:51Z</time>
      </trkpt>
      <trkpt lat="48.6683" lon="1.71026">
        <ele>148</ele>
        <time>2018-11-15T08:33:55Z</time>
      </trkpt>
      <trkpt lat="48.66828" lon="1.71018">
        <ele>148</ele>
        <time>2018-11-15T08:33:59Z</time>
      </trkpt>
      <trkpt lat="48.66825" lon="1.7101">
        <ele>149</ele>
        <time>2018-11-15T08:34:03Z</time>
      </trkpt>
      <trkpt lat="48.66823" lon="1.71002">
        <ele>149</ele>
        <time>2018-11-15T08:34:07Z</time>
      </trkpt>
      <trkpt lat="48.66821" lon="1.70995">
        <ele>149</ele>
        <time>2018-11-15T08:34:11Z</time>
      </trkpt>
      <trkpt lat="48.66818" lon="1.70987">
        <ele>148</ele>
        <time>2018-11-15T08:34:15Z</time>
      </trkpt>
      <trkpt lat="48.66814" lon="1.7098">
        <ele>148</ele>
        <time>2018-11-15T08:34:19Z</time>
      </trkpt>
      <trkpt lat="48.66813" lon="1.70971">
        <ele>148</ele>
        <time>2018-11-15T08:34:23Z</time>
      </trkpt>
      <trkpt lat="48.6681" lon="1.70964">
        <ele>148</ele>
        <time>2018-11-15T08:34:27Z</time>
      </trkpt>
      <trkpt lat="48.66807" lon="1.70958">
        <ele>148</ele>
        <time>2018-11-15T08:34:31Z</time>
      </trkpt>
      <trkpt lat="48.66802" lon="1.70952">
        <ele>148</ele>
        <time>2018-11-15T08:34:35Z</time>
      </trkpt>
      <trkpt lat="48.66797" lon="1.70947">
        <ele>147</ele>
        <time>2018-11-15T08:34:39Z</time>
      </trkpt>
      <trkpt lat="48.66793" lon="1.7094">
        <ele>147</ele>
        <time>2018-11-15T08:34:43Z</time>
      </trkpt>
      <trkpt lat="48.66789" lon="1.70934">
        <ele>147</ele>
        <time>2018-11-15T08:34:47Z</time>
      </trkpt>
      <trkpt lat="48.66783" lon="1.70926">
        <ele>147</ele>
        <time>2018-11-15T08:34:51Z</time>
      </trkpt>
      <trkpt lat="48.66779" lon="1.70922">
        <ele>147</ele>
        <time>2018-11-15T08:34:53Z</time>
      </trkpt>
      <trkpt lat="48.66776" lon="1.70917">
        <ele>147</ele>
        <time>2018-11-15T08:34:57Z</time>
      </trkpt>
      <trkpt lat="48.6677" lon="1.70909">
        <ele>147</ele>
        <time>2018-11-15T08:35:01Z</time>
      </trkpt>
      <trkpt lat="48.66766" lon="1.70903">
        <ele>147</ele>
        <time>2018-11-15T08:35:05Z</time>
      </trkpt>
      <trkpt lat="48.6676" lon="1.70897">
        <ele>147</ele>
        <time>2018-11-15T08:35:09Z</time>
      </trkpt>
      <trkpt lat="48.66755" lon="1.70891">
        <ele>147</ele>
        <time>2018-11-15T08:35:13Z</time>
      </trkpt>
      <trkpt lat="48.66751" lon="1.70883">
        <ele>147</ele>
        <time>2018-11-15T08:35:17Z</time>
      </trkpt>
      <trkpt lat="48.66746" lon="1.70875">
        <ele>145</ele>
        <time>2018-11-15T08:35:21Z</time>
      </trkpt>
      <trkpt lat="48.66741" lon="1.70868">
        <ele>145</ele>
        <time>2018-11-15T08:35:25Z</time>
      </trkpt>
      <trkpt lat="48.66737" lon="1.7086">
        <ele>146</ele>
        <time>2018-11-15T08:35:29Z</time>
      </trkpt>
      <trkpt lat="48.66733" lon="1.70853">
        <ele>146</ele>
        <time>2018-11-15T08:35:33Z</time>
      </trkpt>
      <trkpt lat="48.66728" lon="1.70844">
        <ele>146</ele>
        <time>2018-11-15T08:35:37Z</time>
      </trkpt>
      <trkpt lat="48.66722" lon="1.70836">
        <ele>146</ele>
        <time>2018-11-15T08:35:43Z</time>
      </trkpt>
      <trkpt lat="48.66719" lon="1.70827">
        <ele>146</ele>
        <time>2018-11-15T08:35:47Z</time>
      </trkpt>
      <trkpt lat="48.66715" lon="1.70821">
        <ele>146</ele>
        <time>2018-11-15T08:35:51Z</time>
      </trkpt>
      <trkpt lat="48.66711" lon="1.70814">
        <ele>146</ele>
        <time>2018-11-15T08:35:55Z</time>
      </trkpt>
      <trkpt lat="48.66707" lon="1.70808">
        <ele>146</ele>
        <time>2018-11-15T08:35:59Z</time>
      </trkpt>
      <trkpt lat="48.66703" lon="1.708">
        <ele>146</ele>
        <time>2018-11-15T08:36:03Z</time>
      </trkpt>
      <trkpt lat="48.66699" lon="1.70793">
        <ele>146</ele>
        <time>2018-11-15T08:36:07Z</time>
      </trkpt>
      <trkpt lat="48.66695" lon="1.70787">
        <ele>146</ele>
        <time>2018-11-15T08:36:11Z</time>
      </trkpt>
      <trkpt lat="48.66693" lon="1.70781">
        <ele>146</ele>
        <time>2018-11-15T08:36:15Z</time>
      </trkpt>
      <trkpt lat="48.66688" lon="1.70774">
        <ele>146</ele>
        <time>2018-11-15T08:36:21Z</time>
      </trkpt>
      <trkpt lat="48.66683" lon="1.70766">
        <ele>146</ele>
        <time>2018-11-15T08:36:25Z</time>
      </trkpt>
      <trkpt lat="48.6668" lon="1.70761">
        <ele>146</ele>
        <time>2018-11-15T08:36:29Z</time>
      </trkpt>
      <trkpt lat="48.66676" lon="1.70755">
        <ele>146</ele>
        <time>2018-11-15T08:36:33Z</time>
      </trkpt>
      <trkpt lat="48.66671" lon="1.70747">
        <ele>146</ele>
        <time>2018-11-15T08:36:37Z</time>
      </trkpt>
      <trkpt lat="48.66667" lon="1.70739">
        <ele>146</ele>
        <time>2018-11-15T08:36:41Z</time>
      </trkpt>
      <trkpt lat="48.66663" lon="1.70733">
        <ele>145</ele>
        <time>2018-11-15T08:36:45Z</time>
      </trkpt>
      <trkpt lat="48.66659" lon="1.70725">
        <ele>145</ele>
        <time>2018-11-15T08:36:49Z</time>
      </trkpt>
      <trkpt lat="48.66655" lon="1.7072">
        <ele>145</ele>
        <time>2018-11-15T08:36:53Z</time>
      </trkpt>
      <trkpt lat="48.66651" lon="1.70712">
        <ele>145</ele>
        <time>2018-11-15T08:36:57Z</time>
      </trkpt>
      <trkpt lat="48.66646" lon="1.70707">
        <ele>145</ele>
        <time>2018-11-15T08:37:01Z</time>
      </trkpt>
      <trkpt lat="48.66642" lon="1.707">
        <ele>145</ele>
        <time>2018-11-15T08:37:05Z</time>
      </trkpt>
      <trkpt lat="48.66637" lon="1.70696">
        <ele>145</ele>
        <time>2018-11-15T08:37:09Z</time>
      </trkpt>
      <trkpt lat="48.66634" lon="1.70691">
        <ele>145</ele>
        <time>2018-11-15T08:37:13Z</time>
      </trkpt>
      <trkpt lat="48.66628" lon="1.70685">
        <ele>145</ele>
        <time>2018-11-15T08:37:17Z</time>
      </trkpt>
      <trkpt lat="48.66625" lon="1.7068">
        <ele>145</ele>
        <time>2018-11-15T08:37:21Z</time>
      </trkpt>
      <trkpt lat="48.66618" lon="1.70675">
        <ele>145</ele>
        <time>2018-11-15T08:37:25Z</time>
      </trkpt>
      <trkpt lat="48.66613" lon="1.7067">
        <ele>144</ele>
        <time>2018-11-15T08:37:29Z</time>
      </trkpt>
      <trkpt lat="48.66609" lon="1.70664">
        <ele>145</ele>
        <time>2018-11-15T08:37:33Z</time>
      </trkpt>
      <trkpt lat="48.66605" lon="1.7066">
        <ele>145</ele>
        <time>2018-11-15T08:37:37Z</time>
      </trkpt>
      <trkpt lat="48.666" lon="1.70653">
        <ele>145</ele>
        <time>2018-11-15T08:37:41Z</time>
      </trkpt>
      <trkpt lat="48.66594" lon="1.7065">
        <ele>145</ele>
        <time>2018-11-15T08:37:47Z</time>
      </trkpt>
      <trkpt lat="48.66589" lon="1.70646">
        <ele>145</ele>
        <time>2018-11-15T08:37:51Z</time>
      </trkpt>
      <trkpt lat="48.66584" lon="1.70643">
        <ele>146</ele>
        <time>2018-11-15T08:37:55Z</time>
      </trkpt>
      <trkpt lat="48.66578" lon="1.7064">
        <ele>146</ele>
        <time>2018-11-15T08:37:59Z</time>
      </trkpt>
      <trkpt lat="48.66572" lon="1.70637">
        <ele>146</ele>
        <time>2018-11-15T08:38:03Z</time>
      </trkpt>
      <trkpt lat="48.66566" lon="1.70633">
        <ele>146</ele>
        <time>2018-11-15T08:38:07Z</time>
      </trkpt>
      <trkpt lat="48.6656" lon="1.70632">
        <ele>146</ele>
        <time>2018-11-15T08:38:11Z</time>
      </trkpt>
      <trkpt lat="48.66553" lon="1.7063">
        <ele>146</ele>
        <time>2018-11-15T08:38:15Z</time>
      </trkpt>
      <trkpt lat="48.66548" lon="1.70629">
        <ele>146</ele>
        <time>2018-11-15T08:38:19Z</time>
      </trkpt>
      <trkpt lat="48.66542" lon="1.70626">
        <ele>146</ele>
        <time>2018-11-15T08:38:23Z</time>
      </trkpt>
      <trkpt lat="48.66536" lon="1.70622">
        <ele>147</ele>
        <time>2018-11-15T08:38:27Z</time>
      </trkpt>
      <trkpt lat="48.66531" lon="1.7062">
        <ele>147</ele>
        <time>2018-11-15T08:38:29Z</time>
      </trkpt>
      <trkpt lat="48.66525" lon="1.70616">
        <ele>147</ele>
        <time>2018-11-15T08:38:33Z</time>
      </trkpt>
      <trkpt lat="48.66519" lon="1.70612">
        <ele>147</ele>
        <time>2018-11-15T08:38:37Z</time>
      </trkpt>
      <trkpt lat="48.66513" lon="1.7061">
        <ele>147</ele>
        <time>2018-11-15T08:38:41Z</time>
      </trkpt>
      <trkpt lat="48.66509" lon="1.70606">
        <ele>147</ele>
        <time>2018-11-15T08:38:45Z</time>
      </trkpt>
      <trkpt lat="48.66503" lon="1.70602">
        <ele>148</ele>
        <time>2018-11-15T08:38:49Z</time>
      </trkpt>
      <trkpt lat="48.66497" lon="1.70601">
        <ele>147</ele>
        <time>2018-11-15T08:38:53Z</time>
      </trkpt>
      <trkpt lat="48.66492" lon="1.706">
        <ele>147</ele>
        <time>2018-11-15T08:38:57Z</time>
      </trkpt>
      <trkpt lat="48.66486" lon="1.70598">
        <ele>147</ele>
        <time>2018-11-15T08:39:01Z</time>
      </trkpt>
      <trkpt lat="48.6648" lon="1.70596">
        <ele>147</ele>
        <time>2018-11-15T08:39:05Z</time>
      </trkpt>
      <trkpt lat="48.66472" lon="1.70595">
        <ele>147</ele>
        <time>2018-11-15T08:39:09Z</time>
      </trkpt>
      <trkpt lat="48.66467" lon="1.70594">
        <ele>147</ele>
        <time>2018-11-15T08:39:11Z</time>
      </trkpt>
      <trkpt lat="48.66462" lon="1.7059">
        <ele>147</ele>
        <time>2018-11-15T08:39:15Z</time>
      </trkpt>
      <trkpt lat="48.66457" lon="1.70589">
        <ele>146</ele>
        <time>2018-11-15T08:39:19Z</time>
      </trkpt>
      <trkpt lat="48.66452" lon="1.70585">
        <ele>146</ele>
        <time>2018-11-15T08:39:23Z</time>
      </trkpt>
      <trkpt lat="48.66444" lon="1.70582">
        <ele>148</ele>
        <time>2018-11-15T08:39:27Z</time>
      </trkpt>
      <trkpt lat="48.66437" lon="1.70579">
        <ele>148</ele>
        <time>2018-11-15T08:39:31Z</time>
      </trkpt>
      <trkpt lat="48.66431" lon="1.70577">
        <ele>148</ele>
        <time>2018-11-15T08:39:35Z</time>
      </trkpt>
      <trkpt lat="48.66426" lon="1.70576">
        <ele>147</ele>
        <time>2018-11-15T08:39:39Z</time>
      </trkpt>
      <trkpt lat="48.66421" lon="1.70575">
        <ele>147</ele>
        <time>2018-11-15T08:39:43Z</time>
      </trkpt>
      <trkpt lat="48.66414" lon="1.70571">
        <ele>146</ele>
        <time>2018-11-15T08:39:47Z</time>
      </trkpt>
      <trkpt lat="48.66407" lon="1.7057">
        <ele>146</ele>
        <time>2018-11-15T08:39:51Z</time>
      </trkpt>
      <trkpt lat="48.664" lon="1.70568">
        <ele>146</ele>
        <time>2018-11-15T08:39:55Z</time>
      </trkpt>
      <trkpt lat="48.66394" lon="1.70565">
        <ele>146</ele>
        <time>2018-11-15T08:39:59Z</time>
      </trkpt>
      <trkpt lat="48.66386" lon="1.7056">
        <ele>146</ele>
        <time>2018-11-15T08:40:03Z</time>
      </trkpt>
      <trkpt lat="48.66378" lon="1.70556">
        <ele>146</ele>
        <time>2018-11-15T08:40:07Z</time>
      </trkpt>
      <trkpt lat="48.66371" lon="1.70553">
        <ele>146</ele>
        <time>2018-11-15T08:40:11Z</time>
      </trkpt>
      <trkpt lat="48.66366" lon="1.7055">
        <ele>146</ele>
        <time>2018-11-15T08:40:15Z</time>
      </trkpt>
      <trkpt lat="48.6636" lon="1.70547">
        <ele>146</ele>
        <time>2018-11-15T08:40:19Z</time>
      </trkpt>
      <trkpt lat="48.66354" lon="1.70545">
        <ele>146</ele>
        <time>2018-11-15T08:40:23Z</time>
      </trkpt>
      <trkpt lat="48.66348" lon="1.70544">
        <ele>145</ele>
        <time>2018-11-15T08:40:27Z</time>
      </trkpt>
      <trkpt lat="48.66342" lon="1.70541">
        <ele>146</ele>
        <time>2018-11-15T08:40:31Z</time>
      </trkpt>
      <trkpt lat="48.66335" lon="1.70537">
        <ele>146</ele>
        <time>2018-11-15T08:40:35Z</time>
      </trkpt>
      <trkpt lat="48.66331" lon="1.70532">
        <ele>144</ele>
        <time>2018-11-15T08:40:39Z</time>
      </trkpt>
      <trkpt lat="48.66326" lon="1.70529">
        <ele>144</ele>
        <time>2018-11-15T08:40:41Z</time>
      </trkpt>
      <trkpt lat="48.66321" lon="1.70524">
        <ele>145</ele>
        <time>2018-11-15T08:40:45Z</time>
      </trkpt>
      <trkpt lat="48.66316" lon="1.70519">
        <ele>145</ele>
        <time>2018-11-15T08:40:49Z</time>
      </trkpt>
      <trkpt lat="48.66312" lon="1.70514">
        <ele>145</ele>
        <time>2018-11-15T08:40:53Z</time>
      </trkpt>
      <trkpt lat="48.66308" lon="1.70509">
        <ele>145</ele>
        <time>2018-11-15T08:40:57Z</time>
      </trkpt>
      <trkpt lat="48.66302" lon="1.70504">
        <ele>145</ele>
        <time>2018-11-15T08:41:01Z</time>
      </trkpt>
      <trkpt lat="48.66297" lon="1.70499">
        <ele>148</ele>
        <time>2018-11-15T08:41:05Z</time>
      </trkpt>
      <trkpt lat="48.66292" lon="1.70492">
        <ele>148</ele>
        <time>2018-11-15T08:41:09Z</time>
      </trkpt>
      <trkpt lat="48.66287" lon="1.70484">
        <ele>148</ele>
        <time>2018-11-15T08:41:13Z</time>
      </trkpt>
      <trkpt lat="48.66281" lon="1.70477">
        <ele>149</ele>
        <time>2018-11-15T08:41:17Z</time>
      </trkpt>
      <trkpt lat="48.66277" lon="1.70472">
        <ele>149</ele>
        <time>2018-11-15T08:41:21Z</time>
      </trkpt>
      <trkpt lat="48.6627" lon="1.70466">
        <ele>149</ele>
        <time>2018-11-15T08:41:27Z</time>
      </trkpt>
      <trkpt lat="48.66266" lon="1.7046">
        <ele>149</ele>
        <time>2018-11-15T08:41:31Z</time>
      </trkpt>
      <trkpt lat="48.66261" lon="1.70457">
        <ele>149</ele>
        <time>2018-11-15T08:41:35Z</time>
      </trkpt>
      <trkpt lat="48.66257" lon="1.70453">
        <ele>150</ele>
        <time>2018-11-15T08:41:39Z</time>
      </trkpt>
      <trkpt lat="48.66255" lon="1.70446">
        <ele>150</ele>
        <time>2018-11-15T08:41:53Z</time>
      </trkpt>
      <trkpt lat="48.66252" lon="1.70439">
        <ele>151</ele>
        <time>2018-11-15T08:42:39Z</time>
      </trkpt>
      <trkpt lat="48.66251" lon="1.70432">
        <ele>151</ele>
        <time>2018-11-15T08:42:43Z</time>
      </trkpt>
      <trkpt lat="48.6625" lon="1.70425">
        <ele>152</ele>
        <time>2018-11-15T08:42:47Z</time>
      </trkpt>
      <trkpt lat="48.6625" lon="1.70417">
        <ele>153</ele>
        <time>2018-11-15T08:42:51Z</time>
      </trkpt>
      <trkpt lat="48.6625" lon="1.70407">
        <ele>154</ele>
        <time>2018-11-15T08:42:55Z</time>
      </trkpt>
      <trkpt lat="48.66249" lon="1.70399">
        <ele>154</ele>
        <time>2018-11-15T08:42:59Z</time>
      </trkpt>
      <trkpt lat="48.66249" lon="1.70392">
        <ele>155</ele>
        <time>2018-11-15T08:43:03Z</time>
      </trkpt>
      <trkpt lat="48.66247" lon="1.70385">
        <ele>155</ele>
        <time>2018-11-15T08:43:07Z</time>
      </trkpt>
      <trkpt lat="48.66245" lon="1.70377">
        <ele>156</ele>
        <time>2018-11-15T08:43:11Z</time>
      </trkpt>
      <trkpt lat="48.66244" lon="1.70369">
        <ele>156</ele>
        <time>2018-11-15T08:43:15Z</time>
      </trkpt>
      <trkpt lat="48.66241" lon="1.70359">
        <ele>157</ele>
        <time>2018-11-15T08:43:21Z</time>
      </trkpt>
      <trkpt lat="48.6624" lon="1.70352">
        <ele>158</ele>
        <time>2018-11-15T08:43:25Z</time>
      </trkpt>
      <trkpt lat="48.66239" lon="1.70344">
        <ele>158</ele>
        <time>2018-11-15T08:43:29Z</time>
      </trkpt>
      <trkpt lat="48.66236" lon="1.70335">
        <ele>159</ele>
        <time>2018-11-15T08:43:35Z</time>
      </trkpt>
      <trkpt lat="48.66234" lon="1.70327">
        <ele>161</ele>
        <time>2018-11-15T08:43:41Z</time>
      </trkpt>
      <trkpt lat="48.66233" lon="1.70319">
        <ele>161</ele>
        <time>2018-11-15T08:43:47Z</time>
      </trkpt>
      <trkpt lat="48.6623" lon="1.70313">
        <ele>161</ele>
        <time>2018-11-15T08:43:51Z</time>
      </trkpt>
      <trkpt lat="48.66229" lon="1.70304">
        <ele>162</ele>
        <time>2018-11-15T08:43:57Z</time>
      </trkpt>
      <trkpt lat="48.66228" lon="1.70294">
        <ele>162</ele>
        <time>2018-11-15T08:44:03Z</time>
      </trkpt>
      <trkpt lat="48.66229" lon="1.70286">
        <ele>162</ele>
        <time>2018-11-15T08:44:07Z</time>
      </trkpt>
      <trkpt lat="48.66227" lon="1.70277">
        <ele>163</ele>
        <time>2018-11-15T08:44:11Z</time>
      </trkpt>
      <trkpt lat="48.66227" lon="1.70268">
        <ele>163</ele>
        <time>2018-11-15T08:44:17Z</time>
      </trkpt>
      <trkpt lat="48.66227" lon="1.70262">
        <ele>164</ele>
        <time>2018-11-15T08:44:21Z</time>
      </trkpt>
      <trkpt lat="48.66225" lon="1.70254">
        <ele>164</ele>
        <time>2018-11-15T08:44:27Z</time>
      </trkpt>
      <trkpt lat="48.66225" lon="1.70243">
        <ele>166</ele>
        <time>2018-11-15T08:44:31Z</time>
      </trkpt>
      <trkpt lat="48.66224" lon="1.70234">
        <ele>166</ele>
        <time>2018-11-15T08:44:35Z</time>
      </trkpt>
      <trkpt lat="48.66222" lon="1.70224">
        <ele>165</ele>
        <time>2018-11-15T08:44:39Z</time>
      </trkpt>
      <trkpt lat="48.66222" lon="1.70217">
        <ele>165</ele>
        <time>2018-11-15T08:44:41Z</time>
      </trkpt>
      <trkpt lat="48.66222" lon="1.70206">
        <ele>166</ele>
        <time>2018-11-15T08:44:45Z</time>
      </trkpt>
      <trkpt lat="48.6622" lon="1.70197">
        <ele>166</ele>
        <time>2018-11-15T08:44:49Z</time>
      </trkpt>
      <trkpt lat="48.66221" lon="1.70188">
        <ele>166</ele>
        <time>2018-11-15T08:44:53Z</time>
      </trkpt>
      <trkpt lat="48.66222" lon="1.70182">
        <ele>166</ele>
        <time>2018-11-15T08:44:57Z</time>
      </trkpt>
      <trkpt lat="48.66223" lon="1.7017">
        <ele>167</ele>
        <time>2018-11-15T08:45:01Z</time>
      </trkpt>
      <trkpt lat="48.66226" lon="1.70162">
        <ele>168</ele>
        <time>2018-11-15T08:45:05Z</time>
      </trkpt>
      <trkpt lat="48.6623" lon="1.70152">
        <ele>168</ele>
        <time>2018-11-15T08:45:11Z</time>
      </trkpt>
      <trkpt lat="48.66233" lon="1.70146">
        <ele>168</ele>
        <time>2018-11-15T08:45:15Z</time>
      </trkpt>
      <trkpt lat="48.66237" lon="1.7014">
        <ele>168</ele>
        <time>2018-11-15T08:45:19Z</time>
      </trkpt>
      <trkpt lat="48.6624" lon="1.70132">
        <ele>168</ele>
        <time>2018-11-15T08:45:23Z</time>
      </trkpt>
      <trkpt lat="48.66245" lon="1.70124">
        <ele>168</ele>
        <time>2018-11-15T08:45:27Z</time>
      </trkpt>
      <trkpt lat="48.6625" lon="1.70117">
        <ele>168</ele>
        <time>2018-11-15T08:45:31Z</time>
      </trkpt>
      <trkpt lat="48.66255" lon="1.70109">
        <ele>172</ele>
        <time>2018-11-15T08:45:35Z</time>
      </trkpt>
      <trkpt lat="48.66259" lon="1.70102">
        <ele>172</ele>
        <time>2018-11-15T08:45:39Z</time>
      </trkpt>
      <trkpt lat="48.66264" lon="1.70096">
        <ele>172</ele>
        <time>2018-11-15T08:45:43Z</time>
      </trkpt>
      <trkpt lat="48.66269" lon="1.70088">
        <ele>172</ele>
        <time>2018-11-15T08:45:47Z</time>
      </trkpt>
      <trkpt lat="48.66273" lon="1.7008">
        <ele>173</ele>
        <time>2018-11-15T08:45:51Z</time>
      </trkpt>
      <trkpt lat="48.66275" lon="1.70073">
        <ele>173</ele>
        <time>2018-11-15T08:45:55Z</time>
      </trkpt>
      <trkpt lat="48.66279" lon="1.70064">
        <ele>173</ele>
        <time>2018-11-15T08:45:59Z</time>
      </trkpt>
      <trkpt lat="48.66283" lon="1.70056">
        <ele>173</ele>
        <time>2018-11-15T08:46:03Z</time>
      </trkpt>
      <trkpt lat="48.6629" lon="1.70045">
        <ele>173</ele>
        <time>2018-11-15T08:46:07Z</time>
      </trkpt>
      <trkpt lat="48.66294" lon="1.70041">
        <ele>173</ele>
        <time>2018-11-15T08:46:11Z</time>
      </trkpt>
      <trkpt lat="48.66299" lon="1.70036">
        <ele>173</ele>
        <time>2018-11-15T08:46:17Z</time>
      </trkpt>
      <trkpt lat="48.66304" lon="1.70037">
        <ele>173</ele>
        <time>2018-11-15T08:46:23Z</time>
      </trkpt>
      <trkpt lat="48.6631" lon="1.70036">
        <ele>173</ele>
        <time>2018-11-15T08:46:27Z</time>
      </trkpt>
      <trkpt lat="48.66316" lon="1.70034">
        <ele>173</ele>
        <time>2018-11-15T08:46:31Z</time>
      </trkpt>
      <trkpt lat="48.66321" lon="1.70035">
        <ele>173</ele>
        <time>2018-11-15T08:46:35Z</time>
      </trkpt>
      <trkpt lat="48.66326" lon="1.70035">
        <ele>173</ele>
        <time>2018-11-15T08:46:39Z</time>
      </trkpt>
      <trkpt lat="48.66334" lon="1.70034">
        <ele>174</ele>
        <time>2018-11-15T08:46:45Z</time>
      </trkpt>
      <trkpt lat="48.66339" lon="1.70034">
        <ele>174</ele>
        <time>2018-11-15T08:46:49Z</time>
      </trkpt>
      <trkpt lat="48.66345" lon="1.70032">
        <ele>174</ele>
        <time>2018-11-15T08:46:53Z</time>
      </trkpt>
      <trkpt lat="48.66352" lon="1.70028">
        <ele>174</ele>
        <time>2018-11-15T08:46:59Z</time>
      </trkpt>
      <trkpt lat="48.66359" lon="1.70026">
        <ele>174</ele>
        <time>2018-11-15T08:47:03Z</time>
      </trkpt>
      <trkpt lat="48.66364" lon="1.70027">
        <ele>174</ele>
        <time>2018-11-15T08:47:07Z</time>
      </trkpt>
      <trkpt lat="48.66372" lon="1.70024">
        <ele>174</ele>
        <time>2018-11-15T08:47:13Z</time>
      </trkpt>
      <trkpt lat="48.66377" lon="1.70024">
        <ele>174</ele>
        <time>2018-11-15T08:47:17Z</time>
      </trkpt>
      <trkpt lat="48.66382" lon="1.70023">
        <ele>174</ele>
        <time>2018-11-15T08:47:19Z</time>
      </trkpt>
      <trkpt lat="48.66387" lon="1.70019">
        <ele>174</ele>
        <time>2018-11-15T08:47:23Z</time>
      </trkpt>
      <trkpt lat="48.66393" lon="1.70014">
        <ele>174</ele>
        <time>2018-11-15T08:47:27Z</time>
      </trkpt>
      <trkpt lat="48.664" lon="1.70012">
        <ele>174</ele>
        <time>2018-11-15T08:47:31Z</time>
      </trkpt>
      <trkpt lat="48.66407" lon="1.70008">
        <ele>174</ele>
        <time>2018-11-15T08:47:35Z</time>
      </trkpt>
      <trkpt lat="48.66413" lon="1.70005">
        <ele>174</ele>
        <time>2018-11-15T08:47:39Z</time>
      </trkpt>
      <trkpt lat="48.6642" lon="1.70002">
        <ele>174</ele>
        <time>2018-11-15T08:47:45Z</time>
      </trkpt>
      <trkpt lat="48.66425" lon="1.69998">
        <ele>174</ele>
        <time>2018-11-15T08:47:49Z</time>
      </trkpt>
      <trkpt lat="48.66432" lon="1.69996">
        <ele>175</ele>
        <time>2018-11-15T08:47:53Z</time>
      </trkpt>
      <trkpt lat="48.66437" lon="1.69993">
        <ele>175</ele>
        <time>2018-11-15T08:47:57Z</time>
      </trkpt>
      <trkpt lat="48.66443" lon="1.69993">
        <ele>175</ele>
        <time>2018-11-15T08:48:01Z</time>
      </trkpt>
      <trkpt lat="48.66448" lon="1.69993">
        <ele>175</ele>
        <time>2018-11-15T08:48:05Z</time>
      </trkpt>
      <trkpt lat="48.66454" lon="1.69989">
        <ele>175</ele>
        <time>2018-11-15T08:48:11Z</time>
      </trkpt>
      <trkpt lat="48.6646" lon="1.69987">
        <ele>175</ele>
        <time>2018-11-15T08:48:15Z</time>
      </trkpt>
      <trkpt lat="48.66464" lon="1.69994">
        <ele>176</ele>
        <time>2018-11-15T08:48:23Z</time>
      </trkpt>
      <trkpt lat="48.66466" lon="1.69987">
        <ele>176</ele>
        <time>2018-11-15T08:48:49Z</time>
      </trkpt>
      <trkpt lat="48.66466" lon="1.6998">
        <ele>175</ele>
        <time>2018-11-15T08:48:55Z</time>
      </trkpt>
      <trkpt lat="48.66466" lon="1.69972">
        <ele>175</ele>
        <time>2018-11-15T08:49:01Z</time>
      </trkpt>
      <trkpt lat="48.66465" lon="1.69963">
        <ele>175</ele>
        <time>2018-11-15T08:49:07Z</time>
      </trkpt>
      <trkpt lat="48.66464" lon="1.69956">
        <ele>175</ele>
        <time>2018-11-15T08:49:15Z</time>
      </trkpt>
      <trkpt lat="48.66464" lon="1.69947">
        <ele>175</ele>
        <time>2018-11-15T08:51:27Z</time>
      </trkpt>
      <trkpt lat="48.66465" lon="1.69954">
        <ele>175</ele>
        <time>2018-11-15T08:51:43Z</time>
      </trkpt>
      <trkpt lat="48.66472" lon="1.69961">
        <ele>175</ele>
        <time>2018-11-15T08:51:49Z</time>
      </trkpt>
      <trkpt lat="48.66475" lon="1.69967">
        <ele>176</ele>
        <time>2018-11-15T08:51:57Z</time>
      </trkpt>
      <trkpt lat="48.66477" lon="1.69975">
        <ele>176</ele>
        <time>2018-11-15T08:52:03Z</time>
      </trkpt>
      <trkpt lat="48.66481" lon="1.69979">
        <ele>176</ele>
        <time>2018-11-15T08:52:07Z</time>
      </trkpt>
      <trkpt lat="48.66487" lon="1.69979">
        <ele>176</ele>
        <time>2018-11-15T08:52:13Z</time>
      </trkpt>
      <trkpt lat="48.66492" lon="1.69978">
        <ele>176</ele>
        <time>2018-11-15T08:52:19Z</time>
      </trkpt>
      <trkpt lat="48.66498" lon="1.69977">
        <ele>176</ele>
        <time>2018-11-15T08:52:23Z</time>
      </trkpt>
      <trkpt lat="48.66504" lon="1.69975">
        <ele>178</ele>
        <time>2018-11-15T08:52:27Z</time>
      </trkpt>
      <trkpt lat="48.66511" lon="1.69974">
        <ele>178</ele>
        <time>2018-11-15T08:52:33Z</time>
      </trkpt>
      <trkpt lat="48.66516" lon="1.69976">
        <ele>178</ele>
        <time>2018-11-15T08:52:37Z</time>
      </trkpt>
      <trkpt lat="48.66521" lon="1.69975">
        <ele>178</ele>
        <time>2018-11-15T08:52:43Z</time>
      </trkpt>
      <trkpt lat="48.66526" lon="1.69972">
        <ele>178</ele>
        <time>2018-11-15T08:52:47Z</time>
      </trkpt>
      <trkpt lat="48.66531" lon="1.69971">
        <ele>178</ele>
        <time>2018-11-15T08:52:51Z</time>
      </trkpt>
      <trkpt lat="48.66536" lon="1.69969">
        <ele>178</ele>
        <time>2018-11-15T08:52:55Z</time>
      </trkpt>
      <trkpt lat="48.6654" lon="1.69972">
        <ele>178</ele>
        <time>2018-11-15T08:53:01Z</time>
      </trkpt>
      <trkpt lat="48.66544" lon="1.69976">
        <ele>178</ele>
        <time>2018-11-15T08:53:07Z</time>
      </trkpt>
      <trkpt lat="48.66551" lon="1.69977">
        <ele>178</ele>
        <time>2018-11-15T08:53:15Z</time>
      </trkpt>
      <trkpt lat="48.66557" lon="1.69976">
        <ele>178</ele>
        <time>2018-11-15T08:53:19Z</time>
      </trkpt>
      <trkpt lat="48.66562" lon="1.69975">
        <ele>179</ele>
        <time>2018-11-15T08:53:23Z</time>
      </trkpt>
      <trkpt lat="48.66569" lon="1.69972">
        <ele>179</ele>
        <time>2018-11-15T08:53:29Z</time>
      </trkpt>
      <trkpt lat="48.66574" lon="1.69972">
        <ele>179</ele>
        <time>2018-11-15T08:53:33Z</time>
      </trkpt>
      <trkpt lat="48.66578" lon="1.69973">
        <ele>179</ele>
        <time>2018-11-15T08:53:39Z</time>
      </trkpt>
      <trkpt lat="48.66584" lon="1.69971">
        <ele>179</ele>
        <time>2018-11-15T08:53:43Z</time>
      </trkpt>
      <trkpt lat="48.66589" lon="1.69969">
        <ele>179</ele>
        <time>2018-11-15T08:53:47Z</time>
      </trkpt>
      <trkpt lat="48.66595" lon="1.69971">
        <ele>179</ele>
        <time>2018-11-15T08:53:51Z</time>
      </trkpt>
      <trkpt lat="48.66601" lon="1.69972">
        <ele>179</ele>
        <time>2018-11-15T08:53:57Z</time>
      </trkpt>
      <trkpt lat="48.66607" lon="1.69971">
        <ele>179</ele>
        <time>2018-11-15T08:54:01Z</time>
      </trkpt>
      <trkpt lat="48.66611" lon="1.69966">
        <ele>179</ele>
        <time>2018-11-15T08:54:09Z</time>
      </trkpt>
      <trkpt lat="48.66617" lon="1.69967">
        <ele>179</ele>
        <time>2018-11-15T08:54:13Z</time>
      </trkpt>
      <trkpt lat="48.66622" lon="1.69963">
        <ele>179</ele>
        <time>2018-11-15T08:54:17Z</time>
      </trkpt>
      <trkpt lat="48.66627" lon="1.6996">
        <ele>179</ele>
        <time>2018-11-15T08:54:21Z</time>
      </trkpt>
      <trkpt lat="48.66631" lon="1.69955">
        <ele>179</ele>
        <time>2018-11-15T08:54:25Z</time>
      </trkpt>
      <trkpt lat="48.66639" lon="1.6995">
        <ele>179</ele>
        <time>2018-11-15T08:54:31Z</time>
      </trkpt>
      <trkpt lat="48.66643" lon="1.69953">
        <ele>179</ele>
        <time>2018-11-15T08:54:35Z</time>
      </trkpt>
      <trkpt lat="48.66648" lon="1.69955">
        <ele>179</ele>
        <time>2018-11-15T08:54:39Z</time>
      </trkpt>
      <trkpt lat="48.66653" lon="1.69959">
        <ele>179</ele>
        <time>2018-11-15T08:54:43Z</time>
      </trkpt>
      <trkpt lat="48.66657" lon="1.69966">
        <ele>179</ele>
        <time>2018-11-15T08:54:49Z</time>
      </trkpt>
      <trkpt lat="48.66661" lon="1.69971">
        <ele>179</ele>
        <time>2018-11-15T08:54:53Z</time>
      </trkpt>
      <trkpt lat="48.66665" lon="1.69979">
        <ele>179</ele>
        <time>2018-11-15T08:54:59Z</time>
      </trkpt>
      <trkpt lat="48.6667" lon="1.69986">
        <ele>178</ele>
        <time>2018-11-15T08:55:03Z</time>
      </trkpt>
      <trkpt lat="48.66676" lon="1.69992">
        <ele>178</ele>
        <time>2018-11-15T08:55:07Z</time>
      </trkpt>
      <trkpt lat="48.6668" lon="1.69999">
        <ele>178</ele>
        <time>2018-11-15T08:55:13Z</time>
      </trkpt>
      <trkpt lat="48.66686" lon="1.70007">
        <ele>179</ele>
        <time>2018-11-15T08:55:17Z</time>
      </trkpt>
      <trkpt lat="48.66689" lon="1.70015">
        <ele>179</ele>
        <time>2018-11-15T08:55:21Z</time>
      </trkpt>
      <trkpt lat="48.66693" lon="1.70021">
        <ele>179</ele>
        <time>2018-11-15T08:55:25Z</time>
      </trkpt>
      <trkpt lat="48.66696" lon="1.70028">
        <ele>179</ele>
        <time>2018-11-15T08:55:29Z</time>
      </trkpt>
      <trkpt lat="48.66701" lon="1.70034">
        <ele>179</ele>
        <time>2018-11-15T08:55:33Z</time>
      </trkpt>
      <trkpt lat="48.66707" lon="1.7004">
        <ele>179</ele>
        <time>2018-11-15T08:55:37Z</time>
      </trkpt>
      <trkpt lat="48.66712" lon="1.70045">
        <ele>179</ele>
        <time>2018-11-15T08:55:41Z</time>
      </trkpt>
      <trkpt lat="48.66716" lon="1.7005">
        <ele>179</ele>
        <time>2018-11-15T08:55:45Z</time>
      </trkpt>
      <trkpt lat="48.6672" lon="1.70053">
        <ele>179</ele>
        <time>2018-11-15T08:55:49Z</time>
      </trkpt>
      <trkpt lat="48.66724" lon="1.7006">
        <ele>179</ele>
        <time>2018-11-15T08:55:53Z</time>
      </trkpt>
      <trkpt lat="48.66727" lon="1.70066">
        <ele>179</ele>
        <time>2018-11-15T08:55:57Z</time>
      </trkpt>
      <trkpt lat="48.66731" lon="1.70073">
        <ele>180</ele>
        <time>2018-11-15T08:56:01Z</time>
      </trkpt>
      <trkpt lat="48.66734" lon="1.70079">
        <ele>180</ele>
        <time>2018-11-15T08:56:05Z</time>
      </trkpt>
      <trkpt lat="48.66738" lon="1.70088">
        <ele>180</ele>
        <time>2018-11-15T08:56:09Z</time>
      </trkpt>
      <trkpt lat="48.66742" lon="1.70094">
        <ele>180</ele>
        <time>2018-11-15T08:56:13Z</time>
      </trkpt>
      <trkpt lat="48.66746" lon="1.70099">
        <ele>180</ele>
        <time>2018-11-15T08:56:17Z</time>
      </trkpt>
      <trkpt lat="48.66749" lon="1.70107">
        <ele>180</ele>
        <time>2018-11-15T08:56:21Z</time>
      </trkpt>
      <trkpt lat="48.66753" lon="1.70115">
        <ele>179</ele>
        <time>2018-11-15T08:56:29Z</time>
      </trkpt>
      <trkpt lat="48.66756" lon="1.7012">
        <ele>179</ele>
        <time>2018-11-15T08:56:33Z</time>
      </trkpt>
      <trkpt lat="48.66762" lon="1.70124">
        <ele>179</ele>
        <time>2018-11-15T08:56:37Z</time>
      </trkpt>
      <trkpt lat="48.66767" lon="1.7013">
        <ele>179</ele>
        <time>2018-11-15T08:56:41Z</time>
      </trkpt>
      <trkpt lat="48.66771" lon="1.70136">
        <ele>179</ele>
        <time>2018-11-15T08:56:45Z</time>
      </trkpt>
      <trkpt lat="48.66773" lon="1.70143">
        <ele>179</ele>
        <time>2018-11-15T08:56:49Z</time>
      </trkpt>
      <trkpt lat="48.66777" lon="1.7015">
        <ele>179</ele>
        <time>2018-11-15T08:56:55Z</time>
      </trkpt>
      <trkpt lat="48.66781" lon="1.70158">
        <ele>179</ele>
        <time>2018-11-15T08:56:59Z</time>
      </trkpt>
      <trkpt lat="48.66783" lon="1.70164">
        <ele>179</ele>
        <time>2018-11-15T08:57:01Z</time>
      </trkpt>
      <trkpt lat="48.66787" lon="1.70171">
        <ele>178</ele>
        <time>2018-11-15T08:57:05Z</time>
      </trkpt>
      <trkpt lat="48.66792" lon="1.70176">
        <ele>177</ele>
        <time>2018-11-15T08:57:09Z</time>
      </trkpt>
      <trkpt lat="48.66796" lon="1.70182">
        <ele>177</ele>
        <time>2018-11-15T08:57:13Z</time>
      </trkpt>
      <trkpt lat="48.668" lon="1.70187">
        <ele>177</ele>
        <time>2018-11-15T08:57:17Z</time>
      </trkpt>
      <trkpt lat="48.66804" lon="1.70193">
        <ele>177</ele>
        <time>2018-11-15T08:57:21Z</time>
      </trkpt>
      <trkpt lat="48.66811" lon="1.702">
        <ele>177</ele>
        <time>2018-11-15T08:57:25Z</time>
      </trkpt>
      <trkpt lat="48.66814" lon="1.70208">
        <ele>177</ele>
        <time>2018-11-15T08:57:29Z</time>
      </trkpt>
      <trkpt lat="48.66817" lon="1.70213">
        <ele>177</ele>
        <time>2018-11-15T08:57:33Z</time>
      </trkpt>
      <trkpt lat="48.66821" lon="1.70219">
        <ele>176</ele>
        <time>2018-11-15T08:57:37Z</time>
      </trkpt>
      <trkpt lat="48.66825" lon="1.70226">
        <ele>176</ele>
        <time>2018-11-15T08:57:41Z</time>
      </trkpt>
      <trkpt lat="48.6683" lon="1.70234">
        <ele>176</ele>
        <time>2018-11-15T08:57:45Z</time>
      </trkpt>
      <trkpt lat="48.66835" lon="1.70242">
        <ele>175</ele>
        <time>2018-11-15T08:57:49Z</time>
      </trkpt>
      <trkpt lat="48.66839" lon="1.70246">
        <ele>175</ele>
        <time>2018-11-15T08:57:53Z</time>
      </trkpt>
      <trkpt lat="48.66843" lon="1.70254">
        <ele>174</ele>
        <time>2018-11-15T08:57:57Z</time>
      </trkpt>
      <trkpt lat="48.66848" lon="1.7026">
        <ele>173</ele>
        <time>2018-11-15T08:58:01Z</time>
      </trkpt>
      <trkpt lat="48.66853" lon="1.70264">
        <ele>173</ele>
        <time>2018-11-15T08:58:05Z</time>
      </trkpt>
      <trkpt lat="48.66857" lon="1.70271">
        <ele>172</ele>
        <time>2018-11-15T08:58:09Z</time>
      </trkpt>
      <trkpt lat="48.66862" lon="1.70276">
        <ele>172</ele>
        <time>2018-11-15T08:58:13Z</time>
      </trkpt>
      <trkpt lat="48.6687" lon="1.70279">
        <ele>172</ele>
        <time>2018-11-15T08:58:17Z</time>
      </trkpt>
      <trkpt lat="48.66876" lon="1.70283">
        <ele>172</ele>
        <time>2018-11-15T08:58:21Z</time>
      </trkpt>
      <trkpt lat="48.66883" lon="1.70285">
        <ele>171</ele>
        <time>2018-11-15T08:58:25Z</time>
      </trkpt>
      <trkpt lat="48.66886" lon="1.70291">
        <ele>171</ele>
        <time>2018-11-15T08:58:29Z</time>
      </trkpt>
      <trkpt lat="48.6689" lon="1.70299">
        <ele>171</ele>
        <time>2018-11-15T08:58:33Z</time>
      </trkpt>
      <trkpt lat="48.66892" lon="1.70307">
        <ele>170</ele>
        <time>2018-11-15T08:58:37Z</time>
      </trkpt>
      <trkpt lat="48.66895" lon="1.70313">
        <ele>170</ele>
        <time>2018-11-15T08:58:41Z</time>
      </trkpt>
      <trkpt lat="48.66897" lon="1.7032">
        <ele>170</ele>
        <time>2018-11-15T08:58:45Z</time>
      </trkpt>
      <trkpt lat="48.66902" lon="1.70327">
        <ele>169</ele>
        <time>2018-11-15T08:58:51Z</time>
      </trkpt>
      <trkpt lat="48.66906" lon="1.70332">
        <ele>168</ele>
        <time>2018-11-15T08:58:55Z</time>
      </trkpt>
      <trkpt lat="48.66909" lon="1.70338">
        <ele>167</ele>
        <time>2018-11-15T08:58:59Z</time>
      </trkpt>
      <trkpt lat="48.66913" lon="1.70344">
        <ele>167</ele>
        <time>2018-11-15T08:59:03Z</time>
      </trkpt>
      <trkpt lat="48.66917" lon="1.70347">
        <ele>168</ele>
        <time>2018-11-15T08:59:07Z</time>
      </trkpt>
      <trkpt lat="48.66922" lon="1.70353">
        <ele>168</ele>
        <time>2018-11-15T08:59:11Z</time>
      </trkpt>
      <trkpt lat="48.66924" lon="1.70362">
        <ele>168</ele>
        <time>2018-11-15T08:59:15Z</time>
      </trkpt>
      <trkpt lat="48.66928" lon="1.7037">
        <ele>168</ele>
        <time>2018-11-15T08:59:19Z</time>
      </trkpt>
      <trkpt lat="48.66931" lon="1.70375">
        <ele>168</ele>
        <time>2018-11-15T08:59:21Z</time>
      </trkpt>
      <trkpt lat="48.66937" lon="1.70382">
        <ele>168</ele>
        <time>2018-11-15T08:59:25Z</time>
      </trkpt>
      <trkpt lat="48.66944" lon="1.70392">
        <ele>168</ele>
        <time>2018-11-15T08:59:29Z</time>
      </trkpt>
      <trkpt lat="48.66948" lon="1.70398">
        <ele>168</ele>
        <time>2018-11-15T08:59:33Z</time>
      </trkpt>
      <trkpt lat="48.66952" lon="1.70405">
        <ele>168</ele>
        <time>2018-11-15T08:59:37Z</time>
      </trkpt>
      <trkpt lat="48.66956" lon="1.70408">
        <ele>168</ele>
        <time>2018-11-15T08:59:41Z</time>
      </trkpt>
      <trkpt lat="48.66961" lon="1.70417">
        <ele>167</ele>
        <time>2018-11-15T08:59:45Z</time>
      </trkpt>
      <trkpt lat="48.66964" lon="1.70424">
        <ele>167</ele>
        <time>2018-11-15T08:59:51Z</time>
      </trkpt>
      <trkpt lat="48.66967" lon="1.70429">
        <ele>167</ele>
        <time>2018-11-15T08:59:55Z</time>
      </trkpt>
      <trkpt lat="48.66973" lon="1.70432">
        <ele>168</ele>
        <time>2018-11-15T08:59:59Z</time>
      </trkpt>
      <trkpt lat="48.66977" lon="1.7044">
        <ele>168</ele>
        <time>2018-11-15T09:00:03Z</time>
      </trkpt>
      <trkpt lat="48.66981" lon="1.70446">
        <ele>168</ele>
        <time>2018-11-15T09:00:07Z</time>
      </trkpt>
      <trkpt lat="48.66985" lon="1.70452">
        <ele>168</ele>
        <time>2018-11-15T09:00:11Z</time>
      </trkpt>
      <trkpt lat="48.6699" lon="1.70458">
        <ele>167</ele>
        <time>2018-11-15T09:00:15Z</time>
      </trkpt>
      <trkpt lat="48.66997" lon="1.70466">
        <ele>168</ele>
        <time>2018-11-15T09:00:19Z</time>
      </trkpt>
      <trkpt lat="48.67" lon="1.70472">
        <ele>168</ele>
        <time>2018-11-15T09:00:21Z</time>
      </trkpt>
      <trkpt lat="48.67005" lon="1.70474">
        <ele>172</ele>
        <time>2018-11-15T09:00:23Z</time>
      </trkpt>
      <trkpt lat="48.67009" lon="1.70478">
        <ele>172</ele>
        <time>2018-11-15T09:00:25Z</time>
      </trkpt>
      <trkpt lat="48.67017" lon="1.70485">
        <ele>172</ele>
        <time>2018-11-15T09:00:29Z</time>
      </trkpt>
      <trkpt lat="48.67018" lon="1.70492">
        <ele>172</ele>
        <time>2018-11-15T09:00:33Z</time>
      </trkpt>
      <trkpt lat="48.67023" lon="1.70498">
        <ele>172</ele>
        <time>2018-11-15T09:00:39Z</time>
      </trkpt>
      <trkpt lat="48.67027" lon="1.70504">
        <ele>171</ele>
        <time>2018-11-15T09:00:43Z</time>
      </trkpt>
      <trkpt lat="48.6703" lon="1.7051">
        <ele>171</ele>
        <time>2018-11-15T09:00:47Z</time>
      </trkpt>
      <trkpt lat="48.67035" lon="1.70517">
        <ele>172</ele>
        <time>2018-11-15T09:00:53Z</time>
      </trkpt>
      <trkpt lat="48.67039" lon="1.70522">
        <ele>172</ele>
        <time>2018-11-15T09:00:57Z</time>
      </trkpt>
      <trkpt lat="48.67043" lon="1.70526">
        <ele>172</ele>
        <time>2018-11-15T09:01:01Z</time>
      </trkpt>
      <trkpt lat="48.6705" lon="1.70528">
        <ele>173</ele>
        <time>2018-11-15T09:01:05Z</time>
      </trkpt>
      <trkpt lat="48.67054" lon="1.70532">
        <ele>173</ele>
        <time>2018-11-15T09:01:09Z</time>
      </trkpt>
      <trkpt lat="48.67055" lon="1.7054">
        <ele>173</ele>
        <time>2018-11-15T09:01:13Z</time>
      </trkpt>
      <trkpt lat="48.67059" lon="1.70547">
        <ele>173</ele>
        <time>2018-11-15T09:01:17Z</time>
      </trkpt>
      <trkpt lat="48.67063" lon="1.70554">
        <ele>173</ele>
        <time>2018-11-15T09:01:21Z</time>
      </trkpt>
      <trkpt lat="48.67066" lon="1.7056">
        <ele>173</ele>
        <time>2018-11-15T09:01:27Z</time>
      </trkpt>
      <trkpt lat="48.67068" lon="1.70566">
        <ele>173</ele>
        <time>2018-11-15T09:01:39Z</time>
      </trkpt>
      <trkpt lat="48.67073" lon="1.7057">
        <ele>173</ele>
        <time>2018-11-15T09:03:17Z</time>
      </trkpt>
      <trkpt lat="48.67076" lon="1.70564">
        <ele>173</ele>
        <time>2018-11-15T09:03:27Z</time>
      </trkpt>
      <trkpt lat="48.67076" lon="1.70556">
        <ele>173</ele>
        <time>2018-11-15T09:03:33Z</time>
      </trkpt>
      <trkpt lat="48.67076" lon="1.70547">
        <ele>173</ele>
        <time>2018-11-15T09:03:37Z</time>
      </trkpt>
      <trkpt lat="48.67076" lon="1.70536">
        <ele>174</ele>
        <time>2018-11-15T09:03:43Z</time>
      </trkpt>
      <trkpt lat="48.67079" lon="1.70528">
        <ele>174</ele>
        <time>2018-11-15T09:03:49Z</time>
      </trkpt>
      <trkpt lat="48.67079" lon="1.70519">
        <ele>175</ele>
        <time>2018-11-15T09:03:55Z</time>
      </trkpt>
      <trkpt lat="48.67079" lon="1.7051">
        <ele>176</ele>
        <time>2018-11-15T09:03:59Z</time>
      </trkpt>
      <trkpt lat="48.6708" lon="1.70501">
        <ele>177</ele>
        <time>2018-11-15T09:04:03Z</time>
      </trkpt>
      <trkpt lat="48.67083" lon="1.70493">
        <ele>177</ele>
        <time>2018-11-15T09:04:07Z</time>
      </trkpt>
      <trkpt lat="48.67085" lon="1.70485">
        <ele>179</ele>
        <time>2018-11-15T09:04:11Z</time>
      </trkpt>
      <trkpt lat="48.67087" lon="1.70475">
        <ele>179</ele>
        <time>2018-11-15T09:04:15Z</time>
      </trkpt>
      <trkpt lat="48.67088" lon="1.70466">
        <ele>179</ele>
        <time>2018-11-15T09:04:19Z</time>
      </trkpt>
      <trkpt lat="48.67089" lon="1.70458">
        <ele>179</ele>
        <time>2018-11-15T09:04:23Z</time>
      </trkpt>
      <trkpt lat="48.67091" lon="1.7045">
        <ele>179</ele>
        <time>2018-11-15T09:04:29Z</time>
      </trkpt>
      <trkpt lat="48.6709" lon="1.7044">
        <ele>179</ele>
        <time>2018-11-15T09:04:35Z</time>
      </trkpt>
      <trkpt lat="48.67089" lon="1.70428">
        <ele>179</ele>
        <time>2018-11-15T09:04:41Z</time>
      </trkpt>
      <trkpt lat="48.67092" lon="1.70421">
        <ele>179</ele>
        <time>2018-11-15T09:04:45Z</time>
      </trkpt>
      <trkpt lat="48.67092" lon="1.70413">
        <ele>179</ele>
        <time>2018-11-15T09:04:49Z</time>
      </trkpt>
      <trkpt lat="48.67094" lon="1.70403">
        <ele>179</ele>
        <time>2018-11-15T09:04:51Z</time>
      </trkpt>
      <trkpt lat="48.67095" lon="1.70395">
        <ele>179</ele>
        <time>2018-11-15T09:04:53Z</time>
      </trkpt>
      <trkpt lat="48.67095" lon="1.70388">
        <ele>179</ele>
        <time>2018-11-15T09:04:57Z</time>
      </trkpt>
      <trkpt lat="48.67095" lon="1.70378">
        <ele>179</ele>
        <time>2018-11-15T09:05:03Z</time>
      </trkpt>
      <trkpt lat="48.67097" lon="1.7037">
        <ele>179</ele>
        <time>2018-11-15T09:05:07Z</time>
      </trkpt>
      <trkpt lat="48.67098" lon="1.70361">
        <ele>179</ele>
        <time>2018-11-15T09:05:11Z</time>
      </trkpt>
      <trkpt lat="48.671" lon="1.70351">
        <ele>179</ele>
        <time>2018-11-15T09:05:13Z</time>
      </trkpt>
      <trkpt lat="48.67101" lon="1.70342">
        <ele>179</ele>
        <time>2018-11-15T09:05:17Z</time>
      </trkpt>
      <trkpt lat="48.67101" lon="1.70332">
        <ele>178</ele>
        <time>2018-11-15T09:05:21Z</time>
      </trkpt>
      <trkpt lat="48.67101" lon="1.70324">
        <ele>178</ele>
        <time>2018-11-15T09:05:27Z</time>
      </trkpt>
      <trkpt lat="48.67102" lon="1.70316">
        <ele>179</ele>
        <time>2018-11-15T09:05:31Z</time>
      </trkpt>
      <trkpt lat="48.67103" lon="1.70309">
        <ele>179</ele>
        <time>2018-11-15T09:05:33Z</time>
      </trkpt>
      <trkpt lat="48.67105" lon="1.70298">
        <ele>179</ele>
        <time>2018-11-15T09:05:37Z</time>
      </trkpt>
      <trkpt lat="48.67105" lon="1.70289">
        <ele>178</ele>
        <time>2018-11-15T09:05:41Z</time>
      </trkpt>
      <trkpt lat="48.67107" lon="1.70278">
        <ele>178</ele>
        <time>2018-11-15T09:05:45Z</time>
      </trkpt>
      <trkpt lat="48.67108" lon="1.70271">
        <ele>178</ele>
        <time>2018-11-15T09:05:49Z</time>
      </trkpt>
      <trkpt lat="48.67108" lon="1.7026">
        <ele>178</ele>
        <time>2018-11-15T09:05:53Z</time>
      </trkpt>
      <trkpt lat="48.67109" lon="1.70251">
        <ele>178</ele>
        <time>2018-11-15T09:05:57Z</time>
      </trkpt>
      <trkpt lat="48.6711" lon="1.70242">
        <ele>178</ele>
        <time>2018-11-15T09:06:01Z</time>
      </trkpt>
      <trkpt lat="48.67111" lon="1.70231">
        <ele>178</ele>
        <time>2018-11-15T09:06:05Z</time>
      </trkpt>
      <trkpt lat="48.67111" lon="1.70224">
        <ele>178</ele>
        <time>2018-11-15T09:06:09Z</time>
      </trkpt>
      <trkpt lat="48.67111" lon="1.70213">
        <ele>178</ele>
        <time>2018-11-15T09:06:13Z</time>
      </trkpt>
      <trkpt lat="48.67112" lon="1.70206">
        <ele>178</ele>
        <time>2018-11-15T09:06:17Z</time>
      </trkpt>
      <trkpt lat="48.67114" lon="1.70195">
        <ele>179</ele>
        <time>2018-11-15T09:06:21Z</time>
      </trkpt>
      <trkpt lat="48.67115" lon="1.70183">
        <ele>179</ele>
        <time>2018-11-15T09:06:25Z</time>
      </trkpt>
      <trkpt lat="48.67116" lon="1.70172">
        <ele>179</ele>
        <time>2018-11-15T09:06:29Z</time>
      </trkpt>
      <trkpt lat="48.67117" lon="1.70162">
        <ele>179</ele>
        <time>2018-11-15T09:06:35Z</time>
      </trkpt>
      <trkpt lat="48.67119" lon="1.7015">
        <ele>179</ele>
        <time>2018-11-15T09:06:39Z</time>
      </trkpt>
      <trkpt lat="48.6712" lon="1.70142">
        <ele>179</ele>
        <time>2018-11-15T09:06:41Z</time>
      </trkpt>
      <trkpt lat="48.67121" lon="1.7013">
        <ele>179</ele>
        <time>2018-11-15T09:06:45Z</time>
      </trkpt>
      <trkpt lat="48.67122" lon="1.70122">
        <ele>179</ele>
        <time>2018-11-15T09:06:49Z</time>
      </trkpt>
      <trkpt lat="48.67123" lon="1.70113">
        <ele>179</ele>
        <time>2018-11-15T09:06:53Z</time>
      </trkpt>
      <trkpt lat="48.67123" lon="1.70103">
        <ele>179</ele>
        <time>2018-11-15T09:06:57Z</time>
      </trkpt>
      <trkpt lat="48.67123" lon="1.70096">
        <ele>179</ele>
        <time>2018-11-15T09:07:01Z</time>
      </trkpt>
      <trkpt lat="48.67123" lon="1.70087">
        <ele>179</ele>
        <time>2018-11-15T09:07:05Z</time>
      </trkpt>
      <trkpt lat="48.67124" lon="1.70077">
        <ele>179</ele>
        <time>2018-11-15T09:07:09Z</time>
      </trkpt>
      <trkpt lat="48.67125" lon="1.70063">
        <ele>179</ele>
        <time>2018-11-15T09:07:13Z</time>
      </trkpt>
      <trkpt lat="48.67125" lon="1.70052">
        <ele>179</ele>
        <time>2018-11-15T09:07:17Z</time>
      </trkpt>
      <trkpt lat="48.67127" lon="1.70045">
        <ele>179</ele>
        <time>2018-11-15T09:07:21Z</time>
      </trkpt>
      <trkpt lat="48.67131" lon="1.70033">
        <ele>179</ele>
        <time>2018-11-15T09:07:25Z</time>
      </trkpt>
      <trkpt lat="48.67133" lon="1.70027">
        <ele>179</ele>
        <time>2018-11-15T09:07:29Z</time>
      </trkpt>
      <trkpt lat="48.67138" lon="1.70023">
        <ele>179</ele>
        <time>2018-11-15T09:07:41Z</time>
      </trkpt>
      <trkpt lat="48.67141" lon="1.70031">
        <ele>179</ele>
        <time>2018-11-15T09:07:47Z</time>
      </trkpt>
      <trkpt lat="48.67144" lon="1.70038">
        <ele>179</ele>
        <time>2018-11-15T09:07:51Z</time>
      </trkpt>
      <trkpt lat="48.67148" lon="1.70044">
        <ele>179</ele>
        <time>2018-11-15T09:07:57Z</time>
      </trkpt>
      <trkpt lat="48.67153" lon="1.70048">
        <ele>179</ele>
        <time>2018-11-15T09:08:01Z</time>
      </trkpt>
      <trkpt lat="48.67157" lon="1.70054">
        <ele>179</ele>
        <time>2018-11-15T09:08:05Z</time>
      </trkpt>
      <trkpt lat="48.67162" lon="1.70062">
        <ele>178</ele>
        <time>2018-11-15T09:08:11Z</time>
      </trkpt>
      <trkpt lat="48.67166" lon="1.70069">
        <ele>178</ele>
        <time>2018-11-15T09:08:15Z</time>
      </trkpt>
      <trkpt lat="48.67171" lon="1.70072">
        <ele>178</ele>
        <time>2018-11-15T09:08:17Z</time>
      </trkpt>
      <trkpt lat="48.67176" lon="1.70074">
        <ele>178</ele>
        <time>2018-11-15T09:08:21Z</time>
      </trkpt>
      <trkpt lat="48.67181" lon="1.7008">
        <ele>178</ele>
        <time>2018-11-15T09:08:25Z</time>
      </trkpt>
      <trkpt lat="48.67184" lon="1.70087">
        <ele>178</ele>
        <time>2018-11-15T09:08:29Z</time>
      </trkpt>
      <trkpt lat="48.67189" lon="1.7009">
        <ele>178</ele>
        <time>2018-11-15T09:08:33Z</time>
      </trkpt>
      <trkpt lat="48.67195" lon="1.70097">
        <ele>178</ele>
        <time>2018-11-15T09:08:37Z</time>
      </trkpt>
      <trkpt lat="48.672" lon="1.70103">
        <ele>178</ele>
        <time>2018-11-15T09:08:41Z</time>
      </trkpt>
      <trkpt lat="48.67205" lon="1.7011">
        <ele>178</ele>
        <time>2018-11-15T09:08:45Z</time>
      </trkpt>
      <trkpt lat="48.67209" lon="1.70115">
        <ele>178</ele>
        <time>2018-11-15T09:08:49Z</time>
      </trkpt>
      <trkpt lat="48.67214" lon="1.70122">
        <ele>178</ele>
        <time>2018-11-15T09:08:53Z</time>
      </trkpt>
      <trkpt lat="48.67219" lon="1.70128">
        <ele>178</ele>
        <time>2018-11-15T09:08:57Z</time>
      </trkpt>
      <trkpt lat="48.67224" lon="1.70133">
        <ele>178</ele>
        <time>2018-11-15T09:09:01Z</time>
      </trkpt>
      <trkpt lat="48.67229" lon="1.70138">
        <ele>178</ele>
        <time>2018-11-15T09:09:05Z</time>
      </trkpt>
      <trkpt lat="48.67231" lon="1.70144">
        <ele>178</ele>
        <time>2018-11-15T09:09:11Z</time>
      </trkpt>
      <trkpt lat="48.67237" lon="1.70148">
        <ele>179</ele>
        <time>2018-11-15T09:09:19Z</time>
      </trkpt>
      <trkpt lat="48.67242" lon="1.70154">
        <ele>179</ele>
        <time>2018-11-15T09:09:23Z</time>
      </trkpt>
      <trkpt lat="48.67249" lon="1.7016">
        <ele>179</ele>
        <time>2018-11-15T09:09:27Z</time>
      </trkpt>
      <trkpt lat="48.67253" lon="1.70166">
        <ele>179</ele>
        <time>2018-11-15T09:09:33Z</time>
      </trkpt>
      <trkpt lat="48.67257" lon="1.7017">
        <ele>179</ele>
        <time>2018-11-15T09:09:35Z</time>
      </trkpt>
      <trkpt lat="48.67261" lon="1.70176">
        <ele>179</ele>
        <time>2018-11-15T09:09:39Z</time>
      </trkpt>
      <trkpt lat="48.67269" lon="1.70182">
        <ele>179</ele>
        <time>2018-11-15T09:09:43Z</time>
      </trkpt>
      <trkpt lat="48.67276" lon="1.70187">
        <ele>179</ele>
        <time>2018-11-15T09:09:47Z</time>
      </trkpt>
      <trkpt lat="48.6728" lon="1.70192">
        <ele>179</ele>
        <time>2018-11-15T09:09:49Z</time>
      </trkpt>
      <trkpt lat="48.67285" lon="1.70197">
        <ele>179</ele>
        <time>2018-11-15T09:09:53Z</time>
      </trkpt>
      <trkpt lat="48.67289" lon="1.70201">
        <ele>179</ele>
        <time>2018-11-15T09:09:57Z</time>
      </trkpt>
      <trkpt lat="48.67295" lon="1.70207">
        <ele>179</ele>
        <time>2018-11-15T09:10:01Z</time>
      </trkpt>
      <trkpt lat="48.673" lon="1.70211">
        <ele>180</ele>
        <time>2018-11-15T09:10:05Z</time>
      </trkpt>
      <trkpt lat="48.67306" lon="1.70217">
        <ele>180</ele>
        <time>2018-11-15T09:10:11Z</time>
      </trkpt>
      <trkpt lat="48.67312" lon="1.70218">
        <ele>180</ele>
        <time>2018-11-15T09:10:15Z</time>
      </trkpt>
      <trkpt lat="48.67318" lon="1.70211">
        <ele>180</ele>
        <time>2018-11-15T09:10:21Z</time>
      </trkpt>
      <trkpt lat="48.6732" lon="1.70204">
        <ele>179</ele>
        <time>2018-11-15T09:10:25Z</time>
      </trkpt>
      <trkpt lat="48.67322" lon="1.70197">
        <ele>179</ele>
        <time>2018-11-15T09:10:31Z</time>
      </trkpt>
      <trkpt lat="48.67323" lon="1.7019">
        <ele>179</ele>
        <time>2018-11-15T09:10:35Z</time>
      </trkpt>
      <trkpt lat="48.67326" lon="1.70179">
        <ele>179</ele>
        <time>2018-11-15T09:10:39Z</time>
      </trkpt>
      <trkpt lat="48.67328" lon="1.7017">
        <ele>179</ele>
        <time>2018-11-15T09:10:43Z</time>
      </trkpt>
      <trkpt lat="48.6733" lon="1.70161">
        <ele>179</ele>
        <time>2018-11-15T09:10:47Z</time>
      </trkpt>
      <trkpt lat="48.67331" lon="1.70153">
        <ele>179</ele>
        <time>2018-11-15T09:10:51Z</time>
      </trkpt>
      <trkpt lat="48.67333" lon="1.70144">
        <ele>178</ele>
        <time>2018-11-15T09:10:57Z</time>
      </trkpt>
      <trkpt lat="48.67335" lon="1.70135">
        <ele>177</ele>
        <time>2018-11-15T09:11:01Z</time>
      </trkpt>
      <trkpt lat="48.67335" lon="1.70126">
        <ele>177</ele>
        <time>2018-11-15T09:11:05Z</time>
      </trkpt>
      <trkpt lat="48.67337" lon="1.70118">
        <ele>177</ele>
        <time>2018-11-15T09:11:09Z</time>
      </trkpt>
      <trkpt lat="48.67338" lon="1.70111">
        <ele>177</ele>
        <time>2018-11-15T09:11:11Z</time>
      </trkpt>
      <trkpt lat="48.67341" lon="1.70105">
        <ele>177</ele>
        <time>2018-11-15T09:11:15Z</time>
      </trkpt>
      <trkpt lat="48.67345" lon="1.70097">
        <ele>177</ele>
        <time>2018-11-15T09:11:21Z</time>
      </trkpt>
      <trkpt lat="48.67347" lon="1.70083">
        <ele>176</ele>
        <time>2018-11-15T09:11:25Z</time>
      </trkpt>
      <trkpt lat="48.67349" lon="1.70073">
        <ele>176</ele>
        <time>2018-11-15T09:11:29Z</time>
      </trkpt>
      <trkpt lat="48.67351" lon="1.70064">
        <ele>176</ele>
        <time>2018-11-15T09:11:33Z</time>
      </trkpt>
      <trkpt lat="48.67352" lon="1.70054">
        <ele>176</ele>
        <time>2018-11-15T09:11:37Z</time>
      </trkpt>
      <trkpt lat="48.67354" lon="1.70047">
        <ele>176</ele>
        <time>2018-11-15T09:11:41Z</time>
      </trkpt>
      <trkpt lat="48.67356" lon="1.70039">
        <ele>176</ele>
        <time>2018-11-15T09:11:43Z</time>
      </trkpt>
      <trkpt lat="48.67357" lon="1.70029">
        <ele>175</ele>
        <time>2018-11-15T09:11:49Z</time>
      </trkpt>
      <trkpt lat="48.67359" lon="1.7002">
        <ele>175</ele>
        <time>2018-11-15T09:11:53Z</time>
      </trkpt>
      <trkpt lat="48.6736" lon="1.7001">
        <ele>175</ele>
        <time>2018-11-15T09:11:57Z</time>
      </trkpt>
      <trkpt lat="48.67361" lon="1.7">
        <ele>175</ele>
        <time>2018-11-15T09:12:01Z</time>
      </trkpt>
      <trkpt lat="48.67362" lon="1.69991">
        <ele>175</ele>
        <time>2018-11-15T09:12:05Z</time>
      </trkpt>
      <trkpt lat="48.67363" lon="1.69983">
        <ele>175</ele>
        <time>2018-11-15T09:12:11Z</time>
      </trkpt>
      <trkpt lat="48.67366" lon="1.69975">
        <ele>175</ele>
        <time>2018-11-15T09:12:15Z</time>
      </trkpt>
      <trkpt lat="48.67366" lon="1.69965">
        <ele>175</ele>
        <time>2018-11-15T09:12:19Z</time>
      </trkpt>
      <trkpt lat="48.67367" lon="1.69955">
        <ele>176</ele>
        <time>2018-11-15T09:12:23Z</time>
      </trkpt>
      <trkpt lat="48.67369" lon="1.69944">
        <ele>176</ele>
        <time>2018-11-15T09:12:27Z</time>
      </trkpt>
      <trkpt lat="48.67369" lon="1.69936">
        <ele>176</ele>
        <time>2018-11-15T09:12:31Z</time>
      </trkpt>
      <trkpt lat="48.67371" lon="1.69929">
        <ele>176</ele>
        <time>2018-11-15T09:12:35Z</time>
      </trkpt>
      <trkpt lat="48.67373" lon="1.6992">
        <ele>176</ele>
        <time>2018-11-15T09:12:39Z</time>
      </trkpt>
      <trkpt lat="48.67375" lon="1.6991">
        <ele>176</ele>
        <time>2018-11-15T09:12:43Z</time>
      </trkpt>
      <trkpt lat="48.67375" lon="1.69903">
        <ele>176</ele>
        <time>2018-11-15T09:12:47Z</time>
      </trkpt>
      <trkpt lat="48.67377" lon="1.69893">
        <ele>176</ele>
        <time>2018-11-15T09:12:51Z</time>
      </trkpt>
      <trkpt lat="48.67379" lon="1.69883">
        <ele>176</ele>
        <time>2018-11-15T09:12:55Z</time>
      </trkpt>
      <trkpt lat="48.67381" lon="1.69869">
        <ele>176</ele>
        <time>2018-11-15T09:12:59Z</time>
      </trkpt>
      <trkpt lat="48.67381" lon="1.6986">
        <ele>176</ele>
        <time>2018-11-15T09:13:03Z</time>
      </trkpt>
      <trkpt lat="48.67383" lon="1.69852">
        <ele>176</ele>
        <time>2018-11-15T09:13:07Z</time>
      </trkpt>
      <trkpt lat="48.67385" lon="1.69842">
        <ele>176</ele>
        <time>2018-11-15T09:13:11Z</time>
      </trkpt>
      <trkpt lat="48.67388" lon="1.69834">
        <ele>176</ele>
        <time>2018-11-15T09:13:15Z</time>
      </trkpt>
      <trkpt lat="48.67389" lon="1.69824">
        <ele>176</ele>
        <time>2018-11-15T09:13:19Z</time>
      </trkpt>
      <trkpt lat="48.67391" lon="1.69814">
        <ele>176</ele>
        <time>2018-11-15T09:13:23Z</time>
      </trkpt>
      <trkpt lat="48.67391" lon="1.69805">
        <ele>176</ele>
        <time>2018-11-15T09:13:27Z</time>
      </trkpt>
      <trkpt lat="48.67392" lon="1.69795">
        <ele>176</ele>
        <time>2018-11-15T09:13:31Z</time>
      </trkpt>
      <trkpt lat="48.67394" lon="1.69786">
        <ele>176</ele>
        <time>2018-11-15T09:13:35Z</time>
      </trkpt>
      <trkpt lat="48.67397" lon="1.69775">
        <ele>176</ele>
        <time>2018-11-15T09:13:41Z</time>
      </trkpt>
      <trkpt lat="48.674" lon="1.69767">
        <ele>176</ele>
        <time>2018-11-15T09:13:45Z</time>
      </trkpt>
      <trkpt lat="48.67401" lon="1.69756">
        <ele>176</ele>
        <time>2018-11-15T09:13:49Z</time>
      </trkpt>
      <trkpt lat="48.67403" lon="1.69745">
        <ele>176</ele>
        <time>2018-11-15T09:13:53Z</time>
      </trkpt>
      <trkpt lat="48.67405" lon="1.69737">
        <ele>176</ele>
        <time>2018-11-15T09:13:57Z</time>
      </trkpt>
      <trkpt lat="48.67407" lon="1.69725">
        <ele>176</ele>
        <time>2018-11-15T09:14:01Z</time>
      </trkpt>
      <trkpt lat="48.67408" lon="1.69717">
        <ele>176</ele>
        <time>2018-11-15T09:14:05Z</time>
      </trkpt>
      <trkpt lat="48.67408" lon="1.69706">
        <ele>176</ele>
        <time>2018-11-15T09:14:07Z</time>
      </trkpt>
      <trkpt lat="48.6741" lon="1.69697">
        <ele>176</ele>
        <time>2018-11-15T09:14:13Z</time>
      </trkpt>
      <trkpt lat="48.67414" lon="1.69684">
        <ele>176</ele>
        <time>2018-11-15T09:14:17Z</time>
      </trkpt>
      <trkpt lat="48.67416" lon="1.69674">
        <ele>175</ele>
        <time>2018-11-15T09:14:21Z</time>
      </trkpt>
      <trkpt lat="48.67419" lon="1.69666">
        <ele>175</ele>
        <time>2018-11-15T09:14:25Z</time>
      </trkpt>
      <trkpt lat="48.67423" lon="1.6966">
        <ele>175</ele>
        <time>2018-11-15T09:14:31Z</time>
      </trkpt>
      <trkpt lat="48.67427" lon="1.69657">
        <ele>175</ele>
        <time>2018-11-15T09:15:07Z</time>
      </trkpt>
      <trkpt lat="48.67431" lon="1.69657">
        <ele>175</ele>
        <time>2018-11-15T09:18:49Z</time>
      </trkpt>
      <trkpt lat="48.67438" lon="1.69656">
        <ele>174</ele>
        <time>2018-11-15T09:19:41Z</time>
      </trkpt>
      <trkpt lat="48.67442" lon="1.69662">
        <ele>174</ele>
        <time>2018-11-15T09:19:45Z</time>
      </trkpt>
      <trkpt lat="48.67447" lon="1.69667">
        <ele>174</ele>
        <time>2018-11-15T09:19:51Z</time>
      </trkpt>
      <trkpt lat="48.67453" lon="1.6967">
        <ele>176</ele>
        <time>2018-11-15T09:19:55Z</time>
      </trkpt>
      <trkpt lat="48.67457" lon="1.69673">
        <ele>176</ele>
        <time>2018-11-15T09:19:59Z</time>
      </trkpt>
      <trkpt lat="48.67462" lon="1.69676">
        <ele>176</ele>
        <time>2018-11-15T09:20:03Z</time>
      </trkpt>
      <trkpt lat="48.67468" lon="1.6968">
        <ele>176</ele>
        <time>2018-11-15T09:20:07Z</time>
      </trkpt>
      <trkpt lat="48.67473" lon="1.69684">
        <ele>176</ele>
        <time>2018-11-15T09:20:11Z</time>
      </trkpt>
      <trkpt lat="48.67479" lon="1.69687">
        <ele>176</ele>
        <time>2018-11-15T09:20:15Z</time>
      </trkpt>
      <trkpt lat="48.67483" lon="1.69689">
        <ele>176</ele>
        <time>2018-11-15T09:20:19Z</time>
      </trkpt>
      <trkpt lat="48.6749" lon="1.69688">
        <ele>176</ele>
        <time>2018-11-15T09:20:23Z</time>
      </trkpt>
      <trkpt lat="48.67495" lon="1.69691">
        <ele>176</ele>
        <time>2018-11-15T09:20:27Z</time>
      </trkpt>
      <trkpt lat="48.675" lon="1.69696">
        <ele>175</ele>
        <time>2018-11-15T09:20:31Z</time>
      </trkpt>
      <trkpt lat="48.67505" lon="1.69699">
        <ele>175</ele>
        <time>2018-11-15T09:20:35Z</time>
      </trkpt>
      <trkpt lat="48.67511" lon="1.69701">
        <ele>175</ele>
        <time>2018-11-15T09:20:39Z</time>
      </trkpt>
      <trkpt lat="48.67516" lon="1.69703">
        <ele>175</ele>
        <time>2018-11-15T09:20:43Z</time>
      </trkpt>
      <trkpt lat="48.67521" lon="1.69705">
        <ele>175</ele>
        <time>2018-11-15T09:20:47Z</time>
      </trkpt>
      <trkpt lat="48.67526" lon="1.69707">
        <ele>175</ele>
        <time>2018-11-15T09:20:51Z</time>
      </trkpt>
      <trkpt lat="48.67532" lon="1.69708">
        <ele>175</ele>
        <time>2018-11-15T09:20:57Z</time>
      </trkpt>
      <trkpt lat="48.67536" lon="1.6971">
        <ele>175</ele>
        <time>2018-11-15T09:21:01Z</time>
      </trkpt>
      <trkpt lat="48.67543" lon="1.69713">
        <ele>175</ele>
        <time>2018-11-15T09:21:05Z</time>
      </trkpt>
      <trkpt lat="48.67549" lon="1.69715">
        <ele>175</ele>
        <time>2018-11-15T09:21:11Z</time>
      </trkpt>
      <trkpt lat="48.67555" lon="1.69717">
        <ele>175</ele>
        <time>2018-11-15T09:21:15Z</time>
      </trkpt>
      <trkpt lat="48.67561" lon="1.69719">
        <ele>175</ele>
        <time>2018-11-15T09:21:21Z</time>
      </trkpt>
      <trkpt lat="48.67568" lon="1.69722">
        <ele>175</ele>
        <time>2018-11-15T09:21:25Z</time>
      </trkpt>
      <trkpt lat="48.67573" lon="1.69726">
        <ele>175</ele>
        <time>2018-11-15T09:21:29Z</time>
      </trkpt>
      <trkpt lat="48.6758" lon="1.69729">
        <ele>175</ele>
        <time>2018-11-15T09:21:33Z</time>
      </trkpt>
      <trkpt lat="48.67584" lon="1.69731">
        <ele>174</ele>
        <time>2018-11-15T09:21:37Z</time>
      </trkpt>
      <trkpt lat="48.67592" lon="1.69735">
        <ele>174</ele>
        <time>2018-11-15T09:21:43Z</time>
      </trkpt>
      <trkpt lat="48.67598" lon="1.69737">
        <ele>174</ele>
        <time>2018-11-15T09:21:47Z</time>
      </trkpt>
      <trkpt lat="48.67607" lon="1.69737">
        <ele>173</ele>
        <time>2018-11-15T09:21:51Z</time>
      </trkpt>
      <trkpt lat="48.67613" lon="1.69734">
        <ele>173</ele>
        <time>2018-11-15T09:21:55Z</time>
      </trkpt>
      <trkpt lat="48.67618" lon="1.69733">
        <ele>173</ele>
        <time>2018-11-15T09:21:59Z</time>
      </trkpt>
      <trkpt lat="48.67624" lon="1.69735">
        <ele>173</ele>
        <time>2018-11-15T09:22:03Z</time>
      </trkpt>
      <trkpt lat="48.67631" lon="1.69737">
        <ele>172</ele>
        <time>2018-11-15T09:22:07Z</time>
      </trkpt>
      <trkpt lat="48.67637" lon="1.69738">
        <ele>172</ele>
        <time>2018-11-15T09:22:11Z</time>
      </trkpt>
      <trkpt lat="48.67641" lon="1.69742">
        <ele>172</ele>
        <time>2018-11-15T09:22:15Z</time>
      </trkpt>
      <trkpt lat="48.67645" lon="1.69749">
        <ele>172</ele>
        <time>2018-11-15T09:22:21Z</time>
      </trkpt>
      <trkpt lat="48.67648" lon="1.69754">
        <ele>172</ele>
        <time>2018-11-15T09:22:25Z</time>
      </trkpt>
      <trkpt lat="48.67652" lon="1.6976">
        <ele>172</ele>
        <time>2018-11-15T09:22:29Z</time>
      </trkpt>
      <trkpt lat="48.67656" lon="1.69765">
        <ele>172</ele>
        <time>2018-11-15T09:22:31Z</time>
      </trkpt>
      <trkpt lat="48.67658" lon="1.69771">
        <ele>173</ele>
        <time>2018-11-15T09:22:35Z</time>
      </trkpt>
      <trkpt lat="48.67662" lon="1.69778">
        <ele>173</ele>
        <time>2018-11-15T09:22:39Z</time>
      </trkpt>
      <trkpt lat="48.67669" lon="1.69788">
        <ele>173</ele>
        <time>2018-11-15T09:22:43Z</time>
      </trkpt>
      <trkpt lat="48.67675" lon="1.69796">
        <ele>173</ele>
        <time>2018-11-15T09:22:49Z</time>
      </trkpt>
      <trkpt lat="48.67678" lon="1.69803">
        <ele>173</ele>
        <time>2018-11-15T09:22:55Z</time>
      </trkpt>
      <trkpt lat="48.67683" lon="1.69813">
        <ele>173</ele>
        <time>2018-11-15T09:22:59Z</time>
      </trkpt>
      <trkpt lat="48.67686" lon="1.69823">
        <ele>173</ele>
        <time>2018-11-15T09:23:03Z</time>
      </trkpt>
      <trkpt lat="48.6769" lon="1.69829">
        <ele>173</ele>
        <time>2018-11-15T09:23:07Z</time>
      </trkpt>
      <trkpt lat="48.67694" lon="1.69839">
        <ele>174</ele>
        <time>2018-11-15T09:23:11Z</time>
      </trkpt>
      <trkpt lat="48.67698" lon="1.69845">
        <ele>174</ele>
        <time>2018-11-15T09:23:15Z</time>
      </trkpt>
      <trkpt lat="48.67702" lon="1.69852">
        <ele>174</ele>
        <time>2018-11-15T09:23:19Z</time>
      </trkpt>
      <trkpt lat="48.67707" lon="1.69857">
        <ele>174</ele>
        <time>2018-11-15T09:23:23Z</time>
      </trkpt>
      <trkpt lat="48.6771" lon="1.69865">
        <ele>174</ele>
        <time>2018-11-15T09:23:27Z</time>
      </trkpt>
      <trkpt lat="48.67714" lon="1.69873">
        <ele>175</ele>
        <time>2018-11-15T09:23:29Z</time>
      </trkpt>
      <trkpt lat="48.67714" lon="1.69887">
        <ele>175</ele>
        <time>2018-11-15T09:23:33Z</time>
      </trkpt>
      <trkpt lat="48.67718" lon="1.69893">
        <ele>175</ele>
        <time>2018-11-15T09:23:37Z</time>
      </trkpt>
      <trkpt lat="48.67723" lon="1.69902">
        <ele>175</ele>
        <time>2018-11-15T09:23:41Z</time>
      </trkpt>
      <trkpt lat="48.67727" lon="1.69906">
        <ele>175</ele>
        <time>2018-11-15T09:23:45Z</time>
      </trkpt>
      <trkpt lat="48.67732" lon="1.69913">
        <ele>175</ele>
        <time>2018-11-15T09:23:49Z</time>
      </trkpt>
      <trkpt lat="48.67734" lon="1.69919">
        <ele>175</ele>
        <time>2018-11-15T09:23:53Z</time>
      </trkpt>
      <trkpt lat="48.6774" lon="1.69929">
        <ele>175</ele>
        <time>2018-11-15T09:23:59Z</time>
      </trkpt>
      <trkpt lat="48.67745" lon="1.69935">
        <ele>175</ele>
        <time>2018-11-15T09:24:03Z</time>
      </trkpt>
      <trkpt lat="48.67749" lon="1.69944">
        <ele>175</ele>
        <time>2018-11-15T09:24:07Z</time>
      </trkpt>
      <trkpt lat="48.67755" lon="1.69949">
        <ele>175</ele>
        <time>2018-11-15T09:24:11Z</time>
      </trkpt>
      <trkpt lat="48.67761" lon="1.69952">
        <ele>175</ele>
        <time>2018-11-15T09:24:15Z</time>
      </trkpt>
      <trkpt lat="48.67765" lon="1.69955">
        <ele>175</ele>
        <time>2018-11-15T09:24:19Z</time>
      </trkpt>
      <trkpt lat="48.6777" lon="1.69966">
        <ele>175</ele>
        <time>2018-11-15T09:24:23Z</time>
      </trkpt>
      <trkpt lat="48.67774" lon="1.69974">
        <ele>175</ele>
        <time>2018-11-15T09:24:27Z</time>
      </trkpt>
      <trkpt lat="48.6778" lon="1.69977">
        <ele>175</ele>
        <time>2018-11-15T09:24:31Z</time>
      </trkpt>
      <trkpt lat="48.67785" lon="1.69985">
        <ele>175</ele>
        <time>2018-11-15T09:24:35Z</time>
      </trkpt>
      <trkpt lat="48.67789" lon="1.6999">
        <ele>175</ele>
        <time>2018-11-15T09:24:39Z</time>
      </trkpt>
      <trkpt lat="48.67796" lon="1.69995">
        <ele>176</ele>
        <time>2018-11-15T09:24:43Z</time>
      </trkpt>
      <trkpt lat="48.678" lon="1.69999">
        <ele>176</ele>
        <time>2018-11-15T09:24:47Z</time>
      </trkpt>
      <trkpt lat="48.67805" lon="1.70001">
        <ele>176</ele>
        <time>2018-11-15T09:24:51Z</time>
      </trkpt>
      <trkpt lat="48.67812" lon="1.70003">
        <ele>176</ele>
        <time>2018-11-15T09:24:57Z</time>
      </trkpt>
      <trkpt lat="48.67815" lon="1.70009">
        <ele>176</ele>
        <time>2018-11-15T09:25:01Z</time>
      </trkpt>
      <trkpt lat="48.67817" lon="1.70015">
        <ele>176</ele>
        <time>2018-11-15T09:25:05Z</time>
      </trkpt>
      <trkpt lat="48.67822" lon="1.70021">
        <ele>176</ele>
        <time>2018-11-15T09:25:11Z</time>
      </trkpt>
      <trkpt lat="48.67826" lon="1.70028">
        <ele>176</ele>
        <time>2018-11-15T09:25:15Z</time>
      </trkpt>
      <trkpt lat="48.67829" lon="1.70034">
        <ele>176</ele>
        <time>2018-11-15T09:25:17Z</time>
      </trkpt>
      <trkpt lat="48.67832" lon="1.70039">
        <ele>176</ele>
        <time>2018-11-15T09:25:21Z</time>
      </trkpt>
      <trkpt lat="48.67837" lon="1.70048">
        <ele>177</ele>
        <time>2018-11-15T09:25:25Z</time>
      </trkpt>
      <trkpt lat="48.6784" lon="1.70056">
        <ele>177</ele>
        <time>2018-11-15T09:25:29Z</time>
      </trkpt>
      <trkpt lat="48.67845" lon="1.7006">
        <ele>177</ele>
        <time>2018-11-15T09:25:33Z</time>
      </trkpt>
      <trkpt lat="48.6785" lon="1.70067">
        <ele>177</ele>
        <time>2018-11-15T09:25:37Z</time>
      </trkpt>
      <trkpt lat="48.67855" lon="1.70071">
        <ele>177</ele>
        <time>2018-11-15T09:25:41Z</time>
      </trkpt>
      <trkpt lat="48.67858" lon="1.70078">
        <ele>177</ele>
        <time>2018-11-15T09:25:43Z</time>
      </trkpt>
      <trkpt lat="48.67862" lon="1.70087">
        <ele>177</ele>
        <time>2018-11-15T09:25:47Z</time>
      </trkpt>
      <trkpt lat="48.67866" lon="1.70096">
        <ele>177</ele>
        <time>2018-11-15T09:25:51Z</time>
      </trkpt>
      <trkpt lat="48.6787" lon="1.70102">
        <ele>177</ele>
        <time>2018-11-15T09:25:55Z</time>
      </trkpt>
      <trkpt lat="48.67874" lon="1.70106">
        <ele>177</ele>
        <time>2018-11-15T09:25:59Z</time>
      </trkpt>
      <trkpt lat="48.6788" lon="1.70115">
        <ele>177</ele>
        <time>2018-11-15T09:26:03Z</time>
      </trkpt>
      <trkpt lat="48.67885" lon="1.70118">
        <ele>177</ele>
        <time>2018-11-15T09:26:07Z</time>
      </trkpt>
      <trkpt lat="48.67889" lon="1.70122">
        <ele>177</ele>
        <time>2018-11-15T09:26:11Z</time>
      </trkpt>
      <trkpt lat="48.67894" lon="1.70128">
        <ele>177</ele>
        <time>2018-11-15T09:26:15Z</time>
      </trkpt>
      <trkpt lat="48.67899" lon="1.70133">
        <ele>177</ele>
        <time>2018-11-15T09:26:21Z</time>
      </trkpt>
      <trkpt lat="48.67903" lon="1.70142">
        <ele>177</ele>
        <time>2018-11-15T09:26:27Z</time>
      </trkpt>
      <trkpt lat="48.67908" lon="1.7015">
        <ele>177</ele>
        <time>2018-11-15T09:26:31Z</time>
      </trkpt>
      <trkpt lat="48.6791" lon="1.70158">
        <ele>177</ele>
        <time>2018-11-15T09:26:35Z</time>
      </trkpt>
      <trkpt lat="48.67915" lon="1.70165">
        <ele>177</ele>
        <time>2018-11-15T09:26:39Z</time>
      </trkpt>
      <trkpt lat="48.67919" lon="1.70171">
        <ele>177</ele>
        <time>2018-11-15T09:26:43Z</time>
      </trkpt>
      <trkpt lat="48.67922" lon="1.70177">
        <ele>177</ele>
        <time>2018-11-15T09:26:47Z</time>
      </trkpt>
      <trkpt lat="48.67926" lon="1.70183">
        <ele>178</ele>
        <time>2018-11-15T09:26:51Z</time>
      </trkpt>
      <trkpt lat="48.6793" lon="1.7019">
        <ele>178</ele>
        <time>2018-11-15T09:26:55Z</time>
      </trkpt>
      <trkpt lat="48.67934" lon="1.70197">
        <ele>178</ele>
        <time>2018-11-15T09:26:59Z</time>
      </trkpt>
      <trkpt lat="48.67938" lon="1.70201">
        <ele>178</ele>
        <time>2018-11-15T09:27:03Z</time>
      </trkpt>
      <trkpt lat="48.67941" lon="1.70208">
        <ele>178</ele>
        <time>2018-11-15T09:27:07Z</time>
      </trkpt>
      <trkpt lat="48.67943" lon="1.70217">
        <ele>178</ele>
        <time>2018-11-15T09:27:11Z</time>
      </trkpt>
      <trkpt lat="48.67946" lon="1.70224">
        <ele>178</ele>
        <time>2018-11-15T09:27:15Z</time>
      </trkpt>
      <trkpt lat="48.6795" lon="1.70228">
        <ele>178</ele>
        <time>2018-11-15T09:27:19Z</time>
      </trkpt>
      <trkpt lat="48.67955" lon="1.70236">
        <ele>178</ele>
        <time>2018-11-15T09:27:25Z</time>
      </trkpt>
      <trkpt lat="48.67959" lon="1.70243">
        <ele>178</ele>
        <time>2018-11-15T09:27:29Z</time>
      </trkpt>
      <trkpt lat="48.67963" lon="1.70249">
        <ele>178</ele>
        <time>2018-11-15T09:27:33Z</time>
      </trkpt>
      <trkpt lat="48.67967" lon="1.70257">
        <ele>179</ele>
        <time>2018-11-15T09:27:39Z</time>
      </trkpt>
      <trkpt lat="48.6797" lon="1.70264">
        <ele>179</ele>
        <time>2018-11-15T09:27:43Z</time>
      </trkpt>
      <trkpt lat="48.67974" lon="1.70272">
        <ele>179</ele>
        <time>2018-11-15T09:27:47Z</time>
      </trkpt>
      <trkpt lat="48.67978" lon="1.70283">
        <ele>179</ele>
        <time>2018-11-15T09:27:51Z</time>
      </trkpt>
      <trkpt lat="48.67981" lon="1.70293">
        <ele>179</ele>
        <time>2018-11-15T09:27:55Z</time>
      </trkpt>
      <trkpt lat="48.67985" lon="1.70303">
        <ele>179</ele>
        <time>2018-11-15T09:27:59Z</time>
      </trkpt>
      <trkpt lat="48.67987" lon="1.70311">
        <ele>179</ele>
        <time>2018-11-15T09:28:03Z</time>
      </trkpt>
      <trkpt lat="48.6799" lon="1.70321">
        <ele>179</ele>
        <time>2018-11-15T09:28:07Z</time>
      </trkpt>
      <trkpt lat="48.67992" lon="1.7033">
        <ele>180</ele>
        <time>2018-11-15T09:28:11Z</time>
      </trkpt>
      <trkpt lat="48.67994" lon="1.70336">
        <ele>180</ele>
        <time>2018-11-15T09:28:13Z</time>
      </trkpt>
      <trkpt lat="48.67997" lon="1.70346">
        <ele>180</ele>
        <time>2018-11-15T09:28:17Z</time>
      </trkpt>
      <trkpt lat="48.68002" lon="1.70354">
        <ele>179</ele>
        <time>2018-11-15T09:28:23Z</time>
      </trkpt>
      <trkpt lat="48.68006" lon="1.70364">
        <ele>179</ele>
        <time>2018-11-15T09:28:27Z</time>
      </trkpt>
      <trkpt lat="48.68009" lon="1.70372">
        <ele>179</ele>
        <time>2018-11-15T09:28:31Z</time>
      </trkpt>
      <trkpt lat="48.68012" lon="1.7038">
        <ele>179</ele>
        <time>2018-11-15T09:28:35Z</time>
      </trkpt>
      <trkpt lat="48.68017" lon="1.70388">
        <ele>179</ele>
        <time>2018-11-15T09:28:39Z</time>
      </trkpt>
      <trkpt lat="48.6802" lon="1.70394">
        <ele>179</ele>
        <time>2018-11-15T09:28:43Z</time>
      </trkpt>
      <trkpt lat="48.68024" lon="1.704">
        <ele>179</ele>
        <time>2018-11-15T09:28:47Z</time>
      </trkpt>
      <trkpt lat="48.68028" lon="1.70407">
        <ele>179</ele>
        <time>2018-11-15T09:28:51Z</time>
      </trkpt>
      <trkpt lat="48.68032" lon="1.70414">
        <ele>179</ele>
        <time>2018-11-15T09:28:55Z</time>
      </trkpt>
      <trkpt lat="48.68035" lon="1.70421">
        <ele>179</ele>
        <time>2018-11-15T09:28:59Z</time>
      </trkpt>
      <trkpt lat="48.68043" lon="1.70426">
        <ele>178</ele>
        <time>2018-11-15T09:29:03Z</time>
      </trkpt>
      <trkpt lat="48.68049" lon="1.70433">
        <ele>178</ele>
        <time>2018-11-15T09:29:07Z</time>
      </trkpt>
      <trkpt lat="48.68053" lon="1.70437">
        <ele>178</ele>
        <time>2018-11-15T09:29:11Z</time>
      </trkpt>
      <trkpt lat="48.68059" lon="1.70442">
        <ele>178</ele>
        <time>2018-11-15T09:29:15Z</time>
      </trkpt>
      <trkpt lat="48.68065" lon="1.70449">
        <ele>178</ele>
        <time>2018-11-15T09:29:19Z</time>
      </trkpt>
      <trkpt lat="48.68068" lon="1.70454">
        <ele>178</ele>
        <time>2018-11-15T09:29:23Z</time>
      </trkpt>
      <trkpt lat="48.68073" lon="1.7046">
        <ele>178</ele>
        <time>2018-11-15T09:29:27Z</time>
      </trkpt>
      <trkpt lat="48.68078" lon="1.70467">
        <ele>178</ele>
        <time>2018-11-15T09:29:31Z</time>
      </trkpt>
      <trkpt lat="48.68083" lon="1.70475">
        <ele>176</ele>
        <time>2018-11-15T09:29:35Z</time>
      </trkpt>
      <trkpt lat="48.6809" lon="1.70485">
        <ele>176</ele>
        <time>2018-11-15T09:29:39Z</time>
      </trkpt>
      <trkpt lat="48.68094" lon="1.70493">
        <ele>176</ele>
        <time>2018-11-15T09:29:43Z</time>
      </trkpt>
      <trkpt lat="48.68097" lon="1.70499">
        <ele>176</ele>
        <time>2018-11-15T09:29:47Z</time>
      </trkpt>
      <trkpt lat="48.68102" lon="1.70507">
        <ele>176</ele>
        <time>2018-11-15T09:29:51Z</time>
      </trkpt>
      <trkpt lat="48.68106" lon="1.70514">
        <ele>176</ele>
        <time>2018-11-15T09:29:55Z</time>
      </trkpt>
      <trkpt lat="48.68111" lon="1.70523">
        <ele>176</ele>
        <time>2018-11-15T09:29:59Z</time>
      </trkpt>
      <trkpt lat="48.68114" lon="1.70532">
        <ele>176</ele>
        <time>2018-11-15T09:30:03Z</time>
      </trkpt>
      <trkpt lat="48.68118" lon="1.70539">
        <ele>176</ele>
        <time>2018-11-15T09:30:07Z</time>
      </trkpt>
      <trkpt lat="48.68123" lon="1.70548">
        <ele>176</ele>
        <time>2018-11-15T09:30:11Z</time>
      </trkpt>
      <trkpt lat="48.68128" lon="1.70554">
        <ele>176</ele>
        <time>2018-11-15T09:30:15Z</time>
      </trkpt>
      <trkpt lat="48.68132" lon="1.70561">
        <ele>176</ele>
        <time>2018-11-15T09:30:19Z</time>
      </trkpt>
      <trkpt lat="48.68135" lon="1.70569">
        <ele>177</ele>
        <time>2018-11-15T09:30:23Z</time>
      </trkpt>
      <trkpt lat="48.68137" lon="1.70575">
        <ele>177</ele>
        <time>2018-11-15T09:30:25Z</time>
      </trkpt>
      <trkpt lat="48.6814" lon="1.70583">
        <ele>177</ele>
        <time>2018-11-15T09:30:29Z</time>
      </trkpt>
      <trkpt lat="48.68145" lon="1.7059">
        <ele>177</ele>
        <time>2018-11-15T09:30:33Z</time>
      </trkpt>
      <trkpt lat="48.68148" lon="1.70598">
        <ele>177</ele>
        <time>2018-11-15T09:30:37Z</time>
      </trkpt>
      <trkpt lat="48.68152" lon="1.70606">
        <ele>177</ele>
        <time>2018-11-15T09:30:41Z</time>
      </trkpt>
      <trkpt lat="48.68155" lon="1.70614">
        <ele>177</ele>
        <time>2018-11-15T09:30:45Z</time>
      </trkpt>
      <trkpt lat="48.6816" lon="1.70621">
        <ele>177</ele>
        <time>2018-11-15T09:30:51Z</time>
      </trkpt>
      <trkpt lat="48.68164" lon="1.70629">
        <ele>177</ele>
        <time>2018-11-15T09:30:55Z</time>
      </trkpt>
      <trkpt lat="48.68168" lon="1.70635">
        <ele>176</ele>
        <time>2018-11-15T09:30:59Z</time>
      </trkpt>
      <trkpt lat="48.68172" lon="1.7064">
        <ele>176</ele>
        <time>2018-11-15T09:31:03Z</time>
      </trkpt>
      <trkpt lat="48.68177" lon="1.70649">
        <ele>176</ele>
        <time>2018-11-15T09:31:07Z</time>
      </trkpt>
      <trkpt lat="48.68182" lon="1.7066">
        <ele>176</ele>
        <time>2018-11-15T09:31:11Z</time>
      </trkpt>
      <trkpt lat="48.68188" lon="1.70666">
        <ele>176</ele>
        <time>2018-11-15T09:31:17Z</time>
      </trkpt>
      <trkpt lat="48.68191" lon="1.70673">
        <ele>176</ele>
        <time>2018-11-15T09:31:21Z</time>
      </trkpt>
      <trkpt lat="48.68192" lon="1.70682">
        <ele>176</ele>
        <time>2018-11-15T09:31:25Z</time>
      </trkpt>
      <trkpt lat="48.68197" lon="1.70686">
        <ele>176</ele>
        <time>2018-11-15T09:31:29Z</time>
      </trkpt>
      <trkpt lat="48.68204" lon="1.70692">
        <ele>176</ele>
        <time>2018-11-15T09:31:33Z</time>
      </trkpt>
      <trkpt lat="48.68209" lon="1.70698">
        <ele>176</ele>
        <time>2018-11-15T09:31:37Z</time>
      </trkpt>
      <trkpt lat="48.68216" lon="1.70703">
        <ele>176</ele>
        <time>2018-11-15T09:31:41Z</time>
      </trkpt>
      <trkpt lat="48.68222" lon="1.70708">
        <ele>176</ele>
        <time>2018-11-15T09:31:45Z</time>
      </trkpt>
      <trkpt lat="48.68228" lon="1.70712">
        <ele>176</ele>
        <time>2018-11-15T09:31:51Z</time>
      </trkpt>
      <trkpt lat="48.68233" lon="1.70717">
        <ele>176</ele>
        <time>2018-11-15T09:31:55Z</time>
      </trkpt>
      <trkpt lat="48.6824" lon="1.70721">
        <ele>176</ele>
        <time>2018-11-15T09:31:59Z</time>
      </trkpt>
      <trkpt lat="48.68245" lon="1.70724">
        <ele>176</ele>
        <time>2018-11-15T09:32:03Z</time>
      </trkpt>
      <trkpt lat="48.68249" lon="1.70728">
        <ele>176</ele>
        <time>2018-11-15T09:32:07Z</time>
      </trkpt>
      <trkpt lat="48.68255" lon="1.7073">
        <ele>173</ele>
        <time>2018-11-15T09:32:11Z</time>
      </trkpt>
      <trkpt lat="48.68259" lon="1.70735">
        <ele>173</ele>
        <time>2018-11-15T09:32:15Z</time>
      </trkpt>
      <trkpt lat="48.68263" lon="1.70738">
        <ele>173</ele>
        <time>2018-11-15T09:32:19Z</time>
      </trkpt>
      <trkpt lat="48.68267" lon="1.70742">
        <ele>173</ele>
        <time>2018-11-15T09:32:23Z</time>
      </trkpt>
      <trkpt lat="48.68271" lon="1.70749">
        <ele>173</ele>
        <time>2018-11-15T09:32:27Z</time>
      </trkpt>
      <trkpt lat="48.68274" lon="1.70754">
        <ele>175</ele>
        <time>2018-11-15T09:32:31Z</time>
      </trkpt>
      <trkpt lat="48.68279" lon="1.70762">
        <ele>175</ele>
        <time>2018-11-15T09:32:35Z</time>
      </trkpt>
      <trkpt lat="48.68285" lon="1.7077">
        <ele>174</ele>
        <time>2018-11-15T09:32:39Z</time>
      </trkpt>
      <trkpt lat="48.68291" lon="1.70777">
        <ele>174</ele>
        <time>2018-11-15T09:32:43Z</time>
      </trkpt>
      <trkpt lat="48.68298" lon="1.70786">
        <ele>175</ele>
        <time>2018-11-15T09:32:47Z</time>
      </trkpt>
      <trkpt lat="48.68303" lon="1.70791">
        <ele>175</ele>
        <time>2018-11-15T09:32:51Z</time>
      </trkpt>
      <trkpt lat="48.68307" lon="1.70798">
        <ele>175</ele>
        <time>2018-11-15T09:32:55Z</time>
      </trkpt>
      <trkpt lat="48.68313" lon="1.70804">
        <ele>175</ele>
        <time>2018-11-15T09:32:59Z</time>
      </trkpt>
      <trkpt lat="48.68319" lon="1.70812">
        <ele>175</ele>
        <time>2018-11-15T09:33:03Z</time>
      </trkpt>
      <trkpt lat="48.68325" lon="1.70818">
        <ele>175</ele>
        <time>2018-11-15T09:33:07Z</time>
      </trkpt>
      <trkpt lat="48.68331" lon="1.70823">
        <ele>175</ele>
        <time>2018-11-15T09:33:11Z</time>
      </trkpt>
      <trkpt lat="48.68335" lon="1.7083">
        <ele>175</ele>
        <time>2018-11-15T09:33:15Z</time>
      </trkpt>
      <trkpt lat="48.6834" lon="1.70838">
        <ele>175</ele>
        <time>2018-11-15T09:33:19Z</time>
      </trkpt>
      <trkpt lat="48.68346" lon="1.70844">
        <ele>175</ele>
        <time>2018-11-15T09:33:23Z</time>
      </trkpt>
      <trkpt lat="48.68351" lon="1.70852">
        <ele>175</ele>
        <time>2018-11-15T09:33:27Z</time>
      </trkpt>
      <trkpt lat="48.68357" lon="1.70858">
        <ele>175</ele>
        <time>2018-11-15T09:33:31Z</time>
      </trkpt>
      <trkpt lat="48.68361" lon="1.70864">
        <ele>175</ele>
        <time>2018-11-15T09:33:35Z</time>
      </trkpt>
      <trkpt lat="48.68365" lon="1.70869">
        <ele>175</ele>
        <time>2018-11-15T09:33:39Z</time>
      </trkpt>
      <trkpt lat="48.6837" lon="1.70873">
        <ele>175</ele>
        <time>2018-11-15T09:33:43Z</time>
      </trkpt>
      <trkpt lat="48.68374" lon="1.70877">
        <ele>175</ele>
        <time>2018-11-15T09:33:47Z</time>
      </trkpt>
      <trkpt lat="48.68379" lon="1.70882">
        <ele>175</ele>
        <time>2018-11-15T09:33:51Z</time>
      </trkpt>
      <trkpt lat="48.68384" lon="1.70887">
        <ele>175</ele>
        <time>2018-11-15T09:33:55Z</time>
      </trkpt>
      <trkpt lat="48.68388" lon="1.70893">
        <ele>175</ele>
        <time>2018-11-15T09:34:01Z</time>
      </trkpt>
      <trkpt lat="48.68389" lon="1.709">
        <ele>175</ele>
        <time>2018-11-15T09:34:09Z</time>
      </trkpt>
      <trkpt lat="48.6839" lon="1.70907">
        <ele>175</ele>
        <time>2018-11-15T09:34:39Z</time>
      </trkpt>
      <trkpt lat="48.68394" lon="1.70913">
        <ele>175</ele>
        <time>2018-11-15T09:34:43Z</time>
      </trkpt>
      <trkpt lat="48.68395" lon="1.70921">
        <ele>175</ele>
        <time>2018-11-15T09:35:03Z</time>
      </trkpt>
      <trkpt lat="48.684" lon="1.70917">
        <ele>175</ele>
        <time>2018-11-15T09:36:13Z</time>
      </trkpt>
      <trkpt lat="48.68396" lon="1.70912">
        <ele>175</ele>
        <time>2018-11-15T09:37:15Z</time>
      </trkpt>
      <trkpt lat="48.68394" lon="1.70903">
        <ele>175</ele>
        <time>2018-11-15T09:37:29Z</time>
      </trkpt>
      <trkpt lat="48.68389" lon="1.7091">
        <ele>175</ele>
        <time>2018-11-15T09:37:37Z</time>
      </trkpt>
      <trkpt lat="48.68383" lon="1.70914">
        <ele>175</ele>
        <time>2018-11-15T09:37:41Z</time>
      </trkpt>
      <trkpt lat="48.68379" lon="1.70919">
        <ele>176</ele>
        <time>2018-11-15T09:37:45Z</time>
      </trkpt>
      <trkpt lat="48.68374" lon="1.70927">
        <ele>176</ele>
        <time>2018-11-15T09:37:51Z</time>
      </trkpt>
      <trkpt lat="48.68368" lon="1.7093">
        <ele>176</ele>
        <time>2018-11-15T09:37:55Z</time>
      </trkpt>
      <trkpt lat="48.68362" lon="1.70936">
        <ele>176</ele>
        <time>2018-11-15T09:37:59Z</time>
      </trkpt>
      <trkpt lat="48.68353" lon="1.70938">
        <ele>177</ele>
        <time>2018-11-15T09:38:03Z</time>
      </trkpt>
      <trkpt lat="48.6835" lon="1.70944">
        <ele>176</ele>
        <time>2018-11-15T09:38:05Z</time>
      </trkpt>
      <trkpt lat="48.68345" lon="1.70949">
        <ele>176</ele>
        <time>2018-11-15T09:38:09Z</time>
      </trkpt>
      <trkpt lat="48.68338" lon="1.70955">
        <ele>176</ele>
        <time>2018-11-15T09:38:15Z</time>
      </trkpt>
      <trkpt lat="48.68335" lon="1.70962">
        <ele>176</ele>
        <time>2018-11-15T09:38:19Z</time>
      </trkpt>
      <trkpt lat="48.68329" lon="1.70964">
        <ele>177</ele>
        <time>2018-11-15T09:38:23Z</time>
      </trkpt>
      <trkpt lat="48.68322" lon="1.70967">
        <ele>177</ele>
        <time>2018-11-15T09:38:27Z</time>
      </trkpt>
      <trkpt lat="48.68318" lon="1.70973">
        <ele>177</ele>
        <time>2018-11-15T09:38:31Z</time>
      </trkpt>
      <trkpt lat="48.68314" lon="1.70977">
        <ele>177</ele>
        <time>2018-11-15T09:38:35Z</time>
      </trkpt>
      <trkpt lat="48.68309" lon="1.70981">
        <ele>177</ele>
        <time>2018-11-15T09:38:39Z</time>
      </trkpt>
      <trkpt lat="48.68304" lon="1.70986">
        <ele>177</ele>
        <time>2018-11-15T09:38:43Z</time>
      </trkpt>
      <trkpt lat="48.683" lon="1.70992">
        <ele>177</ele>
        <time>2018-11-15T09:38:47Z</time>
      </trkpt>
      <trkpt lat="48.68294" lon="1.70995">
        <ele>177</ele>
        <time>2018-11-15T09:38:51Z</time>
      </trkpt>
      <trkpt lat="48.68288" lon="1.70998">
        <ele>178</ele>
        <time>2018-11-15T09:38:55Z</time>
      </trkpt>
      <trkpt lat="48.68282" lon="1.70999">
        <ele>178</ele>
        <time>2018-11-15T09:38:59Z</time>
      </trkpt>
      <trkpt lat="48.68277" lon="1.71002">
        <ele>177</ele>
        <time>2018-11-15T09:39:03Z</time>
      </trkpt>
      <trkpt lat="48.68272" lon="1.71008">
        <ele>177</ele>
        <time>2018-11-15T09:39:11Z</time>
      </trkpt>
      <trkpt lat="48.68267" lon="1.71011">
        <ele>178</ele>
        <time>2018-11-15T09:39:15Z</time>
      </trkpt>
      <trkpt lat="48.68262" lon="1.71015">
        <ele>178</ele>
        <time>2018-11-15T09:39:19Z</time>
      </trkpt>
      <trkpt lat="48.68258" lon="1.71018">
        <ele>178</ele>
        <time>2018-11-15T09:39:21Z</time>
      </trkpt>
      <trkpt lat="48.68248" lon="1.71023">
        <ele>178</ele>
        <time>2018-11-15T09:39:25Z</time>
      </trkpt>
      <trkpt lat="48.68241" lon="1.7103">
        <ele>178</ele>
        <time>2018-11-15T09:39:29Z</time>
      </trkpt>
      <trkpt lat="48.68236" lon="1.71033">
        <ele>178</ele>
        <time>2018-11-15T09:39:31Z</time>
      </trkpt>
      <trkpt lat="48.68232" lon="1.7104">
        <ele>178</ele>
        <time>2018-11-15T09:39:37Z</time>
      </trkpt>
      <trkpt lat="48.68227" lon="1.71045">
        <ele>178</ele>
        <time>2018-11-15T09:39:39Z</time>
      </trkpt>
      <trkpt lat="48.68222" lon="1.71049">
        <ele>178</ele>
        <time>2018-11-15T09:39:43Z</time>
      </trkpt>
      <trkpt lat="48.68217" lon="1.71059">
        <ele>177</ele>
        <time>2018-11-15T09:39:51Z</time>
      </trkpt>
      <trkpt lat="48.68209" lon="1.71064">
        <ele>177</ele>
        <time>2018-11-15T09:39:55Z</time>
      </trkpt>
      <trkpt lat="48.68206" lon="1.7107">
        <ele>177</ele>
        <time>2018-11-15T09:39:59Z</time>
      </trkpt>
      <trkpt lat="48.68199" lon="1.71075">
        <ele>177</ele>
        <time>2018-11-15T09:40:03Z</time>
      </trkpt>
      <trkpt lat="48.68192" lon="1.71079">
        <ele>177</ele>
        <time>2018-11-15T09:40:07Z</time>
      </trkpt>
      <trkpt lat="48.68187" lon="1.71087">
        <ele>176</ele>
        <time>2018-11-15T09:40:11Z</time>
      </trkpt>
      <trkpt lat="48.6818" lon="1.71091">
        <ele>176</ele>
        <time>2018-11-15T09:40:15Z</time>
      </trkpt>
      <trkpt lat="48.68176" lon="1.71094">
        <ele>176</ele>
        <time>2018-11-15T09:40:19Z</time>
      </trkpt>
      <trkpt lat="48.6817" lon="1.711">
        <ele>176</ele>
        <time>2018-11-15T09:40:27Z</time>
      </trkpt>
      <trkpt lat="48.68166" lon="1.71103">
        <ele>175</ele>
        <time>2018-11-15T09:40:29Z</time>
      </trkpt>
      <trkpt lat="48.68158" lon="1.71109">
        <ele>175</ele>
        <time>2018-11-15T09:40:33Z</time>
      </trkpt>
      <trkpt lat="48.68154" lon="1.71113">
        <ele>174</ele>
        <time>2018-11-15T09:40:35Z</time>
      </trkpt>
      <trkpt lat="48.68148" lon="1.71118">
        <ele>174</ele>
        <time>2018-11-15T09:40:39Z</time>
      </trkpt>
      <trkpt lat="48.68144" lon="1.71122">
        <ele>174</ele>
        <time>2018-11-15T09:40:45Z</time>
      </trkpt>
      <trkpt lat="48.68136" lon="1.71124">
        <ele>174</ele>
        <time>2018-11-15T09:40:49Z</time>
      </trkpt>
      <trkpt lat="48.68133" lon="1.7113">
        <ele>174</ele>
        <time>2018-11-15T09:40:51Z</time>
      </trkpt>
      <trkpt lat="48.68129" lon="1.71138">
        <ele>174</ele>
        <time>2018-11-15T09:40:59Z</time>
      </trkpt>
      <trkpt lat="48.68124" lon="1.71144">
        <ele>174</ele>
        <time>2018-11-15T09:41:03Z</time>
      </trkpt>
      <trkpt lat="48.68116" lon="1.7115">
        <ele>173</ele>
        <time>2018-11-15T09:41:07Z</time>
      </trkpt>
      <trkpt lat="48.68113" lon="1.71155">
        <ele>173</ele>
        <time>2018-11-15T09:41:09Z</time>
      </trkpt>
      <trkpt lat="48.68107" lon="1.71159">
        <ele>173</ele>
        <time>2018-11-15T09:41:13Z</time>
      </trkpt>
      <trkpt lat="48.68103" lon="1.71165">
        <ele>173</ele>
        <time>2018-11-15T09:41:17Z</time>
      </trkpt>
      <trkpt lat="48.68098" lon="1.71171">
        <ele>172</ele>
        <time>2018-11-15T09:41:21Z</time>
      </trkpt>
      <trkpt lat="48.68089" lon="1.71181">
        <ele>172</ele>
        <time>2018-11-15T09:41:25Z</time>
      </trkpt>
      <trkpt lat="48.68084" lon="1.71185">
        <ele>172</ele>
        <time>2018-11-15T09:41:27Z</time>
      </trkpt>
      <trkpt lat="48.68079" lon="1.71188">
        <ele>171</ele>
        <time>2018-11-15T09:41:33Z</time>
      </trkpt>
      <trkpt lat="48.68073" lon="1.71191">
        <ele>171</ele>
        <time>2018-11-15T09:41:37Z</time>
      </trkpt>
      <trkpt lat="48.68066" lon="1.71197">
        <ele>171</ele>
        <time>2018-11-15T09:41:43Z</time>
      </trkpt>
      <trkpt lat="48.68061" lon="1.71201">
        <ele>171</ele>
        <time>2018-11-15T09:41:49Z</time>
      </trkpt>
      <trkpt lat="48.68059" lon="1.71208">
        <ele>171</ele>
        <time>2018-11-15T09:41:55Z</time>
      </trkpt>
      <trkpt lat="48.68053" lon="1.71211">
        <ele>171</ele>
        <time>2018-11-15T09:41:59Z</time>
      </trkpt>
      <trkpt lat="48.68049" lon="1.71217">
        <ele>171</ele>
        <time>2018-11-15T09:42:03Z</time>
      </trkpt>
      <trkpt lat="48.68044" lon="1.71224">
        <ele>171</ele>
        <time>2018-11-15T09:42:07Z</time>
      </trkpt>
      <trkpt lat="48.68038" lon="1.71229">
        <ele>171</ele>
        <time>2018-11-15T09:42:11Z</time>
      </trkpt>
      <trkpt lat="48.68034" lon="1.71233">
        <ele>171</ele>
        <time>2018-11-15T09:42:15Z</time>
      </trkpt>
      <trkpt lat="48.68028" lon="1.71241">
        <ele>171</ele>
        <time>2018-11-15T09:42:19Z</time>
      </trkpt>
      <trkpt lat="48.68023" lon="1.71241">
        <ele>171</ele>
        <time>2018-11-15T09:42:21Z</time>
      </trkpt>
      <trkpt lat="48.68019" lon="1.71249">
        <ele>170</ele>
        <time>2018-11-15T09:42:25Z</time>
      </trkpt>
      <trkpt lat="48.68013" lon="1.71252">
        <ele>171</ele>
        <time>2018-11-15T09:42:29Z</time>
      </trkpt>
      <trkpt lat="48.68009" lon="1.71257">
        <ele>170</ele>
        <time>2018-11-15T09:42:35Z</time>
      </trkpt>
      <trkpt lat="48.68004" lon="1.71261">
        <ele>170</ele>
        <time>2018-11-15T09:42:39Z</time>
      </trkpt>
      <trkpt lat="48.67999" lon="1.71266">
        <ele>170</ele>
        <time>2018-11-15T09:42:43Z</time>
      </trkpt>
      <trkpt lat="48.67993" lon="1.71272">
        <ele>170</ele>
        <time>2018-11-15T09:42:49Z</time>
      </trkpt>
      <trkpt lat="48.67986" lon="1.71276">
        <ele>170</ele>
        <time>2018-11-15T09:42:53Z</time>
      </trkpt>
      <trkpt lat="48.67981" lon="1.7128">
        <ele>170</ele>
        <time>2018-11-15T09:42:57Z</time>
      </trkpt>
      <trkpt lat="48.67977" lon="1.7129">
        <ele>170</ele>
        <time>2018-11-15T09:43:01Z</time>
      </trkpt>
      <trkpt lat="48.67972" lon="1.71294">
        <ele>171</ele>
        <time>2018-11-15T09:43:05Z</time>
      </trkpt>
      <trkpt lat="48.67967" lon="1.71298">
        <ele>171</ele>
        <time>2018-11-15T09:43:07Z</time>
      </trkpt>
      <trkpt lat="48.67963" lon="1.71302">
        <ele>171</ele>
        <time>2018-11-15T09:43:09Z</time>
      </trkpt>
      <trkpt lat="48.67958" lon="1.71307">
        <ele>171</ele>
        <time>2018-11-15T09:43:11Z</time>
      </trkpt>
      <trkpt lat="48.67953" lon="1.71311">
        <ele>171</ele>
        <time>2018-11-15T09:43:13Z</time>
      </trkpt>
      <trkpt lat="48.67946" lon="1.71318">
        <ele>171</ele>
        <time>2018-11-15T09:43:17Z</time>
      </trkpt>
      <trkpt lat="48.67938" lon="1.71322">
        <ele>171</ele>
        <time>2018-11-15T09:43:21Z</time>
      </trkpt>
      <trkpt lat="48.67932" lon="1.71328">
        <ele>171</ele>
        <time>2018-11-15T09:43:25Z</time>
      </trkpt>
      <trkpt lat="48.67927" lon="1.71333">
        <ele>171</ele>
        <time>2018-11-15T09:43:29Z</time>
      </trkpt>
      <trkpt lat="48.67922" lon="1.71339">
        <ele>172</ele>
        <time>2018-11-15T09:43:33Z</time>
      </trkpt>
      <trkpt lat="48.67917" lon="1.71343">
        <ele>172</ele>
        <time>2018-11-15T09:43:37Z</time>
      </trkpt>
      <trkpt lat="48.67911" lon="1.7135">
        <ele>171</ele>
        <time>2018-11-15T09:43:43Z</time>
      </trkpt>
      <trkpt lat="48.67908" lon="1.71357">
        <ele>171</ele>
        <time>2018-11-15T09:43:47Z</time>
      </trkpt>
      <trkpt lat="48.67906" lon="1.71366">
        <ele>171</ele>
        <time>2018-11-15T09:43:51Z</time>
      </trkpt>
      <trkpt lat="48.67903" lon="1.71372">
        <ele>171</ele>
        <time>2018-11-15T09:43:53Z</time>
      </trkpt>
      <trkpt lat="48.67901" lon="1.71382">
        <ele>171</ele>
        <time>2018-11-15T09:43:57Z</time>
      </trkpt>
      <trkpt lat="48.67899" lon="1.71389">
        <ele>171</ele>
        <time>2018-11-15T09:44:01Z</time>
      </trkpt>
      <trkpt lat="48.67901" lon="1.71399">
        <ele>172</ele>
        <time>2018-11-15T09:44:05Z</time>
      </trkpt>
      <trkpt lat="48.67903" lon="1.71409">
        <ele>172</ele>
        <time>2018-11-15T09:44:09Z</time>
      </trkpt>
      <trkpt lat="48.67903" lon="1.71417">
        <ele>172</ele>
        <time>2018-11-15T09:44:13Z</time>
      </trkpt>
      <trkpt lat="48.67904" lon="1.71425">
        <ele>172</ele>
        <time>2018-11-15T09:44:17Z</time>
      </trkpt>
      <trkpt lat="48.67906" lon="1.71433">
        <ele>172</ele>
        <time>2018-11-15T09:44:23Z</time>
      </trkpt>
      <trkpt lat="48.67907" lon="1.71443">
        <ele>172</ele>
        <time>2018-11-15T09:44:29Z</time>
      </trkpt>
      <trkpt lat="48.67907" lon="1.7145">
        <ele>172</ele>
        <time>2018-11-15T09:44:33Z</time>
      </trkpt>
      <trkpt lat="48.67911" lon="1.71458">
        <ele>172</ele>
        <time>2018-11-15T09:44:37Z</time>
      </trkpt>
      <trkpt lat="48.67912" lon="1.71465">
        <ele>172</ele>
        <time>2018-11-15T09:44:41Z</time>
      </trkpt>
      <trkpt lat="48.67913" lon="1.71472">
        <ele>172</ele>
        <time>2018-11-15T09:44:43Z</time>
      </trkpt>
      <trkpt lat="48.67915" lon="1.71483">
        <ele>172</ele>
        <time>2018-11-15T09:44:47Z</time>
      </trkpt>
      <trkpt lat="48.67918" lon="1.71489">
        <ele>174</ele>
        <time>2018-11-15T09:44:49Z</time>
      </trkpt>
      <trkpt lat="48.67922" lon="1.71499">
        <ele>173</ele>
        <time>2018-11-15T09:44:53Z</time>
      </trkpt>
      <trkpt lat="48.67924" lon="1.7151">
        <ele>174</ele>
        <time>2018-11-15T09:44:57Z</time>
      </trkpt>
      <trkpt lat="48.67924" lon="1.71522">
        <ele>174</ele>
        <time>2018-11-15T09:45:03Z</time>
      </trkpt>
      <trkpt lat="48.67928" lon="1.71531">
        <ele>174</ele>
        <time>2018-11-15T09:45:07Z</time>
      </trkpt>
      <trkpt lat="48.67929" lon="1.71538">
        <ele>174</ele>
        <time>2018-11-15T09:45:09Z</time>
      </trkpt>
      <trkpt lat="48.67931" lon="1.71547">
        <ele>174</ele>
        <time>2018-11-15T09:45:13Z</time>
      </trkpt>
      <trkpt lat="48.67932" lon="1.71554">
        <ele>174</ele>
        <time>2018-11-15T09:45:17Z</time>
      </trkpt>
      <trkpt lat="48.67934" lon="1.71565">
        <ele>174</ele>
        <time>2018-11-15T09:45:21Z</time>
      </trkpt>
      <trkpt lat="48.67936" lon="1.71577">
        <ele>174</ele>
        <time>2018-11-15T09:45:25Z</time>
      </trkpt>
      <trkpt lat="48.67937" lon="1.71587">
        <ele>174</ele>
        <time>2018-11-15T09:45:29Z</time>
      </trkpt>
      <trkpt lat="48.67937" lon="1.71595">
        <ele>174</ele>
        <time>2018-11-15T09:45:33Z</time>
      </trkpt>
      <trkpt lat="48.67942" lon="1.71607">
        <ele>174</ele>
        <time>2018-11-15T09:45:37Z</time>
      </trkpt>
      <trkpt lat="48.67944" lon="1.71613">
        <ele>174</ele>
        <time>2018-11-15T09:45:41Z</time>
      </trkpt>
      <trkpt lat="48.67948" lon="1.71622">
        <ele>174</ele>
        <time>2018-11-15T09:45:45Z</time>
      </trkpt>
      <trkpt lat="48.67951" lon="1.71631">
        <ele>175</ele>
        <time>2018-11-15T09:45:49Z</time>
      </trkpt>
      <trkpt lat="48.67953" lon="1.71638">
        <ele>175</ele>
        <time>2018-11-15T09:45:53Z</time>
      </trkpt>
      <trkpt lat="48.67955" lon="1.71647">
        <ele>175</ele>
        <time>2018-11-15T09:45:59Z</time>
      </trkpt>
      <trkpt lat="48.6796" lon="1.71655">
        <ele>175</ele>
        <time>2018-11-15T09:46:03Z</time>
      </trkpt>
      <trkpt lat="48.67962" lon="1.71667">
        <ele>174</ele>
        <time>2018-11-15T09:46:07Z</time>
      </trkpt>
      <trkpt lat="48.67964" lon="1.71674">
        <ele>174</ele>
        <time>2018-11-15T09:46:09Z</time>
      </trkpt>
      <trkpt lat="48.67966" lon="1.71683">
        <ele>174</ele>
        <time>2018-11-15T09:46:13Z</time>
      </trkpt>
      <trkpt lat="48.67967" lon="1.7169">
        <ele>174</ele>
        <time>2018-11-15T09:46:17Z</time>
      </trkpt>
      <trkpt lat="48.67969" lon="1.71698">
        <ele>174</ele>
        <time>2018-11-15T09:46:23Z</time>
      </trkpt>
      <trkpt lat="48.67971" lon="1.71707">
        <ele>174</ele>
        <time>2018-11-15T09:46:27Z</time>
      </trkpt>
      <trkpt lat="48.67973" lon="1.71714">
        <ele>174</ele>
        <time>2018-11-15T09:46:29Z</time>
      </trkpt>
      <trkpt lat="48.67974" lon="1.71722">
        <ele>174</ele>
        <time>2018-11-15T09:46:33Z</time>
      </trkpt>
      <trkpt lat="48.67976" lon="1.71729">
        <ele>174</ele>
        <time>2018-11-15T09:46:37Z</time>
      </trkpt>
      <trkpt lat="48.67978" lon="1.71738">
        <ele>175</ele>
        <time>2018-11-15T09:46:41Z</time>
      </trkpt>
      <trkpt lat="48.6798" lon="1.71751">
        <ele>175</ele>
        <time>2018-11-15T09:46:45Z</time>
      </trkpt>
      <trkpt lat="48.67984" lon="1.71764">
        <ele>175</ele>
        <time>2018-11-15T09:46:51Z</time>
      </trkpt>
      <trkpt lat="48.67988" lon="1.71777">
        <ele>175</ele>
        <time>2018-11-15T09:46:57Z</time>
      </trkpt>
      <trkpt lat="48.67991" lon="1.71786">
        <ele>175</ele>
        <time>2018-11-15T09:47:01Z</time>
      </trkpt>
      <trkpt lat="48.67994" lon="1.71794">
        <ele>175</ele>
        <time>2018-11-15T09:47:05Z</time>
      </trkpt>
      <trkpt lat="48.67996" lon="1.71803">
        <ele>175</ele>
        <time>2018-11-15T09:47:09Z</time>
      </trkpt>
      <trkpt lat="48.67998" lon="1.71815">
        <ele>176</ele>
        <time>2018-11-15T09:47:13Z</time>
      </trkpt>
      <trkpt lat="48.67997" lon="1.71823">
        <ele>176</ele>
        <time>2018-11-15T09:47:15Z</time>
      </trkpt>
      <trkpt lat="48.67998" lon="1.71834">
        <ele>177</ele>
        <time>2018-11-15T09:47:19Z</time>
      </trkpt>
      <trkpt lat="48.67998" lon="1.71841">
        <ele>177</ele>
        <time>2018-11-15T09:47:27Z</time>
      </trkpt>
      <trkpt lat="48.68001" lon="1.71848">
        <ele>178</ele>
        <time>2018-11-15T09:47:31Z</time>
      </trkpt>
      <trkpt lat="48.68005" lon="1.71856">
        <ele>179</ele>
        <time>2018-11-15T09:47:35Z</time>
      </trkpt>
      <trkpt lat="48.68007" lon="1.71864">
        <ele>179</ele>
        <time>2018-11-15T09:47:39Z</time>
      </trkpt>
      <trkpt lat="48.68007" lon="1.71872">
        <ele>179</ele>
        <time>2018-11-15T09:47:43Z</time>
      </trkpt>
      <trkpt lat="48.68009" lon="1.7188">
        <ele>179</ele>
        <time>2018-11-15T09:47:47Z</time>
      </trkpt>
      <trkpt lat="48.68012" lon="1.71889">
        <ele>180</ele>
        <time>2018-11-15T09:47:55Z</time>
      </trkpt>
      <trkpt lat="48.68017" lon="1.71896">
        <ele>180</ele>
        <time>2018-11-15T09:47:59Z</time>
      </trkpt>
      <trkpt lat="48.68019" lon="1.71902">
        <ele>180</ele>
        <time>2018-11-15T09:48:03Z</time>
      </trkpt>
      <trkpt lat="48.68022" lon="1.7191">
        <ele>180</ele>
        <time>2018-11-15T09:48:07Z</time>
      </trkpt>
      <trkpt lat="48.68023" lon="1.7192">
        <ele>181</ele>
        <time>2018-11-15T09:48:11Z</time>
      </trkpt>
      <trkpt lat="48.68025" lon="1.71928">
        <ele>181</ele>
        <time>2018-11-15T09:48:15Z</time>
      </trkpt>
      <trkpt lat="48.68028" lon="1.71937">
        <ele>181</ele>
        <time>2018-11-15T09:48:19Z</time>
      </trkpt>
      <trkpt lat="48.68031" lon="1.71947">
        <ele>182</ele>
        <time>2018-11-15T09:48:25Z</time>
      </trkpt>
      <trkpt lat="48.68034" lon="1.71957">
        <ele>182</ele>
        <time>2018-11-15T09:48:29Z</time>
      </trkpt>
      <trkpt lat="48.68037" lon="1.71966">
        <ele>182</ele>
        <time>2018-11-15T09:48:33Z</time>
      </trkpt>
      <trkpt lat="48.68039" lon="1.71975">
        <ele>182</ele>
        <time>2018-11-15T09:48:37Z</time>
      </trkpt>
      <trkpt lat="48.6804" lon="1.71982">
        <ele>182</ele>
        <time>2018-11-15T09:48:41Z</time>
      </trkpt>
      <trkpt lat="48.68041" lon="1.71991">
        <ele>182</ele>
        <time>2018-11-15T09:48:45Z</time>
      </trkpt>
      <trkpt lat="48.68043" lon="1.71999">
        <ele>182</ele>
        <time>2018-11-15T09:48:49Z</time>
      </trkpt>
      <trkpt lat="48.68046" lon="1.72009">
        <ele>183</ele>
        <time>2018-11-15T09:48:53Z</time>
      </trkpt>
      <trkpt lat="48.6805" lon="1.7202">
        <ele>183</ele>
        <time>2018-11-15T09:48:57Z</time>
      </trkpt>
      <trkpt lat="48.68053" lon="1.7203">
        <ele>183</ele>
        <time>2018-11-15T09:49:01Z</time>
      </trkpt>
      <trkpt lat="48.68055" lon="1.72039">
        <ele>183</ele>
        <time>2018-11-15T09:49:05Z</time>
      </trkpt>
      <trkpt lat="48.68057" lon="1.72047">
        <ele>183</ele>
        <time>2018-11-15T09:49:09Z</time>
      </trkpt>
      <trkpt lat="48.68058" lon="1.72058">
        <ele>183</ele>
        <time>2018-11-15T09:49:13Z</time>
      </trkpt>
      <trkpt lat="48.68061" lon="1.72067">
        <ele>182</ele>
        <time>2018-11-15T09:49:17Z</time>
      </trkpt>
      <trkpt lat="48.68062" lon="1.72075">
        <ele>182</ele>
        <time>2018-11-15T09:49:21Z</time>
      </trkpt>
      <trkpt lat="48.68064" lon="1.72082">
        <ele>182</ele>
        <time>2018-11-15T09:49:25Z</time>
      </trkpt>
      <trkpt lat="48.68065" lon="1.72089">
        <ele>181</ele>
        <time>2018-11-15T09:49:27Z</time>
      </trkpt>
      <trkpt lat="48.68069" lon="1.72099">
        <ele>181</ele>
        <time>2018-11-15T09:49:31Z</time>
      </trkpt>
      <trkpt lat="48.68072" lon="1.72106">
        <ele>181</ele>
        <time>2018-11-15T09:49:35Z</time>
      </trkpt>
      <trkpt lat="48.68074" lon="1.72117">
        <ele>181</ele>
        <time>2018-11-15T09:49:41Z</time>
      </trkpt>
      <trkpt lat="48.68075" lon="1.7213">
        <ele>181</ele>
        <time>2018-11-15T09:49:45Z</time>
      </trkpt>
      <trkpt lat="48.68079" lon="1.7214">
        <ele>180</ele>
        <time>2018-11-15T09:49:49Z</time>
      </trkpt>
      <trkpt lat="48.68081" lon="1.72146">
        <ele>180</ele>
        <time>2018-11-15T09:49:53Z</time>
      </trkpt>
      <trkpt lat="48.68083" lon="1.72153">
        <ele>180</ele>
        <time>2018-11-15T09:49:57Z</time>
      </trkpt>
      <trkpt lat="48.68085" lon="1.72163">
        <ele>179</ele>
        <time>2018-11-15T09:50:01Z</time>
      </trkpt>
      <trkpt lat="48.68088" lon="1.72175">
        <ele>179</ele>
        <time>2018-11-15T09:50:05Z</time>
      </trkpt>
      <trkpt lat="48.68089" lon="1.72182">
        <ele>179</ele>
        <time>2018-11-15T09:50:07Z</time>
      </trkpt>
      <trkpt lat="48.68093" lon="1.72191">
        <ele>179</ele>
        <time>2018-11-15T09:50:11Z</time>
      </trkpt>
      <trkpt lat="48.68096" lon="1.72202">
        <ele>179</ele>
        <time>2018-11-15T09:50:15Z</time>
      </trkpt>
      <trkpt lat="48.68099" lon="1.72211">
        <ele>179</ele>
        <time>2018-11-15T09:50:19Z</time>
      </trkpt>
      <trkpt lat="48.68099" lon="1.72218">
        <ele>179</ele>
        <time>2018-11-15T09:50:21Z</time>
      </trkpt>
      <trkpt lat="48.68101" lon="1.7223">
        <ele>178</ele>
        <time>2018-11-15T09:50:25Z</time>
      </trkpt>
      <trkpt lat="48.68102" lon="1.72237">
        <ele>178</ele>
        <time>2018-11-15T09:50:27Z</time>
      </trkpt>
      <trkpt lat="48.68106" lon="1.72245">
        <ele>178</ele>
        <time>2018-11-15T09:50:31Z</time>
      </trkpt>
      <trkpt lat="48.68109" lon="1.72252">
        <ele>178</ele>
        <time>2018-11-15T09:50:35Z</time>
      </trkpt>
      <trkpt lat="48.68111" lon="1.72263">
        <ele>178</ele>
        <time>2018-11-15T09:50:39Z</time>
      </trkpt>
      <trkpt lat="48.68114" lon="1.72272">
        <ele>178</ele>
        <time>2018-11-15T09:50:43Z</time>
      </trkpt>
      <trkpt lat="48.68116" lon="1.72282">
        <ele>178</ele>
        <time>2018-11-15T09:50:47Z</time>
      </trkpt>
      <trkpt lat="48.68118" lon="1.72293">
        <ele>178</ele>
        <time>2018-11-15T09:50:51Z</time>
      </trkpt>
      <trkpt lat="48.6812" lon="1.72302">
        <ele>179</ele>
        <time>2018-11-15T09:50:55Z</time>
      </trkpt>
      <trkpt lat="48.68121" lon="1.72309">
        <ele>179</ele>
        <time>2018-11-15T09:50:59Z</time>
      </trkpt>
      <trkpt lat="48.68123" lon="1.72317">
        <ele>179</ele>
        <time>2018-11-15T09:51:01Z</time>
      </trkpt>
      <trkpt lat="48.68124" lon="1.72325">
        <ele>179</ele>
        <time>2018-11-15T09:51:05Z</time>
      </trkpt>
      <trkpt lat="48.68126" lon="1.72332">
        <ele>179</ele>
        <time>2018-11-15T09:51:09Z</time>
      </trkpt>
      <trkpt lat="48.68126" lon="1.7234">
        <ele>179</ele>
        <time>2018-11-15T09:51:13Z</time>
      </trkpt>
      <trkpt lat="48.68121" lon="1.72341">
        <ele>180</ele>
        <time>2018-11-15T09:52:51Z</time>
      </trkpt>
      <trkpt lat="48.68125" lon="1.72345">
        <ele>180</ele>
        <time>2018-11-15T09:52:57Z</time>
      </trkpt>
      <trkpt lat="48.68126" lon="1.72352">
        <ele>180</ele>
        <time>2018-11-15T09:53:13Z</time>
      </trkpt>
      <trkpt lat="48.68128" lon="1.72361">
        <ele>180</ele>
        <time>2018-11-15T09:53:37Z</time>
      </trkpt>
      <trkpt lat="48.68131" lon="1.72367">
        <ele>180</ele>
        <time>2018-11-15T09:53:41Z</time>
      </trkpt>
      <trkpt lat="48.68134" lon="1.72374">
        <ele>180</ele>
        <time>2018-11-15T09:53:47Z</time>
      </trkpt>
      <trkpt lat="48.68134" lon="1.72382">
        <ele>180</ele>
        <time>2018-11-15T09:53:51Z</time>
      </trkpt>
      <trkpt lat="48.68138" lon="1.7239">
        <ele>180</ele>
        <time>2018-11-15T09:53:57Z</time>
      </trkpt>
      <trkpt lat="48.6814" lon="1.72396">
        <ele>179</ele>
        <time>2018-11-15T09:54:01Z</time>
      </trkpt>
      <trkpt lat="48.68143" lon="1.72404">
        <ele>179</ele>
        <time>2018-11-15T09:54:07Z</time>
      </trkpt>
      <trkpt lat="48.68143" lon="1.72411">
        <ele>179</ele>
        <time>2018-11-15T09:54:11Z</time>
      </trkpt>
      <trkpt lat="48.68147" lon="1.72417">
        <ele>180</ele>
        <time>2018-11-15T09:54:17Z</time>
      </trkpt>
      <trkpt lat="48.6815" lon="1.72424">
        <ele>180</ele>
        <time>2018-11-15T09:54:21Z</time>
      </trkpt>
      <trkpt lat="48.68153" lon="1.72431">
        <ele>180</ele>
        <time>2018-11-15T09:54:25Z</time>
      </trkpt>
      <trkpt lat="48.68156" lon="1.72439">
        <ele>181</ele>
        <time>2018-11-15T09:54:29Z</time>
      </trkpt>
      <trkpt lat="48.68157" lon="1.72446">
        <ele>181</ele>
        <time>2018-11-15T09:54:33Z</time>
      </trkpt>
      <trkpt lat="48.68159" lon="1.72454">
        <ele>181</ele>
        <time>2018-11-15T09:54:37Z</time>
      </trkpt>
      <trkpt lat="48.68161" lon="1.72462">
        <ele>181</ele>
        <time>2018-11-15T09:54:41Z</time>
      </trkpt>
      <trkpt lat="48.68165" lon="1.72473">
        <ele>181</ele>
        <time>2018-11-15T09:54:47Z</time>
      </trkpt>
      <trkpt lat="48.68167" lon="1.72481">
        <ele>179</ele>
        <time>2018-11-15T09:54:51Z</time>
      </trkpt>
      <trkpt lat="48.68171" lon="1.72488">
        <ele>180</ele>
        <time>2018-11-15T09:54:57Z</time>
      </trkpt>
      <trkpt lat="48.68173" lon="1.72495">
        <ele>180</ele>
        <time>2018-11-15T09:55:01Z</time>
      </trkpt>
      <trkpt lat="48.68175" lon="1.72505">
        <ele>180</ele>
        <time>2018-11-15T09:55:07Z</time>
      </trkpt>
      <trkpt lat="48.68177" lon="1.72514">
        <ele>180</ele>
        <time>2018-11-15T09:55:11Z</time>
      </trkpt>
      <trkpt lat="48.6818" lon="1.72521">
        <ele>180</ele>
        <time>2018-11-15T09:55:15Z</time>
      </trkpt>
      <trkpt lat="48.68181" lon="1.7253">
        <ele>180</ele>
        <time>2018-11-15T09:55:19Z</time>
      </trkpt>
      <trkpt lat="48.68184" lon="1.72537">
        <ele>180</ele>
        <time>2018-11-15T09:55:23Z</time>
      </trkpt>
      <trkpt lat="48.68186" lon="1.72545">
        <ele>180</ele>
        <time>2018-11-15T09:55:29Z</time>
      </trkpt>
      <trkpt lat="48.68189" lon="1.72555">
        <ele>180</ele>
        <time>2018-11-15T09:55:35Z</time>
      </trkpt>
      <trkpt lat="48.68191" lon="1.72564">
        <ele>180</ele>
        <time>2018-11-15T09:55:39Z</time>
      </trkpt>
      <trkpt lat="48.68193" lon="1.72574">
        <ele>181</ele>
        <time>2018-11-15T09:55:43Z</time>
      </trkpt>
      <trkpt lat="48.68194" lon="1.7258">
        <ele>181</ele>
        <time>2018-11-15T09:55:45Z</time>
      </trkpt>
      <trkpt lat="48.68197" lon="1.72588">
        <ele>181</ele>
        <time>2018-11-15T09:55:49Z</time>
      </trkpt>
      <trkpt lat="48.682" lon="1.72594">
        <ele>180</ele>
        <time>2018-11-15T09:55:53Z</time>
      </trkpt>
      <trkpt lat="48.68202" lon="1.72606">
        <ele>180</ele>
        <time>2018-11-15T09:55:57Z</time>
      </trkpt>
      <trkpt lat="48.68203" lon="1.72618">
        <ele>180</ele>
        <time>2018-11-15T09:56:01Z</time>
      </trkpt>
      <trkpt lat="48.68204" lon="1.7263">
        <ele>180</ele>
        <time>2018-11-15T09:56:05Z</time>
      </trkpt>
      <trkpt lat="48.68207" lon="1.72643">
        <ele>180</ele>
        <time>2018-11-15T09:56:09Z</time>
      </trkpt>
      <trkpt lat="48.68207" lon="1.72651">
        <ele>180</ele>
        <time>2018-11-15T09:56:13Z</time>
      </trkpt>
      <trkpt lat="48.68208" lon="1.72659">
        <ele>180</ele>
        <time>2018-11-15T09:56:17Z</time>
      </trkpt>
      <trkpt lat="48.68212" lon="1.72668">
        <ele>179</ele>
        <time>2018-11-15T09:56:21Z</time>
      </trkpt>
      <trkpt lat="48.68215" lon="1.72675">
        <ele>179</ele>
        <time>2018-11-15T09:56:25Z</time>
      </trkpt>
      <trkpt lat="48.68217" lon="1.72681">
        <ele>179</ele>
        <time>2018-11-15T09:56:27Z</time>
      </trkpt>
      <trkpt lat="48.68221" lon="1.72691">
        <ele>179</ele>
        <time>2018-11-15T09:56:31Z</time>
      </trkpt>
      <trkpt lat="48.68222" lon="1.72702">
        <ele>179</ele>
        <time>2018-11-15T09:56:35Z</time>
      </trkpt>
      <trkpt lat="48.68225" lon="1.72708">
        <ele>179</ele>
        <time>2018-11-15T09:56:39Z</time>
      </trkpt>
      <trkpt lat="48.68226" lon="1.72721">
        <ele>178</ele>
        <time>2018-11-15T09:56:43Z</time>
      </trkpt>
      <trkpt lat="48.68226" lon="1.72729">
        <ele>178</ele>
        <time>2018-11-15T09:56:45Z</time>
      </trkpt>
      <trkpt lat="48.6823" lon="1.72738">
        <ele>178</ele>
        <time>2018-11-15T09:56:49Z</time>
      </trkpt>
      <trkpt lat="48.68231" lon="1.7275">
        <ele>178</ele>
        <time>2018-11-15T09:56:53Z</time>
      </trkpt>
      <trkpt lat="48.68236" lon="1.72758">
        <ele>177</ele>
        <time>2018-11-15T09:56:59Z</time>
      </trkpt>
      <trkpt lat="48.68238" lon="1.72767">
        <ele>177</ele>
        <time>2018-11-15T09:57:03Z</time>
      </trkpt>
      <trkpt lat="48.6824" lon="1.72775">
        <ele>177</ele>
        <time>2018-11-15T09:57:07Z</time>
      </trkpt>
      <trkpt lat="48.68243" lon="1.72783">
        <ele>178</ele>
        <time>2018-11-15T09:57:11Z</time>
      </trkpt>
      <trkpt lat="48.68246" lon="1.72791">
        <ele>178</ele>
        <time>2018-11-15T09:57:15Z</time>
      </trkpt>
      <trkpt lat="48.6825" lon="1.728">
        <ele>177</ele>
        <time>2018-11-15T09:57:19Z</time>
      </trkpt>
      <trkpt lat="48.68251" lon="1.72811">
        <ele>175</ele>
        <time>2018-11-15T09:57:23Z</time>
      </trkpt>
      <trkpt lat="48.68252" lon="1.72823">
        <ele>175</ele>
        <time>2018-11-15T09:57:27Z</time>
      </trkpt>
      <trkpt lat="48.68254" lon="1.72833">
        <ele>175</ele>
        <time>2018-11-15T09:57:31Z</time>
      </trkpt>
      <trkpt lat="48.68256" lon="1.7284">
        <ele>175</ele>
        <time>2018-11-15T09:57:35Z</time>
      </trkpt>
      <trkpt lat="48.68258" lon="1.72847">
        <ele>175</ele>
        <time>2018-11-15T09:57:39Z</time>
      </trkpt>
      <trkpt lat="48.68261" lon="1.72855">
        <ele>175</ele>
        <time>2018-11-15T09:57:45Z</time>
      </trkpt>
      <trkpt lat="48.68264" lon="1.72867">
        <ele>175</ele>
        <time>2018-11-15T09:57:51Z</time>
      </trkpt>
      <trkpt lat="48.68265" lon="1.72875">
        <ele>175</ele>
        <time>2018-11-15T09:57:55Z</time>
      </trkpt>
      <trkpt lat="48.68268" lon="1.72887">
        <ele>175</ele>
        <time>2018-11-15T09:58:01Z</time>
      </trkpt>
      <trkpt lat="48.68271" lon="1.72894">
        <ele>175</ele>
        <time>2018-11-15T09:58:05Z</time>
      </trkpt>
      <trkpt lat="48.68273" lon="1.729">
        <ele>175</ele>
        <time>2018-11-15T09:58:09Z</time>
      </trkpt>
      <trkpt lat="48.68275" lon="1.72908">
        <ele>175</ele>
        <time>2018-11-15T09:58:13Z</time>
      </trkpt>
      <trkpt lat="48.68276" lon="1.72916">
        <ele>175</ele>
        <time>2018-11-15T09:58:17Z</time>
      </trkpt>
      <trkpt lat="48.68278" lon="1.72925">
        <ele>175</ele>
        <time>2018-11-15T09:58:21Z</time>
      </trkpt>
      <trkpt lat="48.68281" lon="1.72934">
        <ele>175</ele>
        <time>2018-11-15T09:58:25Z</time>
      </trkpt>
      <trkpt lat="48.68283" lon="1.72942">
        <ele>174</ele>
        <time>2018-11-15T09:58:29Z</time>
      </trkpt>
      <trkpt lat="48.68284" lon="1.72953">
        <ele>174</ele>
        <time>2018-11-15T09:58:33Z</time>
      </trkpt>
      <trkpt lat="48.68285" lon="1.72963">
        <ele>174</ele>
        <time>2018-11-15T09:58:37Z</time>
      </trkpt>
      <trkpt lat="48.68282" lon="1.72971">
        <ele>174</ele>
        <time>2018-11-15T09:58:41Z</time>
      </trkpt>
      <trkpt lat="48.68277" lon="1.72979">
        <ele>174</ele>
        <time>2018-11-15T09:58:45Z</time>
      </trkpt>
      <trkpt lat="48.68271" lon="1.72984">
        <ele>174</ele>
        <time>2018-11-15T09:58:49Z</time>
      </trkpt>
      <trkpt lat="48.68265" lon="1.72991">
        <ele>174</ele>
        <time>2018-11-15T09:58:53Z</time>
      </trkpt>
      <trkpt lat="48.6826" lon="1.72996">
        <ele>173</ele>
        <time>2018-11-15T09:58:57Z</time>
      </trkpt>
      <trkpt lat="48.68254" lon="1.73003">
        <ele>173</ele>
        <time>2018-11-15T09:59:01Z</time>
      </trkpt>
      <trkpt lat="48.68249" lon="1.73008">
        <ele>173</ele>
        <time>2018-11-15T09:59:05Z</time>
      </trkpt>
      <trkpt lat="48.68244" lon="1.73015">
        <ele>174</ele>
        <time>2018-11-15T09:59:09Z</time>
      </trkpt>
      <trkpt lat="48.68238" lon="1.73019">
        <ele>174</ele>
        <time>2018-11-15T09:59:13Z</time>
      </trkpt>
      <trkpt lat="48.68232" lon="1.73024">
        <ele>174</ele>
        <time>2018-11-15T09:59:17Z</time>
      </trkpt>
      <trkpt lat="48.68227" lon="1.7303">
        <ele>174</ele>
        <time>2018-11-15T09:59:21Z</time>
      </trkpt>
      <trkpt lat="48.68222" lon="1.73033">
        <ele>174</ele>
        <time>2018-11-15T09:59:25Z</time>
      </trkpt>
      <trkpt lat="48.68218" lon="1.73037">
        <ele>174</ele>
        <time>2018-11-15T09:59:29Z</time>
      </trkpt>
      <trkpt lat="48.68212" lon="1.73042">
        <ele>174</ele>
        <time>2018-11-15T09:59:33Z</time>
      </trkpt>
      <trkpt lat="48.68206" lon="1.73047">
        <ele>174</ele>
        <time>2018-11-15T09:59:37Z</time>
      </trkpt>
      <trkpt lat="48.68201" lon="1.73051">
        <ele>174</ele>
        <time>2018-11-15T09:59:41Z</time>
      </trkpt>
      <trkpt lat="48.68195" lon="1.73056">
        <ele>174</ele>
        <time>2018-11-15T09:59:45Z</time>
      </trkpt>
      <trkpt lat="48.68189" lon="1.7306">
        <ele>174</ele>
        <time>2018-11-15T09:59:49Z</time>
      </trkpt>
      <trkpt lat="48.68184" lon="1.73064">
        <ele>174</ele>
        <time>2018-11-15T09:59:53Z</time>
      </trkpt>
      <trkpt lat="48.68178" lon="1.7307">
        <ele>174</ele>
        <time>2018-11-15T09:59:57Z</time>
      </trkpt>
      <trkpt lat="48.68174" lon="1.73076">
        <ele>174</ele>
        <time>2018-11-15T10:00:01Z</time>
      </trkpt>
      <trkpt lat="48.68168" lon="1.7308">
        <ele>174</ele>
        <time>2018-11-15T10:00:05Z</time>
      </trkpt>
      <trkpt lat="48.68163" lon="1.73085">
        <ele>174</ele>
        <time>2018-11-15T10:00:09Z</time>
      </trkpt>
      <trkpt lat="48.68158" lon="1.73088">
        <ele>174</ele>
        <time>2018-11-15T10:00:13Z</time>
      </trkpt>
      <trkpt lat="48.68154" lon="1.73094">
        <ele>174</ele>
        <time>2018-11-15T10:00:17Z</time>
      </trkpt>
      <trkpt lat="48.68149" lon="1.73097">
        <ele>174</ele>
        <time>2018-11-15T10:00:21Z</time>
      </trkpt>
      <trkpt lat="48.68144" lon="1.731">
        <ele>174</ele>
        <time>2018-11-15T10:00:25Z</time>
      </trkpt>
      <trkpt lat="48.68138" lon="1.73107">
        <ele>174</ele>
        <time>2018-11-15T10:00:29Z</time>
      </trkpt>
      <trkpt lat="48.68132" lon="1.73112">
        <ele>174</ele>
        <time>2018-11-15T10:00:33Z</time>
      </trkpt>
      <trkpt lat="48.68128" lon="1.73115">
        <ele>174</ele>
        <time>2018-11-15T10:00:37Z</time>
      </trkpt>
      <trkpt lat="48.68122" lon="1.73119">
        <ele>174</ele>
        <time>2018-11-15T10:00:41Z</time>
      </trkpt>
      <trkpt lat="48.68118" lon="1.73122">
        <ele>174</ele>
        <time>2018-11-15T10:00:45Z</time>
      </trkpt>
      <trkpt lat="48.68112" lon="1.73126">
        <ele>174</ele>
        <time>2018-11-15T10:00:49Z</time>
      </trkpt>
      <trkpt lat="48.68106" lon="1.73132">
        <ele>174</ele>
        <time>2018-11-15T10:00:53Z</time>
      </trkpt>
      <trkpt lat="48.681" lon="1.73137">
        <ele>174</ele>
        <time>2018-11-15T10:00:57Z</time>
      </trkpt>
      <trkpt lat="48.68094" lon="1.73141">
        <ele>174</ele>
        <time>2018-11-15T10:01:01Z</time>
      </trkpt>
      <trkpt lat="48.68087" lon="1.73146">
        <ele>174</ele>
        <time>2018-11-15T10:01:05Z</time>
      </trkpt>
      <trkpt lat="48.68083" lon="1.73149">
        <ele>175</ele>
        <time>2018-11-15T10:01:07Z</time>
      </trkpt>
      <trkpt lat="48.68077" lon="1.73156">
        <ele>175</ele>
        <time>2018-11-15T10:01:11Z</time>
      </trkpt>
      <trkpt lat="48.68071" lon="1.73159">
        <ele>175</ele>
        <time>2018-11-15T10:01:15Z</time>
      </trkpt>
      <trkpt lat="48.68065" lon="1.73167">
        <ele>175</ele>
        <time>2018-11-15T10:01:19Z</time>
      </trkpt>
      <trkpt lat="48.6806" lon="1.73171">
        <ele>176</ele>
        <time>2018-11-15T10:01:23Z</time>
      </trkpt>
      <trkpt lat="48.68056" lon="1.73175">
        <ele>176</ele>
        <time>2018-11-15T10:01:27Z</time>
      </trkpt>
      <trkpt lat="48.68049" lon="1.73181">
        <ele>176</ele>
        <time>2018-11-15T10:01:31Z</time>
      </trkpt>
      <trkpt lat="48.68044" lon="1.73187">
        <ele>176</ele>
        <time>2018-11-15T10:01:35Z</time>
      </trkpt>
      <trkpt lat="48.68038" lon="1.73193">
        <ele>177</ele>
        <time>2018-11-15T10:01:39Z</time>
      </trkpt>
      <trkpt lat="48.68033" lon="1.73196">
        <ele>177</ele>
        <time>2018-11-15T10:01:43Z</time>
      </trkpt>
      <trkpt lat="48.68027" lon="1.73202">
        <ele>177</ele>
        <time>2018-11-15T10:01:47Z</time>
      </trkpt>
      <trkpt lat="48.68021" lon="1.73206">
        <ele>177</ele>
        <time>2018-11-15T10:01:51Z</time>
      </trkpt>
      <trkpt lat="48.68016" lon="1.7321">
        <ele>177</ele>
        <time>2018-11-15T10:01:55Z</time>
      </trkpt>
      <trkpt lat="48.68011" lon="1.73214">
        <ele>177</ele>
        <time>2018-11-15T10:01:59Z</time>
      </trkpt>
      <trkpt lat="48.68005" lon="1.73221">
        <ele>177</ele>
        <time>2018-11-15T10:02:03Z</time>
      </trkpt>
      <trkpt lat="48.68" lon="1.73226">
        <ele>178</ele>
        <time>2018-11-15T10:02:07Z</time>
      </trkpt>
      <trkpt lat="48.67994" lon="1.73231">
        <ele>178</ele>
        <time>2018-11-15T10:02:11Z</time>
      </trkpt>
      <trkpt lat="48.67988" lon="1.73236">
        <ele>178</ele>
        <time>2018-11-15T10:02:15Z</time>
      </trkpt>
      <trkpt lat="48.67984" lon="1.73239">
        <ele>178</ele>
        <time>2018-11-15T10:02:19Z</time>
      </trkpt>
      <trkpt lat="48.67977" lon="1.73244">
        <ele>178</ele>
        <time>2018-11-15T10:02:25Z</time>
      </trkpt>
      <trkpt lat="48.6797" lon="1.73251">
        <ele>178</ele>
        <time>2018-11-15T10:02:29Z</time>
      </trkpt>
      <trkpt lat="48.67965" lon="1.73258">
        <ele>178</ele>
        <time>2018-11-15T10:02:33Z</time>
      </trkpt>
      <trkpt lat="48.6796" lon="1.73262">
        <ele>177</ele>
        <time>2018-11-15T10:02:37Z</time>
      </trkpt>
      <trkpt lat="48.67953" lon="1.73268">
        <ele>177</ele>
        <time>2018-11-15T10:02:41Z</time>
      </trkpt>
      <trkpt lat="48.67947" lon="1.73272">
        <ele>177</ele>
        <time>2018-11-15T10:02:45Z</time>
      </trkpt>
      <trkpt lat="48.67942" lon="1.73277">
        <ele>177</ele>
        <time>2018-11-15T10:02:49Z</time>
      </trkpt>
      <trkpt lat="48.67937" lon="1.7328">
        <ele>177</ele>
        <time>2018-11-15T10:02:53Z</time>
      </trkpt>
      <trkpt lat="48.67931" lon="1.73285">
        <ele>177</ele>
        <time>2018-11-15T10:02:57Z</time>
      </trkpt>
      <trkpt lat="48.67926" lon="1.7329">
        <ele>177</ele>
        <time>2018-11-15T10:03:01Z</time>
      </trkpt>
      <trkpt lat="48.67922" lon="1.73294">
        <ele>177</ele>
        <time>2018-11-15T10:03:03Z</time>
      </trkpt>
      <trkpt lat="48.67918" lon="1.73298">
        <ele>177</ele>
        <time>2018-11-15T10:03:09Z</time>
      </trkpt>
      <trkpt lat="48.67913" lon="1.73303">
        <ele>178</ele>
        <time>2018-11-15T10:03:13Z</time>
      </trkpt>
      <trkpt lat="48.67907" lon="1.73307">
        <ele>178</ele>
        <time>2018-11-15T10:03:17Z</time>
      </trkpt>
      <trkpt lat="48.679" lon="1.73312">
        <ele>178</ele>
        <time>2018-11-15T10:03:21Z</time>
      </trkpt>
      <trkpt lat="48.67893" lon="1.73317">
        <ele>178</ele>
        <time>2018-11-15T10:03:25Z</time>
      </trkpt>
      <trkpt lat="48.67887" lon="1.73322">
        <ele>178</ele>
        <time>2018-11-15T10:03:29Z</time>
      </trkpt>
      <trkpt lat="48.67882" lon="1.73328">
        <ele>178</ele>
        <time>2018-11-15T10:03:33Z</time>
      </trkpt>
      <trkpt lat="48.67876" lon="1.73332">
        <ele>178</ele>
        <time>2018-11-15T10:03:37Z</time>
      </trkpt>
      <trkpt lat="48.67871" lon="1.73337">
        <ele>178</ele>
        <time>2018-11-15T10:03:41Z</time>
      </trkpt>
      <trkpt lat="48.67864" lon="1.73343">
        <ele>178</ele>
        <time>2018-11-15T10:03:45Z</time>
      </trkpt>
      <trkpt lat="48.67858" lon="1.73349">
        <ele>178</ele>
        <time>2018-11-15T10:03:49Z</time>
      </trkpt>
      <trkpt lat="48.67854" lon="1.73353">
        <ele>178</ele>
        <time>2018-11-15T10:03:51Z</time>
      </trkpt>
      <trkpt lat="48.67847" lon="1.73358">
        <ele>178</ele>
        <time>2018-11-15T10:03:55Z</time>
      </trkpt>
      <trkpt lat="48.67842" lon="1.73363">
        <ele>178</ele>
        <time>2018-11-15T10:03:59Z</time>
      </trkpt>
      <trkpt lat="48.67837" lon="1.73366">
        <ele>178</ele>
        <time>2018-11-15T10:04:03Z</time>
      </trkpt>
      <trkpt lat="48.67832" lon="1.73371">
        <ele>179</ele>
        <time>2018-11-15T10:04:09Z</time>
      </trkpt>
      <trkpt lat="48.67827" lon="1.73374">
        <ele>179</ele>
        <time>2018-11-15T10:04:13Z</time>
      </trkpt>
      <trkpt lat="48.67823" lon="1.73379">
        <ele>179</ele>
        <time>2018-11-15T10:04:17Z</time>
      </trkpt>
      <trkpt lat="48.67819" lon="1.73385">
        <ele>179</ele>
        <time>2018-11-15T10:04:21Z</time>
      </trkpt>
      <trkpt lat="48.67813" lon="1.73388">
        <ele>179</ele>
        <time>2018-11-15T10:04:25Z</time>
      </trkpt>
      <trkpt lat="48.67808" lon="1.73392">
        <ele>179</ele>
        <time>2018-11-15T10:04:33Z</time>
      </trkpt>
      <trkpt lat="48.67802" lon="1.73394">
        <ele>179</ele>
        <time>2018-11-15T10:04:39Z</time>
      </trkpt>
      <trkpt lat="48.67798" lon="1.73397">
        <ele>179</ele>
        <time>2018-11-15T10:05:23Z</time>
      </trkpt>
      <trkpt lat="48.67793" lon="1.73394">
        <ele>179</ele>
        <time>2018-11-15T10:05:49Z</time>
      </trkpt>
      <trkpt lat="48.67788" lon="1.73392">
        <ele>180</ele>
        <time>2018-11-15T10:06:01Z</time>
      </trkpt>
      <trkpt lat="48.67782" lon="1.73387">
        <ele>180</ele>
        <time>2018-11-15T10:06:07Z</time>
      </trkpt>
      <trkpt lat="48.67778" lon="1.73383">
        <ele>180</ele>
        <time>2018-11-15T10:06:11Z</time>
      </trkpt>
      <trkpt lat="48.67771" lon="1.73378">
        <ele>180</ele>
        <time>2018-11-15T10:06:15Z</time>
      </trkpt>
      <trkpt lat="48.67766" lon="1.73374">
        <ele>179</ele>
        <time>2018-11-15T10:06:19Z</time>
      </trkpt>
      <trkpt lat="48.6776" lon="1.73369">
        <ele>179</ele>
        <time>2018-11-15T10:06:25Z</time>
      </trkpt>
      <trkpt lat="48.67755" lon="1.73365">
        <ele>179</ele>
        <time>2018-11-15T10:06:29Z</time>
      </trkpt>
      <trkpt lat="48.67749" lon="1.73364">
        <ele>179</ele>
        <time>2018-11-15T10:06:33Z</time>
      </trkpt>
      <trkpt lat="48.67743" lon="1.73358">
        <ele>179</ele>
        <time>2018-11-15T10:06:37Z</time>
      </trkpt>
      <trkpt lat="48.67739" lon="1.73352">
        <ele>178</ele>
        <time>2018-11-15T10:06:41Z</time>
      </trkpt>
      <trkpt lat="48.67734" lon="1.73342">
        <ele>178</ele>
        <time>2018-11-15T10:06:45Z</time>
      </trkpt>
      <trkpt lat="48.67729" lon="1.73332">
        <ele>177</ele>
        <time>2018-11-15T10:06:49Z</time>
      </trkpt>
      <trkpt lat="48.67728" lon="1.73326">
        <ele>177</ele>
        <time>2018-11-15T10:06:53Z</time>
      </trkpt>
      <trkpt lat="48.67727" lon="1.73318">
        <ele>176</ele>
        <time>2018-11-15T10:06:57Z</time>
      </trkpt>
      <trkpt lat="48.67726" lon="1.73309">
        <ele>176</ele>
        <time>2018-11-15T10:07:01Z</time>
      </trkpt>
      <trkpt lat="48.67724" lon="1.73301">
        <ele>176</ele>
        <time>2018-11-15T10:07:05Z</time>
      </trkpt>
      <trkpt lat="48.67722" lon="1.73291">
        <ele>176</ele>
        <time>2018-11-15T10:07:09Z</time>
      </trkpt>
      <trkpt lat="48.67723" lon="1.73282">
        <ele>176</ele>
        <time>2018-11-15T10:07:15Z</time>
      </trkpt>
      <trkpt lat="48.67722" lon="1.73275">
        <ele>176</ele>
        <time>2018-11-15T10:07:19Z</time>
      </trkpt>
      <trkpt lat="48.67722" lon="1.73267">
        <ele>176</ele>
        <time>2018-11-15T10:07:23Z</time>
      </trkpt>
      <trkpt lat="48.67721" lon="1.7326">
        <ele>176</ele>
        <time>2018-11-15T10:07:27Z</time>
      </trkpt>
      <trkpt lat="48.6772" lon="1.73252">
        <ele>176</ele>
        <time>2018-11-15T10:07:31Z</time>
      </trkpt>
      <trkpt lat="48.6772" lon="1.73245">
        <ele>175</ele>
        <time>2018-11-15T10:07:35Z</time>
      </trkpt>
      <trkpt lat="48.67719" lon="1.73236">
        <ele>175</ele>
        <time>2018-11-15T10:07:39Z</time>
      </trkpt>
      <trkpt lat="48.67718" lon="1.73226">
        <ele>175</ele>
        <time>2018-11-15T10:07:45Z</time>
      </trkpt>
      <trkpt lat="48.67718" lon="1.73218">
        <ele>175</ele>
        <time>2018-11-15T10:07:49Z</time>
      </trkpt>
      <trkpt lat="48.67718" lon="1.73209">
        <ele>175</ele>
        <time>2018-11-15T10:07:53Z</time>
      </trkpt>
      <trkpt lat="48.67715" lon="1.73202">
        <ele>175</ele>
        <time>2018-11-15T10:07:57Z</time>
      </trkpt>
      <trkpt lat="48.67713" lon="1.73194">
        <ele>176</ele>
        <time>2018-11-15T10:08:01Z</time>
      </trkpt>
      <trkpt lat="48.67712" lon="1.73187">
        <ele>176</ele>
        <time>2018-11-15T10:08:05Z</time>
      </trkpt>
      <trkpt lat="48.67708" lon="1.73177">
        <ele>175</ele>
        <time>2018-11-15T10:08:09Z</time>
      </trkpt>
      <trkpt lat="48.67707" lon="1.73166">
        <ele>176</ele>
        <time>2018-11-15T10:08:15Z</time>
      </trkpt>
      <trkpt lat="48.67705" lon="1.73156">
        <ele>176</ele>
        <time>2018-11-15T10:08:19Z</time>
      </trkpt>
      <trkpt lat="48.67704" lon="1.73147">
        <ele>176</ele>
        <time>2018-11-15T10:08:23Z</time>
      </trkpt>
      <trkpt lat="48.67703" lon="1.73138">
        <ele>177</ele>
        <time>2018-11-15T10:08:27Z</time>
      </trkpt>
      <trkpt lat="48.67703" lon="1.73129">
        <ele>177</ele>
        <time>2018-11-15T10:08:31Z</time>
      </trkpt>
      <trkpt lat="48.67701" lon="1.73121">
        <ele>177</ele>
        <time>2018-11-15T10:08:35Z</time>
      </trkpt>
      <trkpt lat="48.677" lon="1.73112">
        <ele>177</ele>
        <time>2018-11-15T10:08:39Z</time>
      </trkpt>
      <trkpt lat="48.67699" lon="1.73105">
        <ele>177</ele>
        <time>2018-11-15T10:08:43Z</time>
      </trkpt>
      <trkpt lat="48.67697" lon="1.73097">
        <ele>177</ele>
        <time>2018-11-15T10:08:47Z</time>
      </trkpt>
      <trkpt lat="48.67694" lon="1.73089">
        <ele>177</ele>
        <time>2018-11-15T10:08:51Z</time>
      </trkpt>
      <trkpt lat="48.67693" lon="1.73078">
        <ele>177</ele>
        <time>2018-11-15T10:08:55Z</time>
      </trkpt>
      <trkpt lat="48.67691" lon="1.73067">
        <ele>178</ele>
        <time>2018-11-15T10:08:59Z</time>
      </trkpt>
      <trkpt lat="48.6769" lon="1.73059">
        <ele>178</ele>
        <time>2018-11-15T10:09:03Z</time>
      </trkpt>
      <trkpt lat="48.67689" lon="1.7305">
        <ele>178</ele>
        <time>2018-11-15T10:09:07Z</time>
      </trkpt>
      <trkpt lat="48.67687" lon="1.73039">
        <ele>178</ele>
        <time>2018-11-15T10:09:11Z</time>
      </trkpt>
      <trkpt lat="48.67688" lon="1.73028">
        <ele>178</ele>
        <time>2018-11-15T10:09:17Z</time>
      </trkpt>
      <trkpt lat="48.67688" lon="1.73018">
        <ele>178</ele>
        <time>2018-11-15T10:09:21Z</time>
      </trkpt>
      <trkpt lat="48.67686" lon="1.73011">
        <ele>178</ele>
        <time>2018-11-15T10:09:25Z</time>
      </trkpt>
      <trkpt lat="48.67686" lon="1.73002">
        <ele>178</ele>
        <time>2018-11-15T10:09:29Z</time>
      </trkpt>
      <trkpt lat="48.67686" lon="1.72995">
        <ele>179</ele>
        <time>2018-11-15T10:09:33Z</time>
      </trkpt>
      <trkpt lat="48.67683" lon="1.72985">
        <ele>179</ele>
        <time>2018-11-15T10:09:39Z</time>
      </trkpt>
      <trkpt lat="48.6768" lon="1.72975">
        <ele>180</ele>
        <time>2018-11-15T10:09:43Z</time>
      </trkpt>
      <trkpt lat="48.67677" lon="1.72965">
        <ele>180</ele>
        <time>2018-11-15T10:09:47Z</time>
      </trkpt>
      <trkpt lat="48.67677" lon="1.72958">
        <ele>180</ele>
        <time>2018-11-15T10:09:51Z</time>
      </trkpt>
      <trkpt lat="48.67673" lon="1.72949">
        <ele>181</ele>
        <time>2018-11-15T10:09:55Z</time>
      </trkpt>
      <trkpt lat="48.67671" lon="1.72938">
        <ele>181</ele>
        <time>2018-11-15T10:10:01Z</time>
      </trkpt>
      <trkpt lat="48.67671" lon="1.72931">
        <ele>181</ele>
        <time>2018-11-15T10:10:03Z</time>
      </trkpt>
      <trkpt lat="48.6767" lon="1.72922">
        <ele>181</ele>
        <time>2018-11-15T10:10:07Z</time>
      </trkpt>
      <trkpt lat="48.67668" lon="1.72913">
        <ele>181</ele>
        <time>2018-11-15T10:10:11Z</time>
      </trkpt>
      <trkpt lat="48.67667" lon="1.72905">
        <ele>182</ele>
        <time>2018-11-15T10:10:13Z</time>
      </trkpt>
      <trkpt lat="48.67665" lon="1.72898">
        <ele>180</ele>
        <time>2018-11-15T10:10:17Z</time>
      </trkpt>
      <trkpt lat="48.67663" lon="1.72891">
        <ele>180</ele>
        <time>2018-11-15T10:10:21Z</time>
      </trkpt>
      <trkpt lat="48.67662" lon="1.72882">
        <ele>179</ele>
        <time>2018-11-15T10:10:25Z</time>
      </trkpt>
      <trkpt lat="48.67662" lon="1.72873">
        <ele>179</ele>
        <time>2018-11-15T10:10:35Z</time>
      </trkpt>
      <trkpt lat="48.67661" lon="1.72864">
        <ele>179</ele>
        <time>2018-11-15T10:10:39Z</time>
      </trkpt>
      <trkpt lat="48.67659" lon="1.72855">
        <ele>180</ele>
        <time>2018-11-15T10:10:43Z</time>
      </trkpt>
      <trkpt lat="48.67657" lon="1.72844">
        <ele>180</ele>
        <time>2018-11-15T10:10:47Z</time>
      </trkpt>
      <trkpt lat="48.67656" lon="1.72835">
        <ele>180</ele>
        <time>2018-11-15T10:10:51Z</time>
      </trkpt>
      <trkpt lat="48.67654" lon="1.72828">
        <ele>179</ele>
        <time>2018-11-15T10:10:53Z</time>
      </trkpt>
      <trkpt lat="48.67652" lon="1.72816">
        <ele>179</ele>
        <time>2018-11-15T10:10:57Z</time>
      </trkpt>
      <trkpt lat="48.67651" lon="1.72805">
        <ele>178</ele>
        <time>2018-11-15T10:11:01Z</time>
      </trkpt>
      <trkpt lat="48.67649" lon="1.72796">
        <ele>178</ele>
        <time>2018-11-15T10:11:05Z</time>
      </trkpt>
      <trkpt lat="48.67647" lon="1.72785">
        <ele>178</ele>
        <time>2018-11-15T10:11:09Z</time>
      </trkpt>
      <trkpt lat="48.67646" lon="1.72776">
        <ele>178</ele>
        <time>2018-11-15T10:11:13Z</time>
      </trkpt>
      <trkpt lat="48.67645" lon="1.72768">
        <ele>177</ele>
        <time>2018-11-15T10:11:17Z</time>
      </trkpt>
      <trkpt lat="48.67643" lon="1.72758">
        <ele>177</ele>
        <time>2018-11-15T10:11:21Z</time>
      </trkpt>
      <trkpt lat="48.67642" lon="1.72748">
        <ele>175</ele>
        <time>2018-11-15T10:11:25Z</time>
      </trkpt>
      <trkpt lat="48.67641" lon="1.72741">
        <ele>175</ele>
        <time>2018-11-15T10:11:29Z</time>
      </trkpt>
      <trkpt lat="48.6764" lon="1.72733">
        <ele>175</ele>
        <time>2018-11-15T10:11:33Z</time>
      </trkpt>
      <trkpt lat="48.67641" lon="1.72725">
        <ele>175</ele>
        <time>2018-11-15T10:11:37Z</time>
      </trkpt>
      <trkpt lat="48.67638" lon="1.72715">
        <ele>174</ele>
        <time>2018-11-15T10:11:41Z</time>
      </trkpt>
      <trkpt lat="48.67637" lon="1.72707">
        <ele>174</ele>
        <time>2018-11-15T10:11:45Z</time>
      </trkpt>
      <trkpt lat="48.67636" lon="1.72698">
        <ele>174</ele>
        <time>2018-11-15T10:11:49Z</time>
      </trkpt>
      <trkpt lat="48.67635" lon="1.72687">
        <ele>173</ele>
        <time>2018-11-15T10:11:53Z</time>
      </trkpt>
      <trkpt lat="48.67634" lon="1.72679">
        <ele>173</ele>
        <time>2018-11-15T10:11:55Z</time>
      </trkpt>
      <trkpt lat="48.67633" lon="1.72669">
        <ele>173</ele>
        <time>2018-11-15T10:11:59Z</time>
      </trkpt>
      <trkpt lat="48.6763" lon="1.72661">
        <ele>172</ele>
        <time>2018-11-15T10:12:03Z</time>
      </trkpt>
      <trkpt lat="48.67629" lon="1.72652">
        <ele>172</ele>
        <time>2018-11-15T10:12:07Z</time>
      </trkpt>
      <trkpt lat="48.67627" lon="1.72642">
        <ele>172</ele>
        <time>2018-11-15T10:12:11Z</time>
      </trkpt>
      <trkpt lat="48.67627" lon="1.72632">
        <ele>172</ele>
        <time>2018-11-15T10:12:15Z</time>
      </trkpt>
      <trkpt lat="48.67626" lon="1.72624">
        <ele>172</ele>
        <time>2018-11-15T10:12:21Z</time>
      </trkpt>
      <trkpt lat="48.67625" lon="1.72615">
        <ele>171</ele>
        <time>2018-11-15T10:12:25Z</time>
      </trkpt>
      <trkpt lat="48.67622" lon="1.72606">
        <ele>171</ele>
        <time>2018-11-15T10:12:29Z</time>
      </trkpt>
      <trkpt lat="48.67618" lon="1.72596">
        <ele>171</ele>
        <time>2018-11-15T10:12:33Z</time>
      </trkpt>
      <trkpt lat="48.67616" lon="1.72586">
        <ele>171</ele>
        <time>2018-11-15T10:12:37Z</time>
      </trkpt>
      <trkpt lat="48.67617" lon="1.72579">
        <ele>171</ele>
        <time>2018-11-15T10:12:41Z</time>
      </trkpt>
      <trkpt lat="48.67617" lon="1.72568">
        <ele>171</ele>
        <time>2018-11-15T10:12:45Z</time>
      </trkpt>
      <trkpt lat="48.67616" lon="1.72558">
        <ele>171</ele>
        <time>2018-11-15T10:12:49Z</time>
      </trkpt>
      <trkpt lat="48.67614" lon="1.72551">
        <ele>171</ele>
        <time>2018-11-15T10:12:53Z</time>
      </trkpt>
      <trkpt lat="48.67612" lon="1.72542">
        <ele>171</ele>
        <time>2018-11-15T10:12:59Z</time>
      </trkpt>
      <trkpt lat="48.67611" lon="1.72535">
        <ele>171</ele>
        <time>2018-11-15T10:13:03Z</time>
      </trkpt>
      <trkpt lat="48.6761" lon="1.72527">
        <ele>171</ele>
        <time>2018-11-15T10:13:07Z</time>
      </trkpt>
      <trkpt lat="48.67609" lon="1.72513">
        <ele>171</ele>
        <time>2018-11-15T10:13:13Z</time>
      </trkpt>
      <trkpt lat="48.67607" lon="1.72499">
        <ele>170</ele>
        <time>2018-11-15T10:13:17Z</time>
      </trkpt>
      <trkpt lat="48.67605" lon="1.72489">
        <ele>170</ele>
        <time>2018-11-15T10:13:21Z</time>
      </trkpt>
      <trkpt lat="48.67603" lon="1.72481">
        <ele>170</ele>
        <time>2018-11-15T10:13:25Z</time>
      </trkpt>
      <trkpt lat="48.67602" lon="1.7247">
        <ele>170</ele>
        <time>2018-11-15T10:13:31Z</time>
      </trkpt>
      <trkpt lat="48.67599" lon="1.72461">
        <ele>170</ele>
        <time>2018-11-15T10:13:35Z</time>
      </trkpt>
      <trkpt lat="48.67599" lon="1.72454">
        <ele>170</ele>
        <time>2018-11-15T10:13:39Z</time>
      </trkpt>
      <trkpt lat="48.67596" lon="1.72441">
        <ele>170</ele>
        <time>2018-11-15T10:13:43Z</time>
      </trkpt>
      <trkpt lat="48.67595" lon="1.72433">
        <ele>170</ele>
        <time>2018-11-15T10:13:45Z</time>
      </trkpt>
      <trkpt lat="48.67593" lon="1.72424">
        <ele>170</ele>
        <time>2018-11-15T10:13:49Z</time>
      </trkpt>
      <trkpt lat="48.67591" lon="1.72416">
        <ele>169</ele>
        <time>2018-11-15T10:13:53Z</time>
      </trkpt>
      <trkpt lat="48.67588" lon="1.72409">
        <ele>169</ele>
        <time>2018-11-15T10:13:57Z</time>
      </trkpt>
      <trkpt lat="48.67588" lon="1.72401">
        <ele>169</ele>
        <time>2018-11-15T10:14:01Z</time>
      </trkpt>
      <trkpt lat="48.67587" lon="1.72392">
        <ele>169</ele>
        <time>2018-11-15T10:14:11Z</time>
      </trkpt>
      <trkpt lat="48.67585" lon="1.72384">
        <ele>169</ele>
        <time>2018-11-15T10:14:15Z</time>
      </trkpt>
      <trkpt lat="48.67585" lon="1.72375">
        <ele>169</ele>
        <time>2018-11-15T10:14:19Z</time>
      </trkpt>
      <trkpt lat="48.67585" lon="1.72366">
        <ele>168</ele>
        <time>2018-11-15T10:14:23Z</time>
      </trkpt>
      <trkpt lat="48.67583" lon="1.72356">
        <ele>167</ele>
        <time>2018-11-15T10:14:25Z</time>
      </trkpt>
      <trkpt lat="48.67581" lon="1.72343">
        <ele>167</ele>
        <time>2018-11-15T10:14:29Z</time>
      </trkpt>
      <trkpt lat="48.67581" lon="1.72333">
        <ele>167</ele>
        <time>2018-11-15T10:14:33Z</time>
      </trkpt>
      <trkpt lat="48.67579" lon="1.72323">
        <ele>166</ele>
        <time>2018-11-15T10:14:37Z</time>
      </trkpt>
      <trkpt lat="48.67576" lon="1.72315">
        <ele>166</ele>
        <time>2018-11-15T10:14:41Z</time>
      </trkpt>
      <trkpt lat="48.67575" lon="1.72305">
        <ele>166</ele>
        <time>2018-11-15T10:14:45Z</time>
      </trkpt>
      <trkpt lat="48.67572" lon="1.72293">
        <ele>166</ele>
        <time>2018-11-15T10:14:49Z</time>
      </trkpt>
      <trkpt lat="48.6757" lon="1.72285">
        <ele>166</ele>
        <time>2018-11-15T10:14:53Z</time>
      </trkpt>
      <trkpt lat="48.6757" lon="1.72277">
        <ele>166</ele>
        <time>2018-11-15T10:14:57Z</time>
      </trkpt>
      <trkpt lat="48.67568" lon="1.72267">
        <ele>166</ele>
        <time>2018-11-15T10:15:01Z</time>
      </trkpt>
      <trkpt lat="48.67567" lon="1.72259">
        <ele>166</ele>
        <time>2018-11-15T10:15:07Z</time>
      </trkpt>
      <trkpt lat="48.67567" lon="1.7225">
        <ele>166</ele>
        <time>2018-11-15T10:15:11Z</time>
      </trkpt>
      <trkpt lat="48.67567" lon="1.72242">
        <ele>166</ele>
        <time>2018-11-15T10:15:15Z</time>
      </trkpt>
      <trkpt lat="48.67565" lon="1.72231">
        <ele>165</ele>
        <time>2018-11-15T10:15:23Z</time>
      </trkpt>
      <trkpt lat="48.67563" lon="1.72222">
        <ele>165</ele>
        <time>2018-11-15T10:15:33Z</time>
      </trkpt>
      <trkpt lat="48.67561" lon="1.72215">
        <ele>165</ele>
        <time>2018-11-15T10:15:39Z</time>
      </trkpt>
      <trkpt lat="48.67559" lon="1.72204">
        <ele>164</ele>
        <time>2018-11-15T10:15:45Z</time>
      </trkpt>
      <trkpt lat="48.67558" lon="1.72198">
        <ele>164</ele>
        <time>2018-11-15T10:15:51Z</time>
      </trkpt>
      <trkpt lat="48.67556" lon="1.72188">
        <ele>164</ele>
        <time>2018-11-15T10:15:55Z</time>
      </trkpt>
      <trkpt lat="48.67554" lon="1.72179">
        <ele>164</ele>
        <time>2018-11-15T10:15:59Z</time>
      </trkpt>
      <trkpt lat="48.67553" lon="1.7217">
        <ele>164</ele>
        <time>2018-11-15T10:16:03Z</time>
      </trkpt>
      <trkpt lat="48.67553" lon="1.72159">
        <ele>163</ele>
        <time>2018-11-15T10:16:09Z</time>
      </trkpt>
      <trkpt lat="48.6755" lon="1.72148">
        <ele>163</ele>
        <time>2018-11-15T10:16:15Z</time>
      </trkpt>
      <trkpt lat="48.67548" lon="1.72139">
        <ele>163</ele>
        <time>2018-11-15T10:16:19Z</time>
      </trkpt>
      <trkpt lat="48.67547" lon="1.72128">
        <ele>163</ele>
        <time>2018-11-15T10:16:25Z</time>
      </trkpt>
      <trkpt lat="48.67546" lon="1.7212">
        <ele>163</ele>
        <time>2018-11-15T10:16:29Z</time>
      </trkpt>
      <trkpt lat="48.67545" lon="1.72113">
        <ele>163</ele>
        <time>2018-11-15T10:16:33Z</time>
      </trkpt>
      <trkpt lat="48.67545" lon="1.72103">
        <ele>163</ele>
        <time>2018-11-15T10:16:37Z</time>
      </trkpt>
      <trkpt lat="48.67543" lon="1.72092">
        <ele>162</ele>
        <time>2018-11-15T10:16:41Z</time>
      </trkpt>
      <trkpt lat="48.67542" lon="1.72084">
        <ele>162</ele>
        <time>2018-11-15T10:16:43Z</time>
      </trkpt>
      <trkpt lat="48.6754" lon="1.72077">
        <ele>162</ele>
        <time>2018-11-15T10:16:47Z</time>
      </trkpt>
      <trkpt lat="48.67538" lon="1.72067">
        <ele>162</ele>
        <time>2018-11-15T10:16:49Z</time>
      </trkpt>
      <trkpt lat="48.67536" lon="1.72059">
        <ele>162</ele>
        <time>2018-11-15T10:16:51Z</time>
      </trkpt>
      <trkpt lat="48.67535" lon="1.72049">
        <ele>162</ele>
        <time>2018-11-15T10:16:55Z</time>
      </trkpt>
      <trkpt lat="48.67534" lon="1.72041">
        <ele>162</ele>
        <time>2018-11-15T10:16:57Z</time>
      </trkpt>
      <trkpt lat="48.67533" lon="1.72033">
        <ele>161</ele>
        <time>2018-11-15T10:16:59Z</time>
      </trkpt>
      <trkpt lat="48.67532" lon="1.72025">
        <ele>161</ele>
        <time>2018-11-15T10:17:03Z</time>
      </trkpt>
      <trkpt lat="48.67531" lon="1.72014">
        <ele>161</ele>
        <time>2018-11-15T10:17:07Z</time>
      </trkpt>
      <trkpt lat="48.6753" lon="1.72007">
        <ele>161</ele>
        <time>2018-11-15T10:17:09Z</time>
      </trkpt>
      <trkpt lat="48.67528" lon="1.71996">
        <ele>161</ele>
        <time>2018-11-15T10:17:13Z</time>
      </trkpt>
      <trkpt lat="48.67525" lon="1.71988">
        <ele>161</ele>
        <time>2018-11-15T10:17:17Z</time>
      </trkpt>
      <trkpt lat="48.67522" lon="1.71977">
        <ele>161</ele>
        <time>2018-11-15T10:17:21Z</time>
      </trkpt>
      <trkpt lat="48.67521" lon="1.7197">
        <ele>161</ele>
        <time>2018-11-15T10:17:25Z</time>
      </trkpt>
      <trkpt lat="48.6752" lon="1.71962">
        <ele>160</ele>
        <time>2018-11-15T10:17:29Z</time>
      </trkpt>
      <trkpt lat="48.6752" lon="1.71954">
        <ele>160</ele>
        <time>2018-11-15T10:17:33Z</time>
      </trkpt>
      <trkpt lat="48.67519" lon="1.71946">
        <ele>160</ele>
        <time>2018-11-15T10:17:39Z</time>
      </trkpt>
      <trkpt lat="48.67517" lon="1.71938">
        <ele>160</ele>
        <time>2018-11-15T10:17:43Z</time>
      </trkpt>
      <trkpt lat="48.67516" lon="1.71932">
        <ele>160</ele>
        <time>2018-11-15T10:17:49Z</time>
      </trkpt>
      <trkpt lat="48.67517" lon="1.71923">
        <ele>160</ele>
        <time>2018-11-15T10:17:55Z</time>
      </trkpt>
      <trkpt lat="48.6752" lon="1.71915">
        <ele>159</ele>
        <time>2018-11-15T10:17:59Z</time>
      </trkpt>
      <trkpt lat="48.67517" lon="1.71904">
        <ele>159</ele>
        <time>2018-11-15T10:18:05Z</time>
      </trkpt>
      <trkpt lat="48.67514" lon="1.71899">
        <ele>159</ele>
        <time>2018-11-15T10:18:23Z</time>
      </trkpt>
      <trkpt lat="48.67517" lon="1.71894">
        <ele>159</ele>
        <time>2018-11-15T10:19:29Z</time>
      </trkpt>
      <trkpt lat="48.67512" lon="1.7189">
        <ele>159</ele>
        <time>2018-11-15T10:21:15Z</time>
      </trkpt>
      <trkpt lat="48.67506" lon="1.71886">
        <ele>159</ele>
        <time>2018-11-15T10:21:19Z</time>
      </trkpt>
      <trkpt lat="48.67502" lon="1.71882">
        <ele>159</ele>
        <time>2018-11-15T10:21:23Z</time>
      </trkpt>
      <trkpt lat="48.67497" lon="1.71876">
        <ele>159</ele>
        <time>2018-11-15T10:21:31Z</time>
      </trkpt>
      <trkpt lat="48.67491" lon="1.7187">
        <ele>159</ele>
        <time>2018-11-15T10:21:35Z</time>
      </trkpt>
      <trkpt lat="48.67486" lon="1.71862">
        <ele>159</ele>
        <time>2018-11-15T10:21:39Z</time>
      </trkpt>
      <trkpt lat="48.67482" lon="1.71858">
        <ele>159</ele>
        <time>2018-11-15T10:21:43Z</time>
      </trkpt>
      <trkpt lat="48.67477" lon="1.71853">
        <ele>159</ele>
        <time>2018-11-15T10:21:47Z</time>
      </trkpt>
      <trkpt lat="48.67473" lon="1.71847">
        <ele>159</ele>
        <time>2018-11-15T10:21:53Z</time>
      </trkpt>
      <trkpt lat="48.67467" lon="1.71845">
        <ele>159</ele>
        <time>2018-11-15T10:21:59Z</time>
      </trkpt>
      <trkpt lat="48.67463" lon="1.7184">
        <ele>159</ele>
        <time>2018-11-15T10:22:03Z</time>
      </trkpt>
      <trkpt lat="48.67458" lon="1.71833">
        <ele>161</ele>
        <time>2018-11-15T10:22:07Z</time>
      </trkpt>
      <trkpt lat="48.67453" lon="1.71826">
        <ele>161</ele>
        <time>2018-11-15T10:22:11Z</time>
      </trkpt>
      <trkpt lat="48.67448" lon="1.71821">
        <ele>161</ele>
        <time>2018-11-15T10:22:17Z</time>
      </trkpt>
      <trkpt lat="48.67444" lon="1.71815">
        <ele>161</ele>
        <time>2018-11-15T10:22:21Z</time>
      </trkpt>
      <trkpt lat="48.6744" lon="1.71808">
        <ele>161</ele>
        <time>2018-11-15T10:22:25Z</time>
      </trkpt>
      <trkpt lat="48.67435" lon="1.71801">
        <ele>162</ele>
        <time>2018-11-15T10:22:29Z</time>
      </trkpt>
      <trkpt lat="48.67431" lon="1.71796">
        <ele>162</ele>
        <time>2018-11-15T10:22:33Z</time>
      </trkpt>
      <trkpt lat="48.67428" lon="1.71791">
        <ele>162</ele>
        <time>2018-11-15T10:22:37Z</time>
      </trkpt>
      <trkpt lat="48.67423" lon="1.71786">
        <ele>162</ele>
        <time>2018-11-15T10:22:41Z</time>
      </trkpt>
      <trkpt lat="48.67418" lon="1.71779">
        <ele>163</ele>
        <time>2018-11-15T10:22:45Z</time>
      </trkpt>
      <trkpt lat="48.67413" lon="1.71774">
        <ele>163</ele>
        <time>2018-11-15T10:22:51Z</time>
      </trkpt>
      <trkpt lat="48.67409" lon="1.71769">
        <ele>163</ele>
        <time>2018-11-15T10:22:55Z</time>
      </trkpt>
      <trkpt lat="48.67405" lon="1.71764">
        <ele>163</ele>
        <time>2018-11-15T10:22:59Z</time>
      </trkpt>
      <trkpt lat="48.67401" lon="1.71758">
        <ele>163</ele>
        <time>2018-11-15T10:23:03Z</time>
      </trkpt>
      <trkpt lat="48.67397" lon="1.71754">
        <ele>163</ele>
        <time>2018-11-15T10:23:07Z</time>
      </trkpt>
      <trkpt lat="48.67392" lon="1.71749">
        <ele>166</ele>
        <time>2018-11-15T10:23:11Z</time>
      </trkpt>
      <trkpt lat="48.67388" lon="1.71743">
        <ele>166</ele>
        <time>2018-11-15T10:23:15Z</time>
      </trkpt>
      <trkpt lat="48.67383" lon="1.71739">
        <ele>166</ele>
        <time>2018-11-15T10:23:19Z</time>
      </trkpt>
      <trkpt lat="48.67377" lon="1.71732">
        <ele>166</ele>
        <time>2018-11-15T10:23:23Z</time>
      </trkpt>
      <trkpt lat="48.67373" lon="1.71726">
        <ele>167</ele>
        <time>2018-11-15T10:23:27Z</time>
      </trkpt>
      <trkpt lat="48.67367" lon="1.7172">
        <ele>167</ele>
        <time>2018-11-15T10:23:31Z</time>
      </trkpt>
      <trkpt lat="48.67364" lon="1.71714">
        <ele>167</ele>
        <time>2018-11-15T10:23:35Z</time>
      </trkpt>
      <trkpt lat="48.6736" lon="1.71709">
        <ele>167</ele>
        <time>2018-11-15T10:23:39Z</time>
      </trkpt>
      <trkpt lat="48.67355" lon="1.71706">
        <ele>167</ele>
        <time>2018-11-15T10:23:43Z</time>
      </trkpt>
      <trkpt lat="48.6735" lon="1.71709">
        <ele>167</ele>
        <time>2018-11-15T10:23:47Z</time>
      </trkpt>
      <trkpt lat="48.67346" lon="1.71709">
        <ele>167</ele>
        <time>2018-11-15T10:23:51Z</time>
      </trkpt>
      <trkpt lat="48.6734" lon="1.71712">
        <ele>167</ele>
        <time>2018-11-15T10:23:55Z</time>
      </trkpt>
      <trkpt lat="48.67334" lon="1.71714">
        <ele>166</ele>
        <time>2018-11-15T10:23:59Z</time>
      </trkpt>
      <trkpt lat="48.67329" lon="1.71716">
        <ele>163</ele>
        <time>2018-11-15T10:24:03Z</time>
      </trkpt>
      <trkpt lat="48.67324" lon="1.71718">
        <ele>163</ele>
        <time>2018-11-15T10:24:07Z</time>
      </trkpt>
      <trkpt lat="48.67319" lon="1.71719">
        <ele>163</ele>
        <time>2018-11-15T10:24:11Z</time>
      </trkpt>
      <trkpt lat="48.67312" lon="1.71722">
        <ele>163</ele>
        <time>2018-11-15T10:24:15Z</time>
      </trkpt>
      <trkpt lat="48.67306" lon="1.71724">
        <ele>163</ele>
        <time>2018-11-15T10:24:19Z</time>
      </trkpt>
      <trkpt lat="48.67301" lon="1.71726">
        <ele>162</ele>
        <time>2018-11-15T10:24:23Z</time>
      </trkpt>
      <trkpt lat="48.67296" lon="1.71729">
        <ele>162</ele>
        <time>2018-11-15T10:24:27Z</time>
      </trkpt>
      <trkpt lat="48.6729" lon="1.7173">
        <ele>162</ele>
        <time>2018-11-15T10:24:31Z</time>
      </trkpt>
      <trkpt lat="48.67285" lon="1.71731">
        <ele>162</ele>
        <time>2018-11-15T10:24:35Z</time>
      </trkpt>
      <trkpt lat="48.67279" lon="1.71733">
        <ele>161</ele>
        <time>2018-11-15T10:24:39Z</time>
      </trkpt>
      <trkpt lat="48.67274" lon="1.71734">
        <ele>161</ele>
        <time>2018-11-15T10:24:43Z</time>
      </trkpt>
      <trkpt lat="48.67269" lon="1.71735">
        <ele>160</ele>
        <time>2018-11-15T10:24:47Z</time>
      </trkpt>
      <trkpt lat="48.67264" lon="1.71738">
        <ele>160</ele>
        <time>2018-11-15T10:24:51Z</time>
      </trkpt>
      <trkpt lat="48.67258" lon="1.71739">
        <ele>159</ele>
        <time>2018-11-15T10:24:55Z</time>
      </trkpt>
      <trkpt lat="48.67252" lon="1.7174">
        <ele>159</ele>
        <time>2018-11-15T10:24:59Z</time>
      </trkpt>
      <trkpt lat="48.67247" lon="1.71741">
        <ele>157</ele>
        <time>2018-11-15T10:25:03Z</time>
      </trkpt>
      <trkpt lat="48.67242" lon="1.71744">
        <ele>157</ele>
        <time>2018-11-15T10:25:07Z</time>
      </trkpt>
      <trkpt lat="48.67237" lon="1.71748">
        <ele>157</ele>
        <time>2018-11-15T10:25:11Z</time>
      </trkpt>
      <trkpt lat="48.67232" lon="1.7175">
        <ele>157</ele>
        <time>2018-11-15T10:25:15Z</time>
      </trkpt>
      <trkpt lat="48.67226" lon="1.71752">
        <ele>156</ele>
        <time>2018-11-15T10:25:21Z</time>
      </trkpt>
      <trkpt lat="48.6722" lon="1.71754">
        <ele>156</ele>
        <time>2018-11-15T10:25:25Z</time>
      </trkpt>
      <trkpt lat="48.67215" lon="1.71755">
        <ele>156</ele>
        <time>2018-11-15T10:25:29Z</time>
      </trkpt>
      <trkpt lat="48.67208" lon="1.71757">
        <ele>156</ele>
        <time>2018-11-15T10:25:33Z</time>
      </trkpt>
      <trkpt lat="48.67203" lon="1.71759">
        <ele>156</ele>
        <time>2018-11-15T10:25:37Z</time>
      </trkpt>
      <trkpt lat="48.67198" lon="1.71761">
        <ele>156</ele>
        <time>2018-11-15T10:25:41Z</time>
      </trkpt>
      <trkpt lat="48.67194" lon="1.71764">
        <ele>156</ele>
        <time>2018-11-15T10:25:45Z</time>
      </trkpt>
      <trkpt lat="48.67189" lon="1.71766">
        <ele>156</ele>
        <time>2018-11-15T10:25:49Z</time>
      </trkpt>
      <trkpt lat="48.67184" lon="1.71767">
        <ele>155</ele>
        <time>2018-11-15T10:25:53Z</time>
      </trkpt>
      <trkpt lat="48.67179" lon="1.71768">
        <ele>155</ele>
        <time>2018-11-15T10:25:57Z</time>
      </trkpt>
      <trkpt lat="48.67174" lon="1.71772">
        <ele>155</ele>
        <time>2018-11-15T10:26:03Z</time>
      </trkpt>
      <trkpt lat="48.67168" lon="1.71774">
        <ele>155</ele>
        <time>2018-11-15T10:26:07Z</time>
      </trkpt>
      <trkpt lat="48.67162" lon="1.71778">
        <ele>153</ele>
        <time>2018-11-15T10:26:13Z</time>
      </trkpt>
      <trkpt lat="48.67157" lon="1.7178">
        <ele>153</ele>
        <time>2018-11-15T10:26:17Z</time>
      </trkpt>
      <trkpt lat="48.67151" lon="1.71781">
        <ele>153</ele>
        <time>2018-11-15T10:26:21Z</time>
      </trkpt>
      <trkpt lat="48.67146" lon="1.71783">
        <ele>153</ele>
        <time>2018-11-15T10:26:25Z</time>
      </trkpt>
      <trkpt lat="48.6714" lon="1.71786">
        <ele>152</ele>
        <time>2018-11-15T10:26:29Z</time>
      </trkpt>
      <trkpt lat="48.67134" lon="1.71788">
        <ele>152</ele>
        <time>2018-11-15T10:26:33Z</time>
      </trkpt>
      <trkpt lat="48.67128" lon="1.7179">
        <ele>152</ele>
        <time>2018-11-15T10:26:37Z</time>
      </trkpt>
      <trkpt lat="48.67122" lon="1.71792">
        <ele>152</ele>
        <time>2018-11-15T10:26:41Z</time>
      </trkpt>
      <trkpt lat="48.67117" lon="1.71793">
        <ele>152</ele>
        <time>2018-11-15T10:26:45Z</time>
      </trkpt>
      <trkpt lat="48.67112" lon="1.71796">
        <ele>152</ele>
        <time>2018-11-15T10:26:49Z</time>
      </trkpt>
      <trkpt lat="48.67107" lon="1.71798">
        <ele>151</ele>
        <time>2018-11-15T10:26:53Z</time>
      </trkpt>
      <trkpt lat="48.67101" lon="1.718">
        <ele>151</ele>
        <time>2018-11-15T10:26:57Z</time>
      </trkpt>
      <trkpt lat="48.67096" lon="1.71802">
        <ele>151</ele>
        <time>2018-11-15T10:27:01Z</time>
      </trkpt>
      <trkpt lat="48.67092" lon="1.71805">
        <ele>151</ele>
        <time>2018-11-15T10:27:05Z</time>
      </trkpt>
      <trkpt lat="48.67086" lon="1.71807">
        <ele>151</ele>
        <time>2018-11-15T10:27:09Z</time>
      </trkpt>
      <trkpt lat="48.67082" lon="1.71809">
        <ele>148</ele>
        <time>2018-11-15T10:27:13Z</time>
      </trkpt>
      <trkpt lat="48.67075" lon="1.71812">
        <ele>148</ele>
        <time>2018-11-15T10:27:17Z</time>
      </trkpt>
      <trkpt lat="48.67069" lon="1.71815">
        <ele>148</ele>
        <time>2018-11-15T10:27:21Z</time>
      </trkpt>
      <trkpt lat="48.67064" lon="1.71816">
        <ele>148</ele>
        <time>2018-11-15T10:27:25Z</time>
      </trkpt>
      <trkpt lat="48.67058" lon="1.71818">
        <ele>148</ele>
        <time>2018-11-15T10:27:29Z</time>
      </trkpt>
      <trkpt lat="48.67052" lon="1.71822">
        <ele>148</ele>
        <time>2018-11-15T10:27:33Z</time>
      </trkpt>
      <trkpt lat="48.67046" lon="1.71823">
        <ele>148</ele>
        <time>2018-11-15T10:27:37Z</time>
      </trkpt>
      <trkpt lat="48.67041" lon="1.71825">
        <ele>147</ele>
        <time>2018-11-15T10:27:41Z</time>
      </trkpt>
      <trkpt lat="48.67036" lon="1.71827">
        <ele>147</ele>
        <time>2018-11-15T10:27:45Z</time>
      </trkpt>
      <trkpt lat="48.67031" lon="1.71829">
        <ele>147</ele>
        <time>2018-11-15T10:27:49Z</time>
      </trkpt>
      <trkpt lat="48.67025" lon="1.71831">
        <ele>147</ele>
        <time>2018-11-15T10:27:53Z</time>
      </trkpt>
      <trkpt lat="48.6702" lon="1.71834">
        <ele>147</ele>
        <time>2018-11-15T10:27:57Z</time>
      </trkpt>
      <trkpt lat="48.67015" lon="1.71836">
        <ele>146</ele>
        <time>2018-11-15T10:28:01Z</time>
      </trkpt>
      <trkpt lat="48.6701" lon="1.71839">
        <ele>146</ele>
        <time>2018-11-15T10:28:05Z</time>
      </trkpt>
      <trkpt lat="48.67004" lon="1.71841">
        <ele>146</ele>
        <time>2018-11-15T10:28:09Z</time>
      </trkpt>
      <trkpt lat="48.66999" lon="1.71843">
        <ele>146</ele>
        <time>2018-11-15T10:28:13Z</time>
      </trkpt>
      <trkpt lat="48.66994" lon="1.71846">
        <ele>146</ele>
        <time>2018-11-15T10:28:17Z</time>
      </trkpt>
      <trkpt lat="48.66989" lon="1.71847">
        <ele>147</ele>
        <time>2018-11-15T10:28:21Z</time>
      </trkpt>
      <trkpt lat="48.66983" lon="1.71849">
        <ele>147</ele>
        <time>2018-11-15T10:28:25Z</time>
      </trkpt>
      <trkpt lat="48.66978" lon="1.71851">
        <ele>147</ele>
        <time>2018-11-15T10:28:29Z</time>
      </trkpt>
      <trkpt lat="48.66973" lon="1.71854">
        <ele>147</ele>
        <time>2018-11-15T10:28:33Z</time>
      </trkpt>
      <trkpt lat="48.66967" lon="1.71856">
        <ele>147</ele>
        <time>2018-11-15T10:28:37Z</time>
      </trkpt>
      <trkpt lat="48.66961" lon="1.71857">
        <ele>147</ele>
        <time>2018-11-15T10:28:41Z</time>
      </trkpt>
      <trkpt lat="48.66955" lon="1.71859">
        <ele>147</ele>
        <time>2018-11-15T10:28:45Z</time>
      </trkpt>
      <trkpt lat="48.66949" lon="1.71861">
        <ele>147</ele>
        <time>2018-11-15T10:28:49Z</time>
      </trkpt>
      <trkpt lat="48.66944" lon="1.71863">
        <ele>147</ele>
        <time>2018-11-15T10:28:53Z</time>
      </trkpt>
      <trkpt lat="48.66938" lon="1.71867">
        <ele>148</ele>
        <time>2018-11-15T10:28:57Z</time>
      </trkpt>
      <trkpt lat="48.66932" lon="1.7187">
        <ele>148</ele>
        <time>2018-11-15T10:29:01Z</time>
      </trkpt>
      <trkpt lat="48.66927" lon="1.71873">
        <ele>148</ele>
        <time>2018-11-15T10:29:05Z</time>
      </trkpt>
      <trkpt lat="48.66927" lon="1.71864">
        <ele>148</ele>
        <time>2018-11-15T10:29:13Z</time>
      </trkpt>
      <trkpt lat="48.66931" lon="1.7186">
        <ele>148</ele>
        <time>2018-11-15T10:29:17Z</time>
      </trkpt>
      <trkpt lat="48.66935" lon="1.71858">
        <ele>148</ele>
        <time>2018-11-15T10:29:21Z</time>
      </trkpt>
      <trkpt lat="48.66939" lon="1.71849">
        <ele>148</ele>
        <time>2018-11-15T10:29:27Z</time>
      </trkpt>
      <trkpt lat="48.66941" lon="1.71843">
        <ele>148</ele>
        <time>2018-11-15T10:29:31Z</time>
      </trkpt>
      <trkpt lat="48.66947" lon="1.71835">
        <ele>148</ele>
        <time>2018-11-15T10:29:35Z</time>
      </trkpt>
      <trkpt lat="48.66952" lon="1.71831">
        <ele>149</ele>
        <time>2018-11-15T10:29:39Z</time>
      </trkpt>
      <trkpt lat="48.66954" lon="1.71823">
        <ele>149</ele>
        <time>2018-11-15T10:29:43Z</time>
      </trkpt>
      <trkpt lat="48.66956" lon="1.71815">
        <ele>149</ele>
        <time>2018-11-15T10:29:47Z</time>
      </trkpt>
      <trkpt lat="48.6696" lon="1.71807">
        <ele>149</ele>
        <time>2018-11-15T10:29:53Z</time>
      </trkpt>
      <trkpt lat="48.66966" lon="1.718">
        <ele>148</ele>
        <time>2018-11-15T10:29:57Z</time>
      </trkpt>
      <trkpt lat="48.66969" lon="1.71793">
        <ele>148</ele>
        <time>2018-11-15T10:30:01Z</time>
      </trkpt>
      <trkpt lat="48.66969" lon="1.71784">
        <ele>148</ele>
        <time>2018-11-15T10:30:05Z</time>
      </trkpt>
      <trkpt lat="48.66973" lon="1.71777">
        <ele>148</ele>
        <time>2018-11-15T10:30:11Z</time>
      </trkpt>
      <trkpt lat="48.66979" lon="1.7177">
        <ele>148</ele>
        <time>2018-11-15T10:30:15Z</time>
      </trkpt>
      <trkpt lat="48.6698" lon="1.71763">
        <ele>148</ele>
        <time>2018-11-15T10:30:19Z</time>
      </trkpt>
      <trkpt lat="48.66983" lon="1.71757">
        <ele>148</ele>
        <time>2018-11-15T10:30:23Z</time>
      </trkpt>
      <trkpt lat="48.66987" lon="1.71752">
        <ele>147</ele>
        <time>2018-11-15T10:30:25Z</time>
      </trkpt>
      <trkpt lat="48.66991" lon="1.71744">
        <ele>147</ele>
        <time>2018-11-15T10:30:29Z</time>
      </trkpt>
      <trkpt lat="48.66997" lon="1.71738">
        <ele>147</ele>
        <time>2018-11-15T10:30:33Z</time>
      </trkpt>
      <trkpt lat="48.67001" lon="1.7173">
        <ele>147</ele>
        <time>2018-11-15T10:30:37Z</time>
      </trkpt>
      <trkpt lat="48.67005" lon="1.71723">
        <ele>147</ele>
        <time>2018-11-15T10:30:41Z</time>
      </trkpt>
      <trkpt lat="48.67009" lon="1.71716">
        <ele>148</ele>
        <time>2018-11-15T10:30:45Z</time>
      </trkpt>
      <trkpt lat="48.67013" lon="1.71709">
        <ele>148</ele>
        <time>2018-11-15T10:30:49Z</time>
      </trkpt>
      <trkpt lat="48.67013" lon="1.717">
        <ele>148</ele>
        <time>2018-11-15T10:30:53Z</time>
      </trkpt>
      <trkpt lat="48.67018" lon="1.71692">
        <ele>148</ele>
        <time>2018-11-15T10:30:57Z</time>
      </trkpt>
      <trkpt lat="48.67019" lon="1.71682">
        <ele>148</ele>
        <time>2018-11-15T10:31:01Z</time>
      </trkpt>
      <trkpt lat="48.67024" lon="1.71674">
        <ele>148</ele>
        <time>2018-11-15T10:31:05Z</time>
      </trkpt>
      <trkpt lat="48.67026" lon="1.71667">
        <ele>148</ele>
        <time>2018-11-15T10:31:09Z</time>
      </trkpt>
      <trkpt lat="48.6703" lon="1.71658">
        <ele>149</ele>
        <time>2018-11-15T10:31:15Z</time>
      </trkpt>
      <trkpt lat="48.67033" lon="1.7165">
        <ele>149</ele>
        <time>2018-11-15T10:31:21Z</time>
      </trkpt>
      <trkpt lat="48.67036" lon="1.71644">
        <ele>149</ele>
        <time>2018-11-15T10:31:25Z</time>
      </trkpt>
      <trkpt lat="48.6704" lon="1.71638">
        <ele>149</ele>
        <time>2018-11-15T10:31:29Z</time>
      </trkpt>
      <trkpt lat="48.67041" lon="1.71631">
        <ele>149</ele>
        <time>2018-11-15T10:31:33Z</time>
      </trkpt>
      <trkpt lat="48.67045" lon="1.71624">
        <ele>150</ele>
        <time>2018-11-15T10:31:37Z</time>
      </trkpt>
      <trkpt lat="48.67051" lon="1.71619">
        <ele>150</ele>
        <time>2018-11-15T10:31:41Z</time>
      </trkpt>
      <trkpt lat="48.67056" lon="1.71613">
        <ele>150</ele>
        <time>2018-11-15T10:31:45Z</time>
      </trkpt>
      <trkpt lat="48.6706" lon="1.71606">
        <ele>150</ele>
        <time>2018-11-15T10:31:49Z</time>
      </trkpt>
      <trkpt lat="48.67065" lon="1.716">
        <ele>150</ele>
        <time>2018-11-15T10:31:53Z</time>
      </trkpt>
      <trkpt lat="48.67068" lon="1.71593">
        <ele>151</ele>
        <time>2018-11-15T10:31:57Z</time>
      </trkpt>
      <trkpt lat="48.67073" lon="1.71586">
        <ele>151</ele>
        <time>2018-11-15T10:32:01Z</time>
      </trkpt>
      <trkpt lat="48.67075" lon="1.71577">
        <ele>152</ele>
        <time>2018-11-15T10:32:05Z</time>
      </trkpt>
      <trkpt lat="48.6708" lon="1.71571">
        <ele>152</ele>
        <time>2018-11-15T10:32:09Z</time>
      </trkpt>
      <trkpt lat="48.67084" lon="1.71566">
        <ele>154</ele>
        <time>2018-11-15T10:32:13Z</time>
      </trkpt>
      <trkpt lat="48.67085" lon="1.71558">
        <ele>154</ele>
        <time>2018-11-15T10:32:17Z</time>
      </trkpt>
      <trkpt lat="48.67087" lon="1.71548">
        <ele>155</ele>
        <time>2018-11-15T10:32:21Z</time>
      </trkpt>
      <trkpt lat="48.67091" lon="1.71543">
        <ele>155</ele>
        <time>2018-11-15T10:32:23Z</time>
      </trkpt>
      <trkpt lat="48.67094" lon="1.71536">
        <ele>155</ele>
        <time>2018-11-15T10:32:27Z</time>
      </trkpt>
      <trkpt lat="48.67097" lon="1.71526">
        <ele>155</ele>
        <time>2018-11-15T10:32:31Z</time>
      </trkpt>
      <trkpt lat="48.67099" lon="1.7152">
        <ele>155</ele>
        <time>2018-11-15T10:32:35Z</time>
      </trkpt>
      <trkpt lat="48.67105" lon="1.71513">
        <ele>155</ele>
        <time>2018-11-15T10:32:41Z</time>
      </trkpt>
      <trkpt lat="48.67109" lon="1.71506">
        <ele>156</ele>
        <time>2018-11-15T10:32:47Z</time>
      </trkpt>
      <trkpt lat="48.67111" lon="1.71497">
        <ele>157</ele>
        <time>2018-11-15T10:32:51Z</time>
      </trkpt>
      <trkpt lat="48.67115" lon="1.71491">
        <ele>157</ele>
        <time>2018-11-15T10:32:55Z</time>
      </trkpt>
      <trkpt lat="48.67118" lon="1.71486">
        <ele>158</ele>
        <time>2018-11-15T10:32:59Z</time>
      </trkpt>
      <trkpt lat="48.6712" lon="1.71477">
        <ele>158</ele>
        <time>2018-11-15T10:33:05Z</time>
      </trkpt>
      <trkpt lat="48.67126" lon="1.71466">
        <ele>158</ele>
        <time>2018-11-15T10:33:09Z</time>
      </trkpt>
      <trkpt lat="48.67128" lon="1.71458">
        <ele>158</ele>
        <time>2018-11-15T10:33:13Z</time>
      </trkpt>
      <trkpt lat="48.67131" lon="1.7145">
        <ele>159</ele>
        <time>2018-11-15T10:33:17Z</time>
      </trkpt>
      <trkpt lat="48.67133" lon="1.7144">
        <ele>159</ele>
        <time>2018-11-15T10:33:21Z</time>
      </trkpt>
      <trkpt lat="48.67137" lon="1.71432">
        <ele>159</ele>
        <time>2018-11-15T10:33:27Z</time>
      </trkpt>
      <trkpt lat="48.6714" lon="1.71424">
        <ele>159</ele>
        <time>2018-11-15T10:33:33Z</time>
      </trkpt>
      <trkpt lat="48.67146" lon="1.71422">
        <ele>159</ele>
        <time>2018-11-15T10:33:41Z</time>
      </trkpt>
      <trkpt lat="48.6715" lon="1.71415">
        <ele>160</ele>
        <time>2018-11-15T10:34:39Z</time>
      </trkpt>
      <trkpt lat="48.67153" lon="1.71406">
        <ele>161</ele>
        <time>2018-11-15T10:34:45Z</time>
      </trkpt>
      <trkpt lat="48.67158" lon="1.71399">
        <ele>161</ele>
        <time>2018-11-15T10:34:51Z</time>
      </trkpt>
      <trkpt lat="48.67162" lon="1.71395">
        <ele>161</ele>
        <time>2018-11-15T10:34:55Z</time>
      </trkpt>
      <trkpt lat="48.67165" lon="1.71389">
        <ele>161</ele>
        <time>2018-11-15T10:34:59Z</time>
      </trkpt>
      <trkpt lat="48.67166" lon="1.71382">
        <ele>161</ele>
        <time>2018-11-15T10:35:03Z</time>
      </trkpt>
      <trkpt lat="48.67169" lon="1.71376">
        <ele>164</ele>
        <time>2018-11-15T10:35:07Z</time>
      </trkpt>
      <trkpt lat="48.67172" lon="1.7137">
        <ele>164</ele>
        <time>2018-11-15T10:35:11Z</time>
      </trkpt>
      <trkpt lat="48.67177" lon="1.71363">
        <ele>164</ele>
        <time>2018-11-15T10:35:15Z</time>
      </trkpt>
      <trkpt lat="48.67181" lon="1.7136">
        <ele>165</ele>
        <time>2018-11-15T10:35:19Z</time>
      </trkpt>
      <trkpt lat="48.67186" lon="1.71354">
        <ele>165</ele>
        <time>2018-11-15T10:35:23Z</time>
      </trkpt>
      <trkpt lat="48.67189" lon="1.71349">
        <ele>165</ele>
        <time>2018-11-15T10:35:29Z</time>
      </trkpt>
      <trkpt lat="48.67194" lon="1.71344">
        <ele>165</ele>
        <time>2018-11-15T10:35:33Z</time>
      </trkpt>
      <trkpt lat="48.672" lon="1.71337">
        <ele>165</ele>
        <time>2018-11-15T10:35:37Z</time>
      </trkpt>
      <trkpt lat="48.67203" lon="1.71332">
        <ele>167</ele>
        <time>2018-11-15T10:35:41Z</time>
      </trkpt>
      <trkpt lat="48.67207" lon="1.71326">
        <ele>167</ele>
        <time>2018-11-15T10:35:45Z</time>
      </trkpt>
      <trkpt lat="48.67211" lon="1.71321">
        <ele>167</ele>
        <time>2018-11-15T10:35:49Z</time>
      </trkpt>
      <trkpt lat="48.67216" lon="1.71318">
        <ele>167</ele>
        <time>2018-11-15T10:35:53Z</time>
      </trkpt>
      <trkpt lat="48.67218" lon="1.71312">
        <ele>168</ele>
        <time>2018-11-15T10:35:55Z</time>
      </trkpt>
      <trkpt lat="48.67221" lon="1.71305">
        <ele>168</ele>
        <time>2018-11-15T10:35:57Z</time>
      </trkpt>
      <trkpt lat="48.67227" lon="1.71299">
        <ele>168</ele>
        <time>2018-11-15T10:36:03Z</time>
      </trkpt>
      <trkpt lat="48.67232" lon="1.71289">
        <ele>168</ele>
        <time>2018-11-15T10:36:07Z</time>
      </trkpt>
      <trkpt lat="48.67235" lon="1.7128">
        <ele>168</ele>
        <time>2018-11-15T10:36:11Z</time>
      </trkpt>
      <trkpt lat="48.67238" lon="1.71274">
        <ele>168</ele>
        <time>2018-11-15T10:36:15Z</time>
      </trkpt>
      <trkpt lat="48.67243" lon="1.71268">
        <ele>169</ele>
        <time>2018-11-15T10:36:19Z</time>
      </trkpt>
      <trkpt lat="48.67245" lon="1.7126">
        <ele>169</ele>
        <time>2018-11-15T10:36:23Z</time>
      </trkpt>
      <trkpt lat="48.6725" lon="1.71255">
        <ele>170</ele>
        <time>2018-11-15T10:36:27Z</time>
      </trkpt>
      <trkpt lat="48.67252" lon="1.71248">
        <ele>170</ele>
        <time>2018-11-15T10:36:31Z</time>
      </trkpt>
      <trkpt lat="48.67257" lon="1.71244">
        <ele>171</ele>
        <time>2018-11-15T10:36:35Z</time>
      </trkpt>
      <trkpt lat="48.67259" lon="1.71237">
        <ele>171</ele>
        <time>2018-11-15T10:36:39Z</time>
      </trkpt>
      <trkpt lat="48.67263" lon="1.7123">
        <ele>171</ele>
        <time>2018-11-15T10:36:43Z</time>
      </trkpt>
      <trkpt lat="48.67267" lon="1.71223">
        <ele>171</ele>
        <time>2018-11-15T10:36:47Z</time>
      </trkpt>
      <trkpt lat="48.67271" lon="1.7122">
        <ele>171</ele>
        <time>2018-11-15T10:36:51Z</time>
      </trkpt>
      <trkpt lat="48.67274" lon="1.71213">
        <ele>171</ele>
        <time>2018-11-15T10:36:53Z</time>
      </trkpt>
      <trkpt lat="48.67279" lon="1.71205">
        <ele>171</ele>
        <time>2018-11-15T10:36:57Z</time>
      </trkpt>
      <trkpt lat="48.67285" lon="1.71199">
        <ele>171</ele>
        <time>2018-11-15T10:37:01Z</time>
      </trkpt>
      <trkpt lat="48.67291" lon="1.71192">
        <ele>171</ele>
        <time>2018-11-15T10:37:05Z</time>
      </trkpt>
      <trkpt lat="48.67296" lon="1.71186">
        <ele>171</ele>
        <time>2018-11-15T10:37:09Z</time>
      </trkpt>
      <trkpt lat="48.67301" lon="1.71179">
        <ele>171</ele>
        <time>2018-11-15T10:37:15Z</time>
      </trkpt>
      <trkpt lat="48.67304" lon="1.71172">
        <ele>171</ele>
        <time>2018-11-15T10:37:19Z</time>
      </trkpt>
      <trkpt lat="48.67308" lon="1.71165">
        <ele>171</ele>
        <time>2018-11-15T10:37:23Z</time>
      </trkpt>
      <trkpt lat="48.67312" lon="1.71158">
        <ele>171</ele>
        <time>2018-11-15T10:37:27Z</time>
      </trkpt>
      <trkpt lat="48.67317" lon="1.7115">
        <ele>171</ele>
        <time>2018-11-15T10:37:31Z</time>
      </trkpt>
      <trkpt lat="48.67319" lon="1.71143">
        <ele>172</ele>
        <time>2018-11-15T10:37:35Z</time>
      </trkpt>
      <trkpt lat="48.67325" lon="1.71138">
        <ele>172</ele>
        <time>2018-11-15T10:37:39Z</time>
      </trkpt>
      <trkpt lat="48.67329" lon="1.71132">
        <ele>172</ele>
        <time>2018-11-15T10:37:43Z</time>
      </trkpt>
      <trkpt lat="48.67333" lon="1.71126">
        <ele>172</ele>
        <time>2018-11-15T10:37:47Z</time>
      </trkpt>
      <trkpt lat="48.67337" lon="1.71119">
        <ele>173</ele>
        <time>2018-11-15T10:37:51Z</time>
      </trkpt>
      <trkpt lat="48.67341" lon="1.71112">
        <ele>173</ele>
        <time>2018-11-15T10:37:55Z</time>
      </trkpt>
      <trkpt lat="48.67345" lon="1.71106">
        <ele>173</ele>
        <time>2018-11-15T10:37:59Z</time>
      </trkpt>
      <trkpt lat="48.67349" lon="1.71099">
        <ele>173</ele>
        <time>2018-11-15T10:38:03Z</time>
      </trkpt>
      <trkpt lat="48.67354" lon="1.71093">
        <ele>173</ele>
        <time>2018-11-15T10:38:07Z</time>
      </trkpt>
      <trkpt lat="48.67359" lon="1.71084">
        <ele>173</ele>
        <time>2018-11-15T10:38:11Z</time>
      </trkpt>
      <trkpt lat="48.67362" lon="1.71077">
        <ele>174</ele>
        <time>2018-11-15T10:38:15Z</time>
      </trkpt>
      <trkpt lat="48.67366" lon="1.71069">
        <ele>174</ele>
        <time>2018-11-15T10:38:19Z</time>
      </trkpt>
      <trkpt lat="48.67372" lon="1.71063">
        <ele>174</ele>
        <time>2018-11-15T10:38:23Z</time>
      </trkpt>
      <trkpt lat="48.67376" lon="1.71053">
        <ele>174</ele>
        <time>2018-11-15T10:38:27Z</time>
      </trkpt>
      <trkpt lat="48.6738" lon="1.71049">
        <ele>174</ele>
        <time>2018-11-15T10:38:31Z</time>
      </trkpt>
      <trkpt lat="48.67381" lon="1.7104">
        <ele>174</ele>
        <time>2018-11-15T10:38:35Z</time>
      </trkpt>
      <trkpt lat="48.67375" lon="1.71032">
        <ele>174</ele>
        <time>2018-11-15T10:38:39Z</time>
      </trkpt>
      <trkpt lat="48.67368" lon="1.71029">
        <ele>174</ele>
        <time>2018-11-15T10:38:43Z</time>
      </trkpt>
      <trkpt lat="48.67361" lon="1.71029">
        <ele>174</ele>
        <time>2018-11-15T10:38:47Z</time>
      </trkpt>
      <trkpt lat="48.67356" lon="1.7103">
        <ele>174</ele>
        <time>2018-11-15T10:38:51Z</time>
      </trkpt>
      <trkpt lat="48.67349" lon="1.71029">
        <ele>174</ele>
        <time>2018-11-15T10:38:55Z</time>
      </trkpt>
      <trkpt lat="48.67343" lon="1.71028">
        <ele>174</ele>
        <time>2018-11-15T10:38:59Z</time>
      </trkpt>
      <trkpt lat="48.67337" lon="1.71027">
        <ele>174</ele>
        <time>2018-11-15T10:39:03Z</time>
      </trkpt>
      <trkpt lat="48.6733" lon="1.71026">
        <ele>174</ele>
        <time>2018-11-15T10:39:07Z</time>
      </trkpt>
      <trkpt lat="48.67324" lon="1.71024">
        <ele>174</ele>
        <time>2018-11-15T10:39:11Z</time>
      </trkpt>
      <trkpt lat="48.67317" lon="1.71024">
        <ele>173</ele>
        <time>2018-11-15T10:39:15Z</time>
      </trkpt>
      <trkpt lat="48.67308" lon="1.7102">
        <ele>173</ele>
        <time>2018-11-15T10:39:19Z</time>
      </trkpt>
      <trkpt lat="48.67302" lon="1.7102">
        <ele>173</ele>
        <time>2018-11-15T10:39:23Z</time>
      </trkpt>
      <trkpt lat="48.67295" lon="1.7102">
        <ele>173</ele>
        <time>2018-11-15T10:39:27Z</time>
      </trkpt>
      <trkpt lat="48.67289" lon="1.7102">
        <ele>173</ele>
        <time>2018-11-15T10:39:31Z</time>
      </trkpt>
      <trkpt lat="48.67283" lon="1.7102">
        <ele>173</ele>
        <time>2018-11-15T10:39:35Z</time>
      </trkpt>
      <trkpt lat="48.67278" lon="1.71019">
        <ele>172</ele>
        <time>2018-11-15T10:39:39Z</time>
      </trkpt>
      <trkpt lat="48.67272" lon="1.7102">
        <ele>172</ele>
        <time>2018-11-15T10:39:43Z</time>
      </trkpt>
      <trkpt lat="48.67265" lon="1.71019">
        <ele>172</ele>
        <time>2018-11-15T10:39:47Z</time>
      </trkpt>
      <trkpt lat="48.67259" lon="1.71018">
        <ele>172</ele>
        <time>2018-11-15T10:39:51Z</time>
      </trkpt>
      <trkpt lat="48.67252" lon="1.71018">
        <ele>172</ele>
        <time>2018-11-15T10:39:55Z</time>
      </trkpt>
      <trkpt lat="48.67246" lon="1.71018">
        <ele>172</ele>
        <time>2018-11-15T10:39:59Z</time>
      </trkpt>
      <trkpt lat="48.6724" lon="1.71017">
        <ele>172</ele>
        <time>2018-11-15T10:40:03Z</time>
      </trkpt>
      <trkpt lat="48.67234" lon="1.71016">
        <ele>172</ele>
        <time>2018-11-15T10:40:07Z</time>
      </trkpt>
      <trkpt lat="48.67229" lon="1.71015">
        <ele>172</ele>
        <time>2018-11-15T10:40:11Z</time>
      </trkpt>
      <trkpt lat="48.67222" lon="1.71015">
        <ele>172</ele>
        <time>2018-11-15T10:40:15Z</time>
      </trkpt>
      <trkpt lat="48.67217" lon="1.71016">
        <ele>172</ele>
        <time>2018-11-15T10:40:19Z</time>
      </trkpt>
      <trkpt lat="48.6721" lon="1.71013">
        <ele>172</ele>
        <time>2018-11-15T10:40:23Z</time>
      </trkpt>
      <trkpt lat="48.67204" lon="1.71013">
        <ele>172</ele>
        <time>2018-11-15T10:40:27Z</time>
      </trkpt>
      <trkpt lat="48.67197" lon="1.71012">
        <ele>172</ele>
        <time>2018-11-15T10:40:31Z</time>
      </trkpt>
      <trkpt lat="48.6719" lon="1.71012">
        <ele>172</ele>
        <time>2018-11-15T10:40:35Z</time>
      </trkpt>
      <trkpt lat="48.67185" lon="1.7101">
        <ele>172</ele>
        <time>2018-11-15T10:40:39Z</time>
      </trkpt>
      <trkpt lat="48.67179" lon="1.71009">
        <ele>172</ele>
        <time>2018-11-15T10:40:43Z</time>
      </trkpt>
      <trkpt lat="48.67172" lon="1.71008">
        <ele>172</ele>
        <time>2018-11-15T10:40:47Z</time>
      </trkpt>
      <trkpt lat="48.67165" lon="1.71008">
        <ele>172</ele>
        <time>2018-11-15T10:40:51Z</time>
      </trkpt>
      <trkpt lat="48.67158" lon="1.71003">
        <ele>171</ele>
        <time>2018-11-15T10:40:55Z</time>
      </trkpt>
      <trkpt lat="48.67152" lon="1.71003">
        <ele>171</ele>
        <time>2018-11-15T10:40:59Z</time>
      </trkpt>
      <trkpt lat="48.67144" lon="1.71003">
        <ele>171</ele>
        <time>2018-11-15T10:41:03Z</time>
      </trkpt>
      <trkpt lat="48.67139" lon="1.71004">
        <ele>171</ele>
        <time>2018-11-15T10:41:07Z</time>
      </trkpt>
      <trkpt lat="48.67133" lon="1.71003">
        <ele>170</ele>
        <time>2018-11-15T10:41:11Z</time>
      </trkpt>
      <trkpt lat="48.67126" lon="1.71001">
        <ele>170</ele>
        <time>2018-11-15T10:41:15Z</time>
      </trkpt>
      <trkpt lat="48.6712" lon="1.70999">
        <ele>170</ele>
        <time>2018-11-15T10:41:19Z</time>
      </trkpt>
      <trkpt lat="48.67114" lon="1.70998">
        <ele>170</ele>
        <time>2018-11-15T10:41:23Z</time>
      </trkpt>
      <trkpt lat="48.67109" lon="1.70997">
        <ele>169</ele>
        <time>2018-11-15T10:41:27Z</time>
      </trkpt>
      <trkpt lat="48.67101" lon="1.70997">
        <ele>169</ele>
        <time>2018-11-15T10:41:31Z</time>
      </trkpt>
      <trkpt lat="48.67094" lon="1.70997">
        <ele>169</ele>
        <time>2018-11-15T10:41:35Z</time>
      </trkpt>
      <trkpt lat="48.67086" lon="1.70997">
        <ele>168</ele>
        <time>2018-11-15T10:41:39Z</time>
      </trkpt>
      <trkpt lat="48.6708" lon="1.70997">
        <ele>168</ele>
        <time>2018-11-15T10:41:43Z</time>
      </trkpt>
      <trkpt lat="48.67074" lon="1.70996">
        <ele>167</ele>
        <time>2018-11-15T10:41:47Z</time>
      </trkpt>
      <trkpt lat="48.67067" lon="1.70995">
        <ele>167</ele>
        <time>2018-11-15T10:41:51Z</time>
      </trkpt>
      <trkpt lat="48.6706" lon="1.70995">
        <ele>167</ele>
        <time>2018-11-15T10:41:55Z</time>
      </trkpt>
      <trkpt lat="48.67053" lon="1.70995">
        <ele>166</ele>
        <time>2018-11-15T10:41:59Z</time>
      </trkpt>
      <trkpt lat="48.67045" lon="1.70993">
        <ele>166</ele>
        <time>2018-11-15T10:42:03Z</time>
      </trkpt>
      <trkpt lat="48.67039" lon="1.70991">
        <ele>166</ele>
        <time>2018-11-15T10:42:07Z</time>
      </trkpt>
      <trkpt lat="48.67032" lon="1.70993">
        <ele>165</ele>
        <time>2018-11-15T10:42:11Z</time>
      </trkpt>
      <trkpt lat="48.67026" lon="1.70993">
        <ele>165</ele>
        <time>2018-11-15T10:42:15Z</time>
      </trkpt>
      <trkpt lat="48.6702" lon="1.70992">
        <ele>165</ele>
        <time>2018-11-15T10:42:19Z</time>
      </trkpt>
      <trkpt lat="48.67015" lon="1.70991">
        <ele>165</ele>
        <time>2018-11-15T10:42:23Z</time>
      </trkpt>
      <trkpt lat="48.67008" lon="1.70993">
        <ele>164</ele>
        <time>2018-11-15T10:42:27Z</time>
      </trkpt>
      <trkpt lat="48.66999" lon="1.70992">
        <ele>162</ele>
        <time>2018-11-15T10:42:31Z</time>
      </trkpt>
      <trkpt lat="48.66991" lon="1.70992">
        <ele>162</ele>
        <time>2018-11-15T10:42:35Z</time>
      </trkpt>
      <trkpt lat="48.66985" lon="1.70991">
        <ele>162</ele>
        <time>2018-11-15T10:42:39Z</time>
      </trkpt>
      <trkpt lat="48.66977" lon="1.70991">
        <ele>161</ele>
        <time>2018-11-15T10:42:45Z</time>
      </trkpt>
      <trkpt lat="48.66969" lon="1.70988">
        <ele>161</ele>
        <time>2018-11-15T10:42:49Z</time>
      </trkpt>
      <trkpt lat="48.66964" lon="1.70986">
        <ele>160</ele>
        <time>2018-11-15T10:42:53Z</time>
      </trkpt>
      <trkpt lat="48.66959" lon="1.70986">
        <ele>160</ele>
        <time>2018-11-15T10:42:57Z</time>
      </trkpt>
      <trkpt lat="48.66952" lon="1.70986">
        <ele>160</ele>
        <time>2018-11-15T10:43:01Z</time>
      </trkpt>
      <trkpt lat="48.66947" lon="1.70986">
        <ele>159</ele>
        <time>2018-11-15T10:43:03Z</time>
      </trkpt>
      <trkpt lat="48.6694" lon="1.70984">
        <ele>159</ele>
        <time>2018-11-15T10:43:07Z</time>
      </trkpt>
      <trkpt lat="48.66936" lon="1.70984">
        <ele>159</ele>
        <time>2018-11-15T10:43:09Z</time>
      </trkpt>
      <trkpt lat="48.66929" lon="1.70983">
        <ele>158</ele>
        <time>2018-11-15T10:43:13Z</time>
      </trkpt>
      <trkpt lat="48.66922" lon="1.70983">
        <ele>158</ele>
        <time>2018-11-15T10:43:17Z</time>
      </trkpt>
      <trkpt lat="48.66914" lon="1.70982">
        <ele>155</ele>
        <time>2018-11-15T10:43:21Z</time>
      </trkpt>
      <trkpt lat="48.66908" lon="1.70981">
        <ele>154</ele>
        <time>2018-11-15T10:43:25Z</time>
      </trkpt>
      <trkpt lat="48.66901" lon="1.70981">
        <ele>154</ele>
        <time>2018-11-15T10:43:29Z</time>
      </trkpt>
      <trkpt lat="48.66895" lon="1.7098">
        <ele>154</ele>
        <time>2018-11-15T10:43:33Z</time>
      </trkpt>
      <trkpt lat="48.66887" lon="1.7098">
        <ele>154</ele>
        <time>2018-11-15T10:43:37Z</time>
      </trkpt>
      <trkpt lat="48.6688" lon="1.7098">
        <ele>153</ele>
        <time>2018-11-15T10:43:41Z</time>
      </trkpt>
      <trkpt lat="48.66874" lon="1.70979">
        <ele>153</ele>
        <time>2018-11-15T10:43:45Z</time>
      </trkpt>
      <trkpt lat="48.66868" lon="1.70977">
        <ele>153</ele>
        <time>2018-11-15T10:43:49Z</time>
      </trkpt>
      <trkpt lat="48.6686" lon="1.70975">
        <ele>152</ele>
        <time>2018-11-15T10:43:53Z</time>
      </trkpt>
      <trkpt lat="48.66853" lon="1.70976">
        <ele>152</ele>
        <time>2018-11-15T10:43:57Z</time>
      </trkpt>
      <trkpt lat="48.66846" lon="1.70976">
        <ele>152</ele>
        <time>2018-11-15T10:44:01Z</time>
      </trkpt>
      <trkpt lat="48.66839" lon="1.70975">
        <ele>152</ele>
        <time>2018-11-15T10:44:05Z</time>
      </trkpt>
      <trkpt lat="48.66833" lon="1.70973">
        <ele>148</ele>
        <time>2018-11-15T10:44:09Z</time>
      </trkpt>
      <trkpt lat="48.66827" lon="1.70974">
        <ele>148</ele>
        <time>2018-11-15T10:44:13Z</time>
      </trkpt>
      <trkpt lat="48.66823" lon="1.70981">
        <ele>148</ele>
        <time>2018-11-15T10:44:19Z</time>
      </trkpt>
      <trkpt lat="48.66827" lon="1.70986">
        <ele>149</ele>
        <time>2018-11-15T10:44:23Z</time>
      </trkpt>
      <trkpt lat="48.66831" lon="1.70993">
        <ele>149</ele>
        <time>2018-11-15T10:44:27Z</time>
      </trkpt>
      <trkpt lat="48.66836" lon="1.70997">
        <ele>150</ele>
        <time>2018-11-15T10:44:31Z</time>
      </trkpt>
      <trkpt lat="48.66841" lon="1.71002">
        <ele>151</ele>
        <time>2018-11-15T10:44:35Z</time>
      </trkpt>
      <trkpt lat="48.66847" lon="1.7101">
        <ele>151</ele>
        <time>2018-11-15T10:44:39Z</time>
      </trkpt>
      <trkpt lat="48.66851" lon="1.71015">
        <ele>152</ele>
        <time>2018-11-15T10:44:41Z</time>
      </trkpt>
      <trkpt lat="48.66856" lon="1.71022">
        <ele>152</ele>
        <time>2018-11-15T10:44:45Z</time>
      </trkpt>
      <trkpt lat="48.66862" lon="1.71027">
        <ele>152</ele>
        <time>2018-11-15T10:44:49Z</time>
      </trkpt>
      <trkpt lat="48.66867" lon="1.71033">
        <ele>152</ele>
        <time>2018-11-15T10:44:53Z</time>
      </trkpt>
      <trkpt lat="48.66872" lon="1.71039">
        <ele>153</ele>
        <time>2018-11-15T10:44:57Z</time>
      </trkpt>
      <trkpt lat="48.66878" lon="1.71047">
        <ele>153</ele>
        <time>2018-11-15T10:45:01Z</time>
      </trkpt>
      <trkpt lat="48.66883" lon="1.71054">
        <ele>153</ele>
        <time>2018-11-15T10:45:05Z</time>
      </trkpt>
      <trkpt lat="48.66888" lon="1.7106">
        <ele>153</ele>
        <time>2018-11-15T10:45:09Z</time>
      </trkpt>
      <trkpt lat="48.66893" lon="1.71066">
        <ele>154</ele>
        <time>2018-11-15T10:45:13Z</time>
      </trkpt>
      <trkpt lat="48.66898" lon="1.71072">
        <ele>154</ele>
        <time>2018-11-15T10:45:17Z</time>
      </trkpt>
      <trkpt lat="48.66904" lon="1.71077">
        <ele>155</ele>
        <time>2018-11-15T10:45:21Z</time>
      </trkpt>
      <trkpt lat="48.66908" lon="1.71083">
        <ele>155</ele>
        <time>2018-11-15T10:45:25Z</time>
      </trkpt>
      <trkpt lat="48.66913" lon="1.71089">
        <ele>155</ele>
        <time>2018-11-15T10:45:29Z</time>
      </trkpt>
      <trkpt lat="48.66919" lon="1.71097">
        <ele>156</ele>
        <time>2018-11-15T10:45:33Z</time>
      </trkpt>
      <trkpt lat="48.66925" lon="1.71104">
        <ele>157</ele>
        <time>2018-11-15T10:45:37Z</time>
      </trkpt>
      <trkpt lat="48.6693" lon="1.71109">
        <ele>157</ele>
        <time>2018-11-15T10:45:41Z</time>
      </trkpt>
      <trkpt lat="48.66935" lon="1.71116">
        <ele>157</ele>
        <time>2018-11-15T10:45:45Z</time>
      </trkpt>
      <trkpt lat="48.6694" lon="1.71123">
        <ele>157</ele>
        <time>2018-11-15T10:45:49Z</time>
      </trkpt>
      <trkpt lat="48.66944" lon="1.71128">
        <ele>157</ele>
        <time>2018-11-15T10:45:53Z</time>
      </trkpt>
      <trkpt lat="48.6695" lon="1.71134">
        <ele>157</ele>
        <time>2018-11-15T10:45:57Z</time>
      </trkpt>
      <trkpt lat="48.66954" lon="1.71143">
        <ele>157</ele>
        <time>2018-11-15T10:46:01Z</time>
      </trkpt>
      <trkpt lat="48.66958" lon="1.71151">
        <ele>157</ele>
        <time>2018-11-15T10:46:05Z</time>
      </trkpt>
      <trkpt lat="48.66964" lon="1.71157">
        <ele>157</ele>
        <time>2018-11-15T10:46:09Z</time>
      </trkpt>
      <trkpt lat="48.66969" lon="1.71164">
        <ele>157</ele>
        <time>2018-11-15T10:46:13Z</time>
      </trkpt>
      <trkpt lat="48.66975" lon="1.71169">
        <ele>155</ele>
        <time>2018-11-15T10:46:17Z</time>
      </trkpt>
      <trkpt lat="48.6698" lon="1.71174">
        <ele>155</ele>
        <time>2018-11-15T10:46:21Z</time>
      </trkpt>
      <trkpt lat="48.66985" lon="1.71182">
        <ele>155</ele>
        <time>2018-11-15T10:46:25Z</time>
      </trkpt>
      <trkpt lat="48.66988" lon="1.7119">
        <ele>155</ele>
        <time>2018-11-15T10:46:29Z</time>
      </trkpt>
      <trkpt lat="48.66993" lon="1.71201">
        <ele>154</ele>
        <time>2018-11-15T10:46:33Z</time>
      </trkpt>
      <trkpt lat="48.66998" lon="1.71209">
        <ele>154</ele>
        <time>2018-11-15T10:46:37Z</time>
      </trkpt>
      <trkpt lat="48.67002" lon="1.71215">
        <ele>156</ele>
        <time>2018-11-15T10:46:41Z</time>
      </trkpt>
      <trkpt lat="48.67007" lon="1.71223">
        <ele>156</ele>
        <time>2018-11-15T10:46:45Z</time>
      </trkpt>
      <trkpt lat="48.67012" lon="1.71229">
        <ele>156</ele>
        <time>2018-11-15T10:46:49Z</time>
      </trkpt>
      <trkpt lat="48.67018" lon="1.71237">
        <ele>156</ele>
        <time>2018-11-15T10:46:53Z</time>
      </trkpt>
      <trkpt lat="48.67023" lon="1.71243">
        <ele>156</ele>
        <time>2018-11-15T10:46:57Z</time>
      </trkpt>
      <trkpt lat="48.67027" lon="1.71251">
        <ele>155</ele>
        <time>2018-11-15T10:47:01Z</time>
      </trkpt>
      <trkpt lat="48.67032" lon="1.7126">
        <ele>155</ele>
        <time>2018-11-15T10:47:05Z</time>
      </trkpt>
      <trkpt lat="48.67038" lon="1.71269">
        <ele>155</ele>
        <time>2018-11-15T10:47:09Z</time>
      </trkpt>
      <trkpt lat="48.67043" lon="1.71279">
        <ele>155</ele>
        <time>2018-11-15T10:47:13Z</time>
      </trkpt>
      <trkpt lat="48.67048" lon="1.71285">
        <ele>155</ele>
        <time>2018-11-15T10:47:17Z</time>
      </trkpt>
      <trkpt lat="48.67052" lon="1.71291">
        <ele>156</ele>
        <time>2018-11-15T10:47:21Z</time>
      </trkpt>
      <trkpt lat="48.67058" lon="1.71296">
        <ele>156</ele>
        <time>2018-11-15T10:47:25Z</time>
      </trkpt>
      <trkpt lat="48.67064" lon="1.71298">
        <ele>156</ele>
        <time>2018-11-15T10:47:29Z</time>
      </trkpt>
      <trkpt lat="48.67068" lon="1.71305">
        <ele>156</ele>
        <time>2018-11-15T10:47:33Z</time>
      </trkpt>
      <trkpt lat="48.67073" lon="1.71313">
        <ele>156</ele>
        <time>2018-11-15T10:47:37Z</time>
      </trkpt>
      <trkpt lat="48.67076" lon="1.7132">
        <ele>157</ele>
        <time>2018-11-15T10:47:41Z</time>
      </trkpt>
      <trkpt lat="48.67081" lon="1.71327">
        <ele>157</ele>
        <time>2018-11-15T10:47:45Z</time>
      </trkpt>
      <trkpt lat="48.67085" lon="1.71328">
        <ele>159</ele>
        <time>2018-11-15T10:47:49Z</time>
      </trkpt>
      <trkpt lat="48.67089" lon="1.71333">
        <ele>159</ele>
        <time>2018-11-15T10:47:53Z</time>
      </trkpt>
      <trkpt lat="48.67094" lon="1.71341">
        <ele>159</ele>
        <time>2018-11-15T10:47:57Z</time>
      </trkpt>
      <trkpt lat="48.67098" lon="1.71346">
        <ele>159</ele>
        <time>2018-11-15T10:48:01Z</time>
      </trkpt>
      <trkpt lat="48.67103" lon="1.71352">
        <ele>159</ele>
        <time>2018-11-15T10:48:05Z</time>
      </trkpt>
      <trkpt lat="48.67108" lon="1.71357">
        <ele>160</ele>
        <time>2018-11-15T10:48:09Z</time>
      </trkpt>
      <trkpt lat="48.67112" lon="1.71367">
        <ele>160</ele>
        <time>2018-11-15T10:48:13Z</time>
      </trkpt>
      <trkpt lat="48.67114" lon="1.71373">
        <ele>160</ele>
        <time>2018-11-15T10:48:17Z</time>
      </trkpt>
      <trkpt lat="48.67118" lon="1.71383">
        <ele>160</ele>
        <time>2018-11-15T10:48:21Z</time>
      </trkpt>
      <trkpt lat="48.67121" lon="1.7139">
        <ele>160</ele>
        <time>2018-11-15T10:48:25Z</time>
      </trkpt>
      <trkpt lat="48.67126" lon="1.71393">
        <ele>160</ele>
        <time>2018-11-15T10:48:29Z</time>
      </trkpt>
      <trkpt lat="48.6713" lon="1.71399">
        <ele>160</ele>
        <time>2018-11-15T10:48:33Z</time>
      </trkpt>
      <trkpt lat="48.67132" lon="1.71406">
        <ele>160</ele>
        <time>2018-11-15T10:48:39Z</time>
      </trkpt>
      <trkpt lat="48.67136" lon="1.71411">
        <ele>160</ele>
        <time>2018-11-15T10:48:43Z</time>
      </trkpt>
      <trkpt lat="48.67135" lon="1.7142">
        <ele>159</ele>
        <time>2018-11-15T10:48:49Z</time>
      </trkpt>
      <trkpt lat="48.67131" lon="1.71426">
        <ele>159</ele>
        <time>2018-11-15T10:48:53Z</time>
      </trkpt>
      <trkpt lat="48.67126" lon="1.7143">
        <ele>159</ele>
        <time>2018-11-15T10:48:57Z</time>
      </trkpt>
      <trkpt lat="48.67122" lon="1.71433">
        <ele>159</ele>
        <time>2018-11-15T10:48:59Z</time>
      </trkpt>
      <trkpt lat="48.67115" lon="1.71435">
        <ele>158</ele>
        <time>2018-11-15T10:49:03Z</time>
      </trkpt>
      <trkpt lat="48.6711" lon="1.71437">
        <ele>158</ele>
        <time>2018-11-15T10:49:07Z</time>
      </trkpt>
      <trkpt lat="48.67103" lon="1.71441">
        <ele>158</ele>
        <time>2018-11-15T10:49:11Z</time>
      </trkpt>
      <trkpt lat="48.67099" lon="1.71445">
        <ele>158</ele>
        <time>2018-11-15T10:49:15Z</time>
      </trkpt>
      <trkpt lat="48.67095" lon="1.71453">
        <ele>158</ele>
        <time>2018-11-15T10:49:19Z</time>
      </trkpt>
      <trkpt lat="48.67088" lon="1.71456">
        <ele>158</ele>
        <time>2018-11-15T10:49:23Z</time>
      </trkpt>
      <trkpt lat="48.67081" lon="1.71462">
        <ele>155</ele>
        <time>2018-11-15T10:49:27Z</time>
      </trkpt>
      <trkpt lat="48.67074" lon="1.71466">
        <ele>155</ele>
        <time>2018-11-15T10:49:31Z</time>
      </trkpt>
      <trkpt lat="48.67067" lon="1.71471">
        <ele>154</ele>
        <time>2018-11-15T10:49:35Z</time>
      </trkpt>
      <trkpt lat="48.6706" lon="1.71473">
        <ele>154</ele>
        <time>2018-11-15T10:49:39Z</time>
      </trkpt>
      <trkpt lat="48.67054" lon="1.71479">
        <ele>154</ele>
        <time>2018-11-15T10:49:43Z</time>
      </trkpt>
      <trkpt lat="48.67047" lon="1.71482">
        <ele>154</ele>
        <time>2018-11-15T10:49:47Z</time>
      </trkpt>
      <trkpt lat="48.67042" lon="1.71488">
        <ele>154</ele>
        <time>2018-11-15T10:49:51Z</time>
      </trkpt>
      <trkpt lat="48.67036" lon="1.71492">
        <ele>154</ele>
        <time>2018-11-15T10:49:55Z</time>
      </trkpt>
      <trkpt lat="48.67029" lon="1.71497">
        <ele>153</ele>
        <time>2018-11-15T10:49:59Z</time>
      </trkpt>
      <trkpt lat="48.67022" lon="1.71502">
        <ele>152</ele>
        <time>2018-11-15T10:50:03Z</time>
      </trkpt>
      <trkpt lat="48.67014" lon="1.71507">
        <ele>152</ele>
        <time>2018-11-15T10:50:07Z</time>
      </trkpt>
      <trkpt lat="48.67007" lon="1.71511">
        <ele>152</ele>
        <time>2018-11-15T10:50:11Z</time>
      </trkpt>
      <trkpt lat="48.67003" lon="1.71513">
        <ele>152</ele>
        <time>2018-11-15T10:50:13Z</time>
      </trkpt>
      <trkpt lat="48.66996" lon="1.71516">
        <ele>151</ele>
        <time>2018-11-15T10:50:17Z</time>
      </trkpt>
      <trkpt lat="48.6699" lon="1.71521">
        <ele>151</ele>
        <time>2018-11-15T10:50:21Z</time>
      </trkpt>
      <trkpt lat="48.66985" lon="1.71526">
        <ele>150</ele>
        <time>2018-11-15T10:50:25Z</time>
      </trkpt>
      <trkpt lat="48.66979" lon="1.71529">
        <ele>150</ele>
        <time>2018-11-15T10:50:29Z</time>
      </trkpt>
      <trkpt lat="48.66973" lon="1.71532">
        <ele>150</ele>
        <time>2018-11-15T10:50:33Z</time>
      </trkpt>
      <trkpt lat="48.66968" lon="1.71536">
        <ele>150</ele>
        <time>2018-11-15T10:50:37Z</time>
      </trkpt>
      <trkpt lat="48.66962" lon="1.71539">
        <ele>150</ele>
        <time>2018-11-15T10:50:41Z</time>
      </trkpt>
      <trkpt lat="48.66955" lon="1.71543">
        <ele>150</ele>
        <time>2018-11-15T10:50:45Z</time>
      </trkpt>
      <trkpt lat="48.66948" lon="1.71548">
        <ele>150</ele>
        <time>2018-11-15T10:50:49Z</time>
      </trkpt>
      <trkpt lat="48.66941" lon="1.71552">
        <ele>150</ele>
        <time>2018-11-15T10:50:53Z</time>
      </trkpt>
      <trkpt lat="48.66936" lon="1.71558">
        <ele>150</ele>
        <time>2018-11-15T10:50:57Z</time>
      </trkpt>
      <trkpt lat="48.66929" lon="1.71561">
        <ele>150</ele>
        <time>2018-11-15T10:51:01Z</time>
      </trkpt>
      <trkpt lat="48.66923" lon="1.71563">
        <ele>150</ele>
        <time>2018-11-15T10:51:05Z</time>
      </trkpt>
      <trkpt lat="48.66917" lon="1.71566">
        <ele>149</ele>
        <time>2018-11-15T10:51:09Z</time>
      </trkpt>
      <trkpt lat="48.66912" lon="1.71569">
        <ele>149</ele>
        <time>2018-11-15T10:51:13Z</time>
      </trkpt>
      <trkpt lat="48.66906" lon="1.71572">
        <ele>149</ele>
        <time>2018-11-15T10:51:17Z</time>
      </trkpt>
      <trkpt lat="48.66899" lon="1.71577">
        <ele>149</ele>
        <time>2018-11-15T10:51:21Z</time>
      </trkpt>
      <trkpt lat="48.66893" lon="1.71581">
        <ele>149</ele>
        <time>2018-11-15T10:51:25Z</time>
      </trkpt>
      <trkpt lat="48.66886" lon="1.71583">
        <ele>151</ele>
        <time>2018-11-15T10:51:29Z</time>
      </trkpt>
      <trkpt lat="48.6688" lon="1.71587">
        <ele>151</ele>
        <time>2018-11-15T10:51:33Z</time>
      </trkpt>
      <trkpt lat="48.66874" lon="1.7159">
        <ele>151</ele>
        <time>2018-11-15T10:51:37Z</time>
      </trkpt>
      <trkpt lat="48.66868" lon="1.71593">
        <ele>151</ele>
        <time>2018-11-15T10:51:41Z</time>
      </trkpt>
      <trkpt lat="48.6686" lon="1.71596">
        <ele>151</ele>
        <time>2018-11-15T10:51:45Z</time>
      </trkpt>
      <trkpt lat="48.66853" lon="1.71599">
        <ele>151</ele>
        <time>2018-11-15T10:51:49Z</time>
      </trkpt>
      <trkpt lat="48.66848" lon="1.71603">
        <ele>151</ele>
        <time>2018-11-15T10:51:53Z</time>
      </trkpt>
      <trkpt lat="48.66843" lon="1.71608">
        <ele>152</ele>
        <time>2018-11-15T10:51:57Z</time>
      </trkpt>
      <trkpt lat="48.66837" lon="1.7161">
        <ele>152</ele>
        <time>2018-11-15T10:52:01Z</time>
      </trkpt>
      <trkpt lat="48.66832" lon="1.71614">
        <ele>152</ele>
        <time>2018-11-15T10:52:05Z</time>
      </trkpt>
      <trkpt lat="48.66827" lon="1.71617">
        <ele>152</ele>
        <time>2018-11-15T10:52:09Z</time>
      </trkpt>
      <trkpt lat="48.66821" lon="1.71621">
        <ele>152</ele>
        <time>2018-11-15T10:52:13Z</time>
      </trkpt>
      <trkpt lat="48.66814" lon="1.71624">
        <ele>152</ele>
        <time>2018-11-15T10:52:17Z</time>
      </trkpt>
      <trkpt lat="48.66808" lon="1.71626">
        <ele>152</ele>
        <time>2018-11-15T10:52:21Z</time>
      </trkpt>
      <trkpt lat="48.668" lon="1.71631">
        <ele>152</ele>
        <time>2018-11-15T10:52:25Z</time>
      </trkpt>
      <trkpt lat="48.66794" lon="1.71634">
        <ele>152</ele>
        <time>2018-11-15T10:52:29Z</time>
      </trkpt>
      <trkpt lat="48.66787" lon="1.71638">
        <ele>152</ele>
        <time>2018-11-15T10:52:33Z</time>
      </trkpt>
      <trkpt lat="48.66781" lon="1.71642">
        <ele>152</ele>
        <time>2018-11-15T10:52:37Z</time>
      </trkpt>
      <trkpt lat="48.66776" lon="1.71645">
        <ele>152</ele>
        <time>2018-11-15T10:52:41Z</time>
      </trkpt>
      <trkpt lat="48.66769" lon="1.71649">
        <ele>152</ele>
        <time>2018-11-15T10:52:45Z</time>
      </trkpt>
      <trkpt lat="48.66764" lon="1.71651">
        <ele>152</ele>
        <time>2018-11-15T10:52:49Z</time>
      </trkpt>
      <trkpt lat="48.66757" lon="1.71653">
        <ele>152</ele>
        <time>2018-11-15T10:52:53Z</time>
      </trkpt>
      <trkpt lat="48.66751" lon="1.71655">
        <ele>152</ele>
        <time>2018-11-15T10:52:57Z</time>
      </trkpt>
      <trkpt lat="48.66745" lon="1.71659">
        <ele>150</ele>
        <time>2018-11-15T10:53:01Z</time>
      </trkpt>
      <trkpt lat="48.66737" lon="1.71661">
        <ele>149</ele>
        <time>2018-11-15T10:53:05Z</time>
      </trkpt>
      <trkpt lat="48.66732" lon="1.71663">
        <ele>149</ele>
        <time>2018-11-15T10:53:09Z</time>
      </trkpt>
      <trkpt lat="48.66725" lon="1.71666">
        <ele>148</ele>
        <time>2018-11-15T10:53:13Z</time>
      </trkpt>
      <trkpt lat="48.66719" lon="1.71668">
        <ele>148</ele>
        <time>2018-11-15T10:53:17Z</time>
      </trkpt>
      <trkpt lat="48.66713" lon="1.71671">
        <ele>148</ele>
        <time>2018-11-15T10:53:21Z</time>
      </trkpt>
      <trkpt lat="48.66706" lon="1.71674">
        <ele>147</ele>
        <time>2018-11-15T10:53:25Z</time>
      </trkpt>
      <trkpt lat="48.667" lon="1.71677">
        <ele>147</ele>
        <time>2018-11-15T10:53:29Z</time>
      </trkpt>
      <trkpt lat="48.66696" lon="1.71681">
        <ele>146</ele>
        <time>2018-11-15T10:53:33Z</time>
      </trkpt>
      <trkpt lat="48.66691" lon="1.71683">
        <ele>146</ele>
        <time>2018-11-15T10:53:37Z</time>
      </trkpt>
      <trkpt lat="48.66685" lon="1.71686">
        <ele>146</ele>
        <time>2018-11-15T10:53:41Z</time>
      </trkpt>
      <trkpt lat="48.66681" lon="1.7169">
        <ele>145</ele>
        <time>2018-11-15T10:53:45Z</time>
      </trkpt>
      <trkpt lat="48.66681" lon="1.71697">
        <ele>146</ele>
        <time>2018-11-15T10:53:57Z</time>
      </trkpt>
      <trkpt lat="48.66677" lon="1.71703">
        <ele>146</ele>
        <time>2018-11-15T10:54:03Z</time>
      </trkpt>
    </trkseg>
  </trk>
</gpx>